[[{"header":{"parameterUnit":"m.s-1","parameterCategory":1,"la1":30.6,"la2":29.2853,"lo1":-89.7004,"lo2":-87.6739,"dy":0.0162,"dx":0.0183,"nx":112,"ny":82,"refTime":"2023-11-08T06:00:00:Z","depth":0,"parameterNumber":2,"parameterNumberName":"U-component_of_WINDS"},"data":[0.0,0.0,0.0,0.0,0.0,0.0,0.0,0.0,0.0,0.0,0.0,0.0,0.0,0.0,0.0,0.0,0.0,0.0,0.0,0.0,0.0,0.0,0.0,0.0,0.0,0.0,0.0,0.0,0.0,0.0,0.0,0.0,0.0,0.0,0.0,0.0,0.0,0.0,0.0,0.0,0.0,0.0,0.0,0.0,0.0,0.0,0.0,0.0,0.0,0.0,0.0,0.0,0.0,0.0,0.0,0.0,0.0,0.0,0.0,0.0,0.0,0.0,0.0,0.0,0.0,0.0,0.0,0.0,0.0,0.0,0.0,0.0,0.0,0.0,0.0,0.0,0.0,0.0,0.0,0.0,0.0,0.0,0.0,0.0,0.0,0.0,0.0,0.0,0.0,0.0,2.5015,2.5741,2.7914,2.9291,2.9303,2.8842,2.7577,2.5467,0.0,0.0,0.0,0.0,0.0,0.0,0.0,0.0,0.0,0.0,0.0,0.0,0.0,0.0,0.0,0.0,0.0,0.0,0.0,0.0,0.0,0.0,0.0,0.0,0.0,0.0,0.0,0.0,0.0,0.0,0.0,0.0,0.0,0.0,0.0,0.0,0.0,0.0,0.0,0.0,0.0,0.0,0.0,0.0,0.0,0.0,0.0,0.0,0.0,0.0,0.0,0.0,0.0,0.0,0.0,0.0,0.0,0.0,0.0,0.0,0.0,0.0,0.0,0.0,0.0,0.0,0.0,0.0,0.0,0.0,0.0,0.0,0.0,0.0,0.0,0.0,0.0,0.0,0.0,0.0,0.0,0.0,0.0,0.0,0.0,0.0,0.0,0.0,0.0,0.0,0.0,0.0,0.0,0.0,0.0,0.0,0.0,0.0,0.0,0.0,0.0,0.0,0.0,0.0,2.4496,2.5745,2.7121,2.7969,2.7961,2.7489,2.6258,2.4106,0.0,0.0,0.0,0.0,0.0,0.0,0.0,0.0,0.0,0.0,0.0,0.0,0.0,0.0,0.0,0.0,0.0,0.0,0.0,0.0,0.0,0.0,0.0,0.0,0.0,0.0,0.0,0.0,0.0,0.0,0.0,0.0,0.0,0.0,0.0,0.0,0.0,0.0,0.0,0.0,0.0,0.0,0.0,0.0,0.0,0.0,0.0,0.0,0.0,0.0,0.0,0.0,0.0,0.0,0.0,0.0,0.0,0.0,0.0,0.0,0.0,0.0,0.0,0.0,0.0,0.0,0.0,0.0,0.0,0.0,0.0,0.0,0.0,0.0,0.0,0.0,0.0,0.0,0.0,0.0,0.0,0.0,0.0,0.0,0.0,0.0,0.0,0.0,0.0,0.0,0.0,0.0,0.0,0.0,0.0,0.0,0.0,0.0,0.0,0.0,0.0,0.0,0.0,2.3951,2.4716,2.5353,2.6491,2.6976,2.6321,2.6369,2.5572,2.3401,2.2506,0.0,0.0,0.0,0.0,0.0,0.0,0.0,0.0,0.0,0.0,0.0,0.0,0.0,0.0,0.0,0.0,0.0,0.0,0.0,0.0,0.0,0.0,0.0,0.0,0.0,0.0,0.0,0.0,0.0,0.0,0.0,0.0,0.0,0.0,0.0,0.0,0.0,0.0,0.0,0.0,0.0,0.0,0.0,0.0,0.0,0.0,0.0,0.0,0.0,0.0,0.0,0.0,0.0,0.0,0.0,0.0,0.0,0.0,0.0,0.0,0.0,0.0,0.0,0.0,0.0,0.0,0.0,0.0,0.0,0.0,0.0,0.0,0.0,0.0,0.0,0.0,0.0,0.0,0.0,0.0,0.0,0.0,0.0,0.0,0.0,0.0,0.0,0.0,0.0,0.0,0.0,0.0,0.0,0.0,0.0,0.0,0.0,0.0,0.0,0.0,0.0,0.0,2.4487,2.4501,2.4343,2.5397,2.5673,2.4637,2.4997,2.4425,2.2502,2.1344,0.0,0.0,0.0,0.0,0.0,0.0,0.0,0.0,0.0,0.0,0.0,0.0,0.0,0.0,0.0,0.0,0.0,0.0,0.0,0.0,0.0,0.0,0.0,0.0,0.0,0.0,0.0,0.0,0.0,0.0,0.0,0.0,0.0,0.0,0.0,0.0,0.0,0.0,0.0,0.0,0.0,0.0,0.0,0.0,0.0,0.0,0.0,0.0,0.0,0.0,0.0,0.0,0.0,0.0,0.0,0.0,0.0,0.0,0.0,0.0,0.0,0.0,0.0,0.0,0.0,0.0,0.0,0.0,0.0,0.0,0.0,0.0,0.0,0.0,0.0,0.0,0.0,0.0,0.0,0.0,0.0,0.0,0.0,0.0,0.0,0.0,0.0,0.0,0.0,0.0,0.0,0.0,0.0,0.0,0.0,0.0,0.0,0.0,0.0,0.0,0.0,0.0,2.3177,2.2978,2.2426,2.3405,2.3768,2.2932,2.2795,2.2209,2.1027,1.9837,0.0,0.0,0.0,0.0,0.0,0.0,0.0,0.0,0.0,0.0,0.0,0.0,0.0,0.0,0.0,0.0,0.0,0.0,0.0,0.0,0.0,0.0,0.0,0.0,0.0,0.0,0.0,0.0,0.0,0.0,0.0,0.0,0.0,0.0,0.0,0.0,0.0,0.0,0.0,0.0,0.0,0.0,0.0,0.0,0.0,0.0,0.0,0.0,0.0,0.0,0.0,0.0,0.0,0.0,0.0,0.0,0.0,0.0,0.0,0.0,0.0,0.0,0.0,0.0,0.0,0.0,0.0,0.0,0.0,0.0,0.0,0.0,0.0,0.0,0.0,0.0,0.0,0.0,0.0,0.0,0.0,0.0,0.0,0.0,0.0,0.0,0.0,0.0,0.0,0.0,0.0,0.0,0.0,0.0,0.0,0.0,0.0,0.0,0.0,0.0,0.0,0.0,2.2918,2.2831,0.0,2.239,2.224,2.074,2.138,2.1069,1.9345,0.0,0.0,0.0,0.0,0.0,0.0,0.0,0.0,0.0,0.0,0.0,0.0,0.0,0.0,0.0,0.0,0.0,0.0,0.0,0.0,0.0,0.0,0.0,0.0,0.0,0.0,0.0,0.0,0.0,0.0,0.0,0.0,0.0,0.0,0.0,0.0,0.0,0.0,0.0,0.0,0.0,0.0,0.0,0.0,0.0,0.0,0.0,0.0,0.0,0.0,0.0,0.0,0.0,0.0,0.0,0.0,0.0,0.0,0.0,0.0,0.0,0.0,0.0,0.0,0.0,0.0,0.0,0.0,0.0,0.0,0.0,0.0,0.0,0.0,0.0,0.0,0.0,0.0,0.0,0.0,0.0,0.0,0.0,0.0,0.0,0.0,0.0,0.0,0.0,0.0,0.0,0.0,0.0,0.0,0.0,0.0,0.0,0.0,0.0,0.0,0.0,0.0,2.1703,2.247,2.2311,0.0,2.1002,2.0686,1.9111,1.9654,1.9565,1.8427,0.0,0.0,0.0,0.0,0.0,0.0,0.0,0.0,0.0,0.0,0.0,0.0,0.0,0.0,0.0,0.0,0.0,0.0,0.0,0.0,0.0,0.0,0.0,0.0,0.0,0.0,0.0,0.0,0.0,0.0,0.0,0.0,0.0,0.0,0.0,0.0,0.0,0.0,0.0,0.0,0.0,0.0,0.0,0.0,0.0,0.0,0.0,0.0,0.0,0.0,0.0,0.0,0.0,0.0,0.0,0.0,0.0,0.0,0.0,0.0,0.0,0.0,0.0,0.0,0.0,0.0,0.0,0.0,0.0,0.0,0.0,0.0,0.0,0.0,0.0,0.0,0.0,0.0,0.0,0.0,0.0,0.0,0.0,0.0,0.0,0.0,0.0,0.0,0.0,0.0,0.0,0.0,0.0,0.0,0.0,0.0,0.0,0.0,0.0,0.0,0.0,0.0,2.0638,2.1488,2.1145,1.8743,1.9006,1.902,1.8074,1.7475,1.7533,0.0,0.0,0.0,0.0,0.0,0.0,0.0,0.0,0.0,0.0,0.0,0.0,0.0,0.0,0.0,0.0,0.0,0.0,0.0,0.0,0.0,0.0,0.0,0.0,0.0,0.0,0.0,0.0,0.0,0.0,0.0,0.0,0.0,0.0,0.0,0.0,0.0,0.0,0.0,0.0,0.0,0.0,0.0,0.0,0.0,0.0,0.0,0.0,0.0,0.0,0.0,0.0,0.0,0.0,0.0,0.0,0.0,0.0,0.0,0.0,0.0,0.0,0.0,0.0,0.0,0.0,0.0,0.0,0.0,0.0,0.0,0.0,0.0,0.0,0.0,0.0,0.0,0.0,0.0,0.0,0.0,0.0,0.0,0.0,0.0,0.0,0.0,0.0,0.0,0.0,0.0,0.0,0.0,0.0,0.0,0.0,0.0,0.0,0.0,0.0,0.0,0.0,0.0,2.008,2.0308,1.9968,1.8672,1.834,1.7812,1.6899,1.6964,1.6948,1.6655,0.0,0.0,0.0,0.0,0.0,0.0,0.0,0.0,0.0,0.0,0.0,0.0,0.0,0.0,0.0,0.0,0.0,0.0,0.0,0.0,0.0,0.0,0.0,0.0,0.0,0.0,0.0,0.0,0.0,0.0,0.0,0.0,0.0,0.0,0.0,0.0,0.0,0.0,0.0,0.0,0.0,0.0,0.0,0.0,0.0,0.0,0.0,0.0,0.0,0.0,0.0,0.0,0.0,0.0,0.0,0.0,0.0,0.0,0.0,0.0,0.0,0.0,0.0,0.0,0.0,0.0,0.0,0.0,0.0,0.0,0.0,0.0,0.0,0.0,0.0,0.0,0.0,0.0,0.0,0.0,0.0,0.0,0.0,0.0,0.0,0.0,0.0,0.0,0.0,0.0,0.0,0.0,0.0,0.0,0.0,0.0,0.0,0.0,0.0,0.0,0.0,0.0,1.9463,1.9594,1.9223,1.7975,1.749,1.6877,1.6026,1.6222,1.6145,1.5758,0.0,0.0,0.0,0.0,0.0,0.0,0.0,0.0,0.0,0.0,0.0,0.0,0.0,0.0,0.0,0.0,0.0,0.0,0.0,0.0,0.0,0.0,0.0,0.0,0.0,0.0,0.0,0.0,0.0,0.0,0.0,0.0,0.0,0.0,0.0,0.0,0.0,0.0,0.0,0.0,0.0,0.0,0.0,0.0,0.0,0.0,0.0,0.0,0.0,0.0,0.0,0.0,0.0,0.0,0.0,0.0,0.0,0.0,0.0,0.0,0.0,0.0,0.0,0.0,0.0,0.0,0.0,0.0,0.0,0.0,0.0,0.0,0.0,0.0,0.0,0.0,0.0,0.0,0.0,0.0,0.0,0.0,0.0,0.0,0.0,0.0,0.0,0.0,0.0,0.0,0.0,0.0,0.0,0.0,0.0,0.0,0.0,0.0,0.0,0.0,0.0,0.0,1.898,1.9233,1.8709,1.6976,1.6606,1.6151,1.5468,1.5352,1.5342,1.5313,0.0,0.0,0.0,0.0,0.0,0.0,0.0,0.0,0.0,0.0,0.0,0.0,0.0,0.0,0.0,0.0,0.0,0.0,0.0,0.0,0.0,0.0,0.0,0.0,0.0,0.0,0.0,0.0,0.0,0.0,0.0,0.0,0.0,0.0,0.0,0.0,0.0,0.0,0.0,0.0,0.0,0.0,0.0,0.0,0.0,0.0,0.0,0.0,0.0,0.0,0.0,0.0,0.0,0.0,0.0,0.0,0.0,0.0,0.0,0.0,2.2146,0.0,0.0,0.0,0.0,0.0,0.0,0.0,0.0,0.0,0.0,0.0,0.0,0.0,0.0,0.0,0.0,0.0,0.0,0.0,0.0,0.0,0.0,0.0,0.0,0.0,0.0,0.0,0.0,0.0,0.0,0.0,0.0,0.0,0.0,0.0,0.0,0.0,0.0,0.0,0.0,0.0,1.8915,1.8141,1.7333,1.6832,1.6218,1.571,1.541,1.4942,1.4706,1.4697,1.3914,0.0,0.0,0.0,0.0,0.0,0.0,0.0,0.0,0.0,0.0,0.0,0.0,0.0,0.0,0.0,0.0,0.0,0.0,0.0,0.0,0.0,0.0,0.0,0.0,0.0,0.0,0.0,0.0,0.0,0.0,0.0,0.0,0.0,0.0,0.0,0.0,0.0,0.0,0.0,0.0,0.0,0.0,0.0,0.0,0.0,0.0,0.0,0.0,0.0,0.0,0.0,0.0,0.0,0.0,0.0,0.0,0.0,0.0,0.0,0.0,2.2278,0.0,0.0,0.0,0.0,0.0,0.0,0.0,0.0,0.0,0.0,0.0,0.0,0.0,0.0,0.0,0.0,0.0,0.0,0.0,0.0,0.0,0.0,0.0,0.0,0.0,0.0,0.0,0.0,0.0,0.0,0.0,0.0,0.0,0.0,0.0,0.0,0.0,0.0,0.0,0.0,1.8089,1.7446,1.6842,1.64,1.5951,1.5488,1.5001,1.4706,1.4222,1.3606,1.3252,0.0,0.0,0.0,0.0,0.0,0.0,0.0,0.0,0.0,0.0,0.0,0.0,0.0,0.0,0.0,0.0,0.0,0.0,0.0,0.0,0.0,0.0,0.0,0.0,0.0,0.0,0.0,0.0,0.0,0.0,0.0,0.0,0.0,0.0,0.0,0.0,0.0,0.0,0.0,0.0,0.0,0.0,0.0,0.0,0.0,0.0,0.0,0.0,0.0,0.0,0.0,0.0,0.0,2.3928,2.4114,2.3565,2.3644,2.365,2.3501,2.2794,2.3323,2.454,2.3166,0.0,0.0,0.0,0.0,0.0,0.0,0.0,0.0,0.0,0.0,0.0,0.0,0.0,0.0,0.0,0.0,0.0,0.0,0.0,0.0,0.0,0.0,0.0,0.0,2.0048,2.1259,0.0,0.0,0.0,0.0,0.0,0.0,0.0,0.0,0.0,0.0,0.0,0.0,1.7203,1.6944,1.657,1.5972,1.573,1.5313,1.4597,1.441,1.3795,1.2573,1.2696,1.189,0.0,0.0,0.0,0.0,0.0,0.0,0.0,0.0,0.0,0.0,0.0,0.0,0.0,0.0,0.0,0.0,0.0,0.0,0.0,0.0,0.0,0.0,0.0,0.0,0.0,0.0,0.0,0.0,0.0,0.0,0.0,0.0,1.9506,2.0258,0.0,0.0,0.0,0.0,0.0,0.0,0.0,0.0,0.0,0.0,0.0,0.0,0.0,2.1725,2.1669,2.2926,2.3342,2.2908,2.4542,2.4581,2.3509,2.3957,2.4237,2.4506,2.3682,0.0,2.3483,2.2765,0.0,0.0,0.0,0.0,0.0,0.0,0.0,0.0,0.0,0.0,0.0,0.0,0.0,0.0,0.0,0.0,0.0,0.0,0.0,0.0,0.0,0.0,2.033,1.9775,2.0732,2.1611,0.0,1.9872,1.8965,1.8437,1.7686,0.0,0.0,0.0,0.0,0.0,0.0,0.0,1.7191,1.6503,1.6029,1.5914,1.5604,1.5177,1.4529,1.3992,1.3321,1.2573,1.1787,1.0961,0.9964,0.9612,0.0,0.0,0.0,0.0,0.0,0.0,0.0,0.0,0.0,0.0,0.0,0.0,0.0,0.0,0.0,0.0,0.0,0.0,0.0,0.0,0.0,0.0,0.0,0.0,0.0,0.0,0.0,0.0,0.0,1.8615,1.9629,1.958,1.9804,1.9636,0.0,0.0,0.0,0.0,0.0,0.0,0.0,0.0,0.0,2.2116,2.2758,2.3098,2.3098,2.4079,2.4253,2.3639,2.4583,2.4629,2.3895,2.407,2.4248,2.4365,2.4082,2.3749,2.3355,2.3312,2.3119,2.2824,0.0,0.0,0.0,0.0,1.9905,1.9392,1.8972,1.8836,0.0,1.8364,0.0,0.0,0.0,0.0,0.0,0.0,0.0,0.0,0.0,0.0,2.0677,2.0026,2.0853,2.1611,2.0886,2.0255,1.9624,0.0,1.8247,1.7687,1.7465,0.0,0.0,0.0,0.0,1.674,1.674,1.6353,1.5961,1.5914,1.5362,1.4706,1.3992,1.3312,1.2642,1.2035,1.1428,1.0604,0.9506,0.934,0.8323,0.0,0.0,0.0,0.0,0.0,0.0,0.0,0.0,0.0,0.0,0.0,0.0,0.0,0.0,0.0,0.0,0.0,0.0,0.0,0.0,0.0,0.0,0.0,0.0,0.0,0.0,0.0,0.0,1.9389,2.0246,1.9421,2.0319,2.0448,0.0,0.0,0.0,0.0,0.0,0.0,2.1686,2.2126,2.2685,2.34,2.4106,2.4464,2.4464,2.5161,2.5161,2.4473,2.4886,2.4757,2.4152,2.4152,2.4042,2.3849,2.3849,2.373,2.351,2.357,2.3439,2.3047,2.2505,2.2045,2.1674,2.109,2.0576,2.0158,1.9892,1.9766,1.9629,1.8996,0.0,1.9314,1.8997,0.0,0.0,0.0,0.0,1.8984,1.8452,1.9363,2.034,1.9736,2.0527,2.1269,2.0576,2.0234,1.9913,0.0,1.8692,1.7999,1.7276,0.0,0.0,0.0,0.0,1.6384,1.6384,1.6056,1.5758,1.5662,1.4883,1.4103,1.3321,1.2765,1.2212,1.1553,1.1052,1.0281,0.8988,0.8935,0.7827,0.5477,0.0,0.0,0.0,0.0,0.0,0.0,0.0,0.0,0.0,0.0,0.0,0.0,0.0,0.0,0.0,0.0,0.0,0.0,0.0,0.0,0.0,0.0,0.0,0.0,0.0,0.0,0.0,0.0,0.0,2.108,2.274,0.0,0.0,0.0,0.0,2.1612,2.1979,2.2566,2.3382,2.3804,2.4235,2.4675,2.5096,2.5307,2.5307,2.572,2.572,2.5307,2.5711,2.5289,2.4152,2.4152,2.3739,2.3015,2.3015,2.3217,2.351,2.3116,2.2441,2.1648,2.135,2.0674,1.9982,2.0316,2.014,1.9866,2.0138,2.0275,2.0232,1.9749,1.9795,1.9905,1.9463,2.011,0.0,0.0,1.8965,1.8745,1.7752,1.8082,1.8692,1.8692,1.9588,2.0483,2.0431,1.9748,1.9251,0.0,1.8671,1.7688,1.7647,0.0,1.6384,1.6384,1.6384,1.6384,1.6384,1.5575,1.4972,1.4972,1.4094,1.3321,1.2634,1.2512,1.2151,1.1365,1.0534,0.9633,0.8731,0.7972,0.6929,0.5411,0.5267,0.0,0.0,0.0,0.0,0.0,0.0,0.0,0.0,0.0,0.0,0.0,0.0,0.0,0.0,0.0,0.0,0.0,0.0,0.0,0.0,0.0,0.0,0.0,0.0,0.0,0.0,0.0,0.0,2.2355,2.3639,0.0,2.2447,2.2657,2.3006,2.3272,2.3675,2.4143,2.4684,2.4858,2.5005,2.5161,2.5298,2.5372,2.5372,2.5262,2.5133,2.4986,2.4592,2.418,2.3749,2.3501,2.3226,2.2857,2.2857,2.2784,2.2749,2.2612,2.2683,2.2749,2.2117,2.1707,2.132,2.0631,2.0266,2.0069,1.9608,1.9664,1.9961,2.0181,2.0114,1.9879,1.9742,1.9487,1.9034,1.8502,1.8428,1.8238,1.7611,1.8118,1.8715,1.8775,1.8604,1.8521,1.8814,1.8041,1.7471,1.7926,1.7564,1.7224,1.7224,1.6788,1.6384,1.6384,1.6384,1.6192,1.571,1.5216,1.4728,1.4186,1.3356,1.2757,1.2512,1.2158,1.1545,1.0724,1.0212,0.9442,0.8091,0.7712,0.6597,0.4749,0.4535,0.3845,0.0,0.0,0.0,0.0,0.0,0.0,0.0,0.0,0.0,0.0,0.0,0.0,0.0,0.0,0.0,0.0,0.0,0.0,0.0,0.0,0.0,0.0,0.0,0.0,0.0,0.0,2.3712,2.2939,2.44,2.4858,2.3492,2.3969,2.4473,2.4739,2.5023,2.5353,2.5757,2.5784,2.5711,2.5573,2.5564,2.5509,2.5372,2.5115,2.484,2.4565,2.4015,2.3529,2.3125,2.2859,2.2574,2.2547,2.2547,2.2382,2.2116,2.197,2.2236,2.2676,2.2282,2.2034,2.1788,2.0899,2.0456,2.0315,1.9703,1.9627,1.9832,2.0159,2.0044,1.9696,1.9558,1.89,1.8217,1.7997,1.7728,1.747,1.7072,1.7304,1.7681,1.7945,1.7417,1.7059,1.7551,1.6846,1.6229,1.6529,1.6591,1.6632,1.6798,1.6312,1.5918,1.5918,1.5918,1.5675,1.4914,1.444,1.3959,1.333,1.251,1.2088,1.2205,1.1608,1.0919,1.0212,0.9611,0.8742,0.7595,0.7154,0.6057,0.4224,0.3687,0.2871,0.1752,0.0,0.0,0.0,0.0,0.0,0.0,0.0,0.0,0.0,0.0,0.0,0.0,0.0,0.0,0.0,0.0,0.0,0.0,0.0,0.0,0.0,0.0,0.0,2.1823,2.3538,2.4354,2.3208,2.5152,2.5968,2.4381,2.5289,2.5977,2.5977,2.5977,2.616,2.6564,2.6582,2.6371,2.5949,2.5931,2.5738,2.5335,2.5335,2.4931,2.4134,2.4125,2.3483,2.2327,2.23,2.2089,2.1741,2.1722,2.1722,2.1704,2.1282,2.1108,2.1145,2.1548,2.1447,2.1089,2.1089,2.0842,2.0493,2.0484,2.0237,1.9907,1.9907,1.9622,1.921,1.8834,1.8696,1.851,1.7716,1.6973,1.6306,1.5939,1.5586,1.5468,1.6027,1.6133,1.6247,1.6796,1.626,1.5628,1.5639,1.5628,1.5773,1.6249,1.5587,1.4997,1.4997,1.4945,0.0,1.4058,1.3286,1.2659,1.229,1.1523,1.1194,1.1578,1.0912,1.0338,1.0015,0.8515,0.7519,0.7144,0.6349,0.529,0.3972,0.2766,0.1868,0.1351,0.0,0.0,0.0,0.0,0.0,0.0,0.0,0.0,0.0,0.0,0.0,0.0,0.0,0.0,0.0,0.0,0.0,0.0,0.0,0.0,0.0,0.0,2.3263,2.3859,2.4427,2.4986,2.5527,2.6178,2.6417,2.5958,2.6215,2.6417,2.6417,2.6417,2.6463,2.6582,2.6298,2.5949,2.5546,2.5252,2.4913,2.4491,2.4491,2.4225,2.3712,2.3419,2.2951,2.23,2.1713,2.1548,2.1722,2.141,2.1456,2.1704,2.1282,2.1108,2.1089,2.0915,2.0787,2.0601,2.026,1.9925,1.954,1.9272,1.9335,1.9476,1.9476,1.9201,1.8852,1.8742,1.8302,1.767,1.6902,1.6358,1.5783,1.4832,1.5151,1.5519,1.5037,1.5176,1.5416,1.5198,1.4666,1.4283,1.4624,1.4417,1.4438,1.5245,1.4834,1.4556,1.4945,1.4281,0.0,1.3177,1.2512,1.184,1.1157,1.0892,1.0858,1.118,1.0465,0.9799,0.9302,0.8122,0.7007,0.5929,0.5526,0.4709,0.3343,0.2511,0.1977,0.0,0.0,0.0,0.0,0.0,0.0,0.0,0.0,0.0,0.0,0.0,0.0,0.0,0.0,0.0,0.0,0.0,0.0,0.0,0.0,0.0,0.0,2.2923,2.3895,2.4886,2.517,2.5601,2.6481,2.6591,2.6591,2.6591,2.6591,2.6591,2.6591,2.6591,2.6591,2.6591,2.6188,2.5775,2.5381,2.4986,2.4583,2.4161,2.3978,2.3694,2.3195,2.2887,2.2474,2.2061,2.1401,2.1337,2.1704,2.1117,2.1099,2.1447,2.1025,2.086,0.0,0.0,0.0,0.0,0.0,1.9452,1.9219,1.8994,1.9073,1.9301,1.9301,1.8916,1.8467,1.8467,1.7899,1.7095,1.62,1.5674,1.5169,1.4302,1.4329,1.4547,1.455,1.4299,1.4098,1.4098,1.3461,1.3008,1.3263,1.3302,0.0,1.3952,1.3993,1.3942,1.3993,1.341,1.2666,1.1982,1.1564,1.1146,1.0672,1.0587,1.0654,1.0737,1.0021,0.0,0.0,0.0,0.6459,0.5222,0.4565,0.0,0.0,0.0,0.2018,0.1727,0.0,0.0,0.0,-0.0721,-0.1192,0.0,0.0,0.0,0.0,0.0,0.0,0.0,0.0,0.0,0.0,0.0,0.0,0.0,0.0,0.0,0.0,2.345,2.4005,2.5142,2.561,2.5995,2.6463,2.6518,2.6536,2.6582,2.6591,2.6591,2.6591,2.6545,2.6536,2.6591,0.0,0.0,0.0,0.0,2.4601,2.4088,2.373,2.3318,2.2784,2.2502,2.2116,2.1722,2.1255,2.1273,2.1621,2.0805,2.0677,2.1007,2.0613,2.042,2.0383,2.0429,2.0209,1.9815,1.9439,1.9301,1.9292,1.9246,0.0,0.0,1.9182,1.8669,1.8054,1.8054,1.7414,1.6546,1.5538,1.4947,1.443,1.3992,1.3364,1.3159,1.4129,1.3518,1.2781,1.3144,1.2598,1.2008,1.2008,1.2384,1.2667,1.2667,1.3122,1.3276,1.2667,1.2463,1.1913,1.0762,1.0517,1.052,1.0519,0.0,0.0,1.0309,0.9654,0.8832,0.7767,0.677,0.5716,0.4748,0.3558,0.2912,0.2912,0.2457,0.1951,0.1412,0.0804,0.0267,-0.0201,-0.0335,-0.0806,0.0,0.0,0.0,0.0,0.0,0.0,0.0,0.0,0.0,0.0,0.0,0.0,0.0,0.0,0.0,2.1839,2.301,2.4235,2.4812,2.4959,2.5271,2.5995,2.6078,2.6215,2.6554,2.6591,2.6591,2.6591,2.627,2.6233,2.6573,2.6188,2.5775,2.5381,2.5298,2.4739,2.3675,2.3584,2.3171,2.2447,0.0,0.0,2.1713,2.097,2.0851,2.1181,2.0393,2.0264,2.0604,2.0209,1.9842,1.9567,1.9916,1.9787,1.9412,1.9329,1.9301,1.9256,1.8935,1.8825,1.877,1.8458,1.8018,1.7614,1.7614,1.6845,0.0,1.5063,1.4357,1.3667,1.3054,1.3229,1.3375,1.2383,1.2717,1.3014,1.1939,1.1863,1.2008,1.2008,1.1981,1.2012,1.2012,1.2433,1.2745,1.2618,1.1683,1.0889,1.0618,1.0115,0.9918,1.0155,1.0192,1.0172,1.014,0.9389,0.86,0.7952,0.5902,0.4522,0.4198,0.3017,0.2336,0.2336,0.2283,0.2154,0.2018,0.1051,0.0519,0.039,-0.0532,-0.1008,0.0,0.0,0.0,0.0,0.0,0.0,0.0,0.0,0.0,0.0,0.0,2.0591,0.0,0.0,2.3117,2.2814,2.3583,2.4225,2.4436,2.4464,2.4766,2.5564,2.5839,2.6041,2.6252,2.6463,2.6591,2.6591,2.6197,2.605,2.6261,2.5702,2.528,2.5087,2.4867,2.4363,2.3547,2.3345,2.2942,2.2327,2.2126,2.1924,2.1713,2.1099,2.1034,2.1365,2.0365,2.0154,2.0484,2.009,1.9806,1.9641,1.9842,1.9668,1.9301,1.9301,1.9301,1.9274,1.9072,1.888,1.8678,1.8485,1.7999,1.7495,1.7279,1.6508,1.561,1.4695,1.4053,1.3496,1.3133,1.3033,1.294,1.2526,1.2422,1.2195,1.1462,1.1217,1.1167,1.1167,1.125,1.1283,1.1283,1.1683,1.1931,1.1616,1.1023,1.0482,1.0167,0.9814,0.9633,0.9679,0.9714,0.9509,0.901,0.8242,0.7551,0.7099,0.5367,0.4232,0.398,0.2845,0.2206,0.2175,0.191,0.1765,0.174,0.0698,0.0189,0.0189,-0.064,-0.1032,0.0,0.0,0.0,0.0,0.0,0.0,0.0,0.0,2.0102,2.0712,2.0994,2.1536,2.2748,2.3299,2.3669,2.3791,2.4053,2.4152,2.4152,2.4152,2.44,2.506,2.5491,2.5766,2.5839,2.6151,2.6353,2.6353,2.5968,2.5766,2.5839,2.517,2.4748,2.4666,2.4335,2.3877,2.3308,2.2988,2.2621,2.2208,2.1887,2.1741,2.1722,2.13,2.1255,2.1438,2.0301,2.0081,2.0484,2.0008,1.9861,1.9916,1.9842,1.9604,1.9301,1.9301,1.9301,1.9283,1.9127,1.8861,1.8577,1.8412,1.7917,1.7305,1.6875,1.6192,1.5379,1.4488,1.3818,1.3405,1.3353,1.283,1.2427,1.2868,1.207,1.1217,1.1124,1.0667,1.0265,1.0265,1.0462,1.06,1.06,1.083,1.0965,1.0669,1.0568,1.032,0.9666,0.9614,0.9528,0.9295,0.9274,0.8858,0.7894,0.7044,0.6438,0.6037,0.4874,0.411,0.3819,0.2741,0.2161,0.211,0.1597,0.1325,0.1293,0.0307,-0.0184,-0.0184,-0.073,-0.0977,1.9531,1.9677,2.0301,2.1291,2.1319,2.1391,0.0,0.0,2.1987,2.3032,2.3014,2.2835,2.3082,2.3672,2.3791,2.2828,2.3538,2.4152,2.4152,2.4152,2.4189,2.428,2.4656,2.5051,2.5399,2.5482,2.5509,2.5509,2.5142,2.5069,2.5417,2.5023,2.4611,2.4235,2.418,2.3611,2.2474,2.2419,2.2199,2.1805,2.1759,2.1741,2.1722,2.13,2.0943,2.0613,1.9742,1.9806,2.0457,1.9687,1.9595,1.9888,1.9522,1.9347,1.9301,1.9301,1.9301,1.9201,1.8495,1.8229,1.8073,1.7348,1.7046,1.6903,1.6474,1.565,1.4767,1.4346,1.3452,1.2731,1.2691,1.2489,1.2206,1.1824,1.1383,1.0905,1.0514,1.0205,1.0051,1.0051,0.9947,0.9895,0.9895,0.9829,0.9961,1.0517,1.0482,1.0241,0.9666,0.9614,0.9528,0.9295,0.9163,0.8607,0.7547,0.6643,0.5925,0.5411,0.4513,0.3719,0.3153,0.2422,0.1989,0.1982,0.1548,0.1298,0.1293,0.036,-0.0118,-0.0118,-0.069,-0.0937,2.0741,2.0404,2.0342,2.1707,2.2012,2.2075,2.2636,2.2672,2.2792,2.359,2.3608,2.3471,2.3657,2.4153,2.4263,0.0,2.3691,2.4152,2.4152,2.4152,2.4152,2.4152,2.4308,2.4583,2.4986,2.5234,2.5372,2.5372,2.5005,2.4849,2.5014,2.4418,2.3978,2.3804,2.3574,2.3098,2.2327,2.2327,2.2126,2.1741,2.1741,2.1741,2.1731,2.1557,2.1126,2.0512,2.0402,2.0145,1.9815,1.9952,1.998,1.9916,1.9732,1.9668,1.9641,1.9393,1.9152,1.8921,1.8592,1.817,1.7692,1.736,1.6938,1.6412,1.5842,1.5044,1.4287,1.3688,1.3076,1.2621,1.2621,1.2357,1.202,1.1739,1.1273,1.0817,1.0455,1.0143,0.9903,0.9903,0.9784,0.9681,0.9681,0.9621,0.971,0.9961,0.9976,0.9873,0.9614,0.9249,0.8659,0.7804,0.7455,0.7068,0.6532,0.593,0.5464,0.5008,0.395,0.3234,0.2877,0.2318,0.1955,0.192,0.12,0.0833,0.0759,-0.0115,-0.0573,-0.0572,-0.079,-0.0911,2.1255,2.0838,2.0701,2.2153,2.2661,2.2833,2.3051,2.3225,2.3545,2.393,2.3922,2.3891,2.4153,2.4409,2.4409,2.3804,2.396,2.4152,2.4152,2.4152,2.4152,2.4152,2.4152,2.4271,2.4583,2.4867,2.5032,2.5032,2.4766,2.4611,2.4611,2.4042,2.3611,2.3391,2.3012,2.2648,2.1997,2.2107,2.1961,2.1566,2.1676,2.1676,2.1557,2.1337,2.097,2.0521,2.0585,2.0301,1.9824,2.02,2.0255,2.0081,1.9971,1.9779,1.957,1.9261,1.885,1.8558,1.838,1.7832,1.7195,1.7164,1.674,1.6053,1.5417,1.4701,1.409,1.3429,1.2909,1.2621,1.2621,1.2218,1.176,1.1702,1.1073,1.0478,1.0317,1.0016,0.974,0.974,0.9673,0.9614,0.9614,0.9562,0.9562,0.9562,0.9406,0.9302,0.9302,0.8567,0.7658,0.6637,0.6184,0.5884,0.5661,0.5304,0.4907,0.4448,0.3487,0.2791,0.2553,0.2136,0.1843,0.1684,0.0872,0.0402,0.0224,-0.0617,-0.101,-0.101,-0.1121,-0.1121,2.0338,2.0833,2.1332,2.2537,2.3158,2.3669,2.4583,2.4455,2.429,2.4711,2.4473,2.418,2.4161,2.4161,2.4161,2.4134,2.4143,2.4152,2.4152,2.4152,2.4152,2.4152,2.4152,2.4161,0.0,2.4189,2.4189,2.4189,2.4279,2.417,2.417,2.4143,2.3776,2.2902,2.2866,2.2373,2.1154,2.1548,2.1548,2.1135,2.1539,2.152,2.1099,2.0338,2.0182,2.0475,1.9696,1.9998,2.0998,2.0255,2.0163,2.0466,2.0081,1.9453,1.8718,1.87,1.8531,1.8148,1.7672,1.7059,1.6456,1.6369,1.6079,1.5762,1.5346,1.4701,1.4131,1.3709,1.3084,1.2621,1.2621,1.1976,1.1341,1.1341,1.0554,0.9814,0.9814,0.9688,0.9614,0.9614,0.9614,0.9614,0.9614,0.951,0.9413,0.9413,0.8844,0.8474,0.8626,0.7498,0.6583,0.6416,0.5946,0.5521,0.5305,0.4809,0.4249,0.3688,0.3077,0.2467,0.1856,0.1801,0.1575,0.1124,0.0674,0.0224,-0.0168,-0.0954,-0.129,-0.1291,-0.1624,-0.179,2.0769,2.1051,2.1599,2.3317,2.335,2.3176,2.4546,2.4675,2.4611,2.4748,2.4225,2.3666,2.3409,2.3354,2.3272,2.2988,2.362,2.4152,2.4152,2.4152,2.4152,2.4152,2.4152,0.0,0.0,0.0,0.0,2.4152,2.4152,2.4152,2.4152,2.3648,2.3235,2.2875,2.2336,2.1942,2.153,2.1667,2.153,2.1108,2.0366,2.0105,2.0202,1.9084,1.8803,1.9279,1.927,1.9522,1.9925,2.0209,2.008,1.9695,1.9569,1.9188,1.8512,1.7772,1.7267,1.703,1.7304,1.7107,1.6681,1.6632,1.6253,1.5591,1.4992,1.4356,1.3695,1.31,1.2672,1.2375,1.2375,1.2134,1.1721,1.1373,1.0865,1.0431,1.032,1.0089,0.9936,0.9936,0.9882,0.971,0.9501,0.9361,0.8995,0.8137,0.8256,0.8096,0.7278,0.674,0.6258,0.5727,0.5513,0.5238,0.4798,0.4239,0.3624,0.3014,0.235,0.1906,0.1685,0.1515,0.1178,0.0673,0.0224,-0.028,-0.0783,-0.1343,-0.1624,-0.1624,-0.1734,-0.179,2.1355,2.1668,2.2258,2.3852,2.3538,2.3132,2.4354,2.4335,2.4134,2.4134,2.3584,2.2988,2.2593,2.263,2.2639,2.2364,2.3116,2.3776,2.3914,2.3932,2.3987,2.4134,2.4152,2.4152,0.0,0.0,0.0,2.4152,2.4152,2.4088,2.3941,2.3446,2.2939,2.2647,2.2217,2.1805,2.152,2.1667,2.1603,2.1328,1.9903,1.935,1.9557,1.8104,1.7676,1.797,1.8205,1.8537,1.8913,1.9419,1.9397,1.9011,1.9011,1.8676,1.8068,1.7221,1.6612,1.6338,1.684,1.6635,1.6244,1.653,1.6002,1.5227,1.4704,1.3992,1.3249,1.2806,1.2469,1.2243,1.2243,1.2028,1.1699,1.1361,1.0996,1.0701,1.0644,1.0362,1.0161,1.0161,0.9964,0.9774,0.9567,0.9116,0.8349,0.7122,0.7307,0.722,0.6164,0.605,0.5903,0.5301,0.5018,0.4736,0.4346,0.3572,0.2961,0.2571,0.1849,0.1515,0.1515,0.1178,0.0729,0.0168,-0.028,-0.0783,-0.1342,-0.1734,-0.1958,-0.1959,-0.2071,-0.2127,2.1979,2.2621,2.3143,2.395,2.3849,2.3639,2.4005,2.3501,2.2848,2.2811,2.2557,2.2144,0.0,0.0,2.2327,2.2355,2.2749,2.3085,2.3556,2.3584,2.3721,0.0,0.0,0.0,0.0,0.0,0.0,2.4125,0.0,2.3987,2.3593,2.3529,2.3058,2.229,2.2227,2.1816,2.0934,2.1307,2.1507,2.1516,1.9817,1.9016,1.8991,1.7341,1.6617,1.6617,1.6617,1.7145,1.7895,1.7887,1.8138,1.8471,1.8471,1.8019,1.7342,1.6962,1.6578,1.6213,1.6256,1.577,1.5335,1.6051,1.5519,1.4561,1.453,1.3742,1.2819,1.2739,1.2436,1.2065,1.2065,1.1699,1.1331,1.1309,1.0953,1.0616,1.0616,1.0437,1.0322,1.0322,0.996,0.9639,0.9625,0.8721,0.7634,0.6401,0.6187,0.5958,0.5376,0.545,0.5429,0.5144,0.4567,0.4119,0.3953,0.2847,0.2183,0.2183,0.1625,0.129,0.1234,0.0673,0.0168,-0.028,-0.0839,-0.1398,-0.1846,-0.2127,-0.224,-0.224,-0.2577,-0.2691,2.1713,2.241,2.3143,2.395,2.3849,2.3492,2.3299,2.3098,2.2683,2.2171,2.1713,2.1383,2.1282,0.0,0.0,2.274,2.3648,0.0,2.4455,2.4198,0.0,2.4143,0.0,2.4152,2.4152,2.4152,0.0,0.0,2.3978,2.4106,2.4005,2.3428,2.2618,2.1725,2.1164,2.0262,1.9065,1.8811,1.8853,1.9109,1.751,1.6753,1.6737,1.5416,1.5151,1.5718,1.5545,1.5997,1.6826,1.6562,1.666,1.6932,1.6932,1.6966,1.6822,1.6196,1.5963,1.5761,1.5578,1.5495,1.5562,1.5811,1.5213,1.4331,1.383,1.324,1.258,1.2327,1.2064,1.1864,1.1864,1.168,1.1439,1.1188,1.0952,1.0768,1.0768,1.0649,1.0538,1.0538,0.9753,0.8966,0.8652,0.7635,0.6788,0.6501,0.6069,0.5603,0.5183,0.522,0.5144,0.4974,0.4398,0.3843,0.335,0.2629,0.2017,0.157,0.129,0.0954,0.0505,0.0224,-0.0392,-0.1399,-0.1567,-0.1902,-0.2465,-0.2521,-0.2577,-0.2577,-0.2635,-0.2914,2.1586,2.1933,2.2566,2.3198,2.3052,2.274,2.2685,2.2547,2.2236,2.1594,2.1273,2.0998,2.0649,2.0943,2.1579,0.0,0.0,0.0,2.4482,2.4299,2.4152,0.0,2.4152,0.0,2.3904,2.3886,2.3794,0.0,2.3923,2.3996,2.3648,2.2808,2.1993,2.1251,2.0037,1.9019,1.8129,1.7938,1.7938,1.8121,1.6624,1.5948,1.5933,1.4542,1.4159,1.465,0.0,1.4713,1.5372,1.5199,1.5372,1.565,1.565,1.5899,1.6152,1.5544,1.5443,1.5626,1.5225,1.502,1.4964,1.5281,1.4733,1.3847,1.3398,1.2802,1.2239,1.2049,1.1872,1.1677,1.1677,1.1622,1.1447,1.1204,1.1038,1.0854,1.0534,1.054,1.0506,0.9938,0.9053,0.8212,0.7444,0.6806,0.6293,0.6061,0.572,0.5326,0.4752,0.4786,0.4701,0.4425,0.3622,0.2956,0.2571,0.1959,0.1457,0.1122,0.1066,0.0729,0.0112,-0.0224,-0.0839,-0.179,-0.2071,-0.2352,-0.2691,-0.2691,-0.2691,-0.2691,-0.2914,-0.3137,2.1379,2.1475,2.1686,2.2135,2.2034,2.1878,2.2116,2.1942,2.1594,2.1062,2.0952,2.0741,2.0063,2.0077,2.052,2.1572,0.0,2.2464,2.3936,2.3954,2.39,2.4161,2.3998,2.3825,2.3574,2.3492,2.3464,2.3464,2.384,2.3767,2.2975,2.1951,2.1148,2.0399,1.8747,1.7807,1.7556,1.7462,1.7423,1.7415,1.6253,1.5755,1.5618,1.426,1.3652,1.3652,1.3476,1.3555,1.3971,1.3971,1.4139,1.4566,1.4566,1.4985,1.5486,1.4907,1.5057,1.5473,1.4937,1.4385,1.3941,1.454,1.4081,1.3212,1.2958,1.2402,1.174,1.174,1.1685,1.156,1.156,1.1435,1.1303,1.1303,1.1115,1.0737,1.0085,1.0218,1.0071,0.8842,0.814,0.735,0.6415,0.6159,0.5937,0.5525,0.5398,0.5108,0.4212,0.432,0.4231,0.3702,0.2651,0.1915,0.1802,0.1236,0.0898,0.0898,0.0842,0.0505,-0.0112,-0.0671,-0.1285,-0.1902,-0.2465,-0.2747,-0.2747,-0.2747,-0.28,-0.2856,-0.3299,-0.3577,2.0941,2.0922,2.1068,2.1649,2.2034,2.2061,2.1456,2.153,0.0,2.0356,2.0136,2.009,1.9962,2.0462,2.1105,2.1639,2.1965,2.2536,2.3566,2.2649,2.2442,0.0,2.3036,2.2619,2.345,2.3149,0.0,0.0,2.3419,2.3593,2.3446,2.1846,2.0102,1.7976,1.6428,1.5659,1.5853,1.5362,1.5019,1.4838,1.4616,1.4289,1.3796,1.358,1.3476,1.3483,1.3222,0.0,1.3222,1.3045,1.33,1.3899,1.3899,1.4321,1.4823,1.4526,1.4528,1.4602,1.4362,1.3961,1.3592,1.3784,1.3188,1.2405,1.2127,1.1836,1.1622,1.1622,1.1622,1.156,1.1373,1.1303,1.124,1.1185,1.0541,0.9964,0.9837,0.918,0.8462,0.7856,0.7331,0.6939,0.6496,0.6022,0.5665,0.56,0.5498,0.5068,0.4215,0.4135,0.3833,0.3036,0.2307,0.1807,0.1807,0.1253,0.0898,0.0898,0.0449,-0.0112,-0.0727,-0.1342,-0.1902,-0.2521,-0.2747,-0.286,-0.286,-0.2968,-0.3294,-0.3788,-0.3843,-0.4395,2.0619,2.0376,2.0328,2.1068,2.1332,2.1282,2.0897,0.0,0.0,1.9815,1.9778,1.9861,1.9641,2.0,2.0536,2.1587,2.1349,2.147,2.2852,2.196,2.1612,2.2865,2.2351,2.1993,0.0,2.2451,2.2432,2.215,2.2632,2.3006,2.3226,2.1036,1.8703,1.6211,1.5225,1.4635,1.4533,1.4256,1.3946,1.3774,1.3774,1.3611,1.3398,1.3313,1.3222,1.3228,1.2966,0.0,1.2875,1.279,1.2875,1.313,1.2875,1.3215,1.382,1.3554,1.3724,1.4044,1.4007,1.3595,1.3134,1.3237,1.2841,1.2243,1.1844,1.1622,1.156,1.1498,1.1428,1.1303,1.0787,1.0856,1.0856,1.0028,0.9122,0.8544,0.8801,0.7897,0.7024,0.7053,0.6595,0.6113,0.5837,0.5498,0.5286,0.5223,0.4824,0.4246,0.348,0.3019,0.2668,0.2222,0.1535,0.1098,0.1057,0.08,0.0505,0.0224,-0.0056,-0.0616,-0.1566,-0.1846,-0.2294,-0.2912,-0.2968,-0.3023,-0.3023,-0.3077,-0.3405,-0.4006,-0.4226,-0.4835,2.033,2.0084,2.0028,2.0495,2.0596,2.0594,2.0429,2.0457,2.0283,1.9467,1.9567,1.9696,1.9366,1.9481,2.0,0.0,2.0534,2.0492,2.2005,2.1296,2.0947,0.0,2.1395,0.0,2.0729,2.1362,0.0,2.1449,2.1715,2.2005,2.212,2.0054,1.7675,1.507,1.4681,1.4295,1.3743,1.3678,1.3568,1.3313,1.3313,1.3307,1.3222,1.3052,1.3052,1.2966,1.279,0.0,1.2528,1.2528,1.2534,1.2357,1.2015,1.2186,1.2632,1.2413,1.285,1.3406,1.3259,1.2969,1.265,1.2632,1.24,1.2097,1.1784,1.1549,1.1303,1.1303,1.1045,1.0661,1.0085,1.0155,0.9964,0.8608,0.7702,0.7181,0.7442,0.6601,0.5951,0.6264,0.5873,0.5418,0.509,0.4888,0.4758,0.4628,0.4025,0.3319,0.2582,0.1931,0.1468,0.131,0.0765,0.0344,0.0235,0.0229,0.0,-0.056,-0.0728,-0.1232,-0.2183,-0.2352,-0.2629,-0.3074,-0.313,-0.3188,-0.3188,-0.3297,-0.3683,-0.4284,-0.478,-0.5328,2.001,2.0339,2.0919,2.0136,2.0521,2.0869,2.0145,2.0264,2.0283,1.9467,1.9329,1.9347,1.9311,1.9624,1.9898,0.0,0.0,2.0586,2.1163,2.0302,1.9971,2.0877,0.0,0.0,1.9805,2.023,2.0701,2.1241,2.0821,2.0297,1.9706,1.918,1.7697,1.518,1.4792,1.4326,1.3773,1.3519,1.3307,1.3137,1.3137,1.2966,1.279,1.279,1.2705,1.2705,1.2705,0.0,0.0,1.21,1.1843,1.1408,1.1413,1.1408,1.1439,1.1373,1.1828,1.239,1.1601,1.1649,1.1988,1.1474,1.1466,1.1718,1.1911,1.1262,1.0528,1.1108,1.0275,0.9308,0.9709,0.9256,0.842,0.7316,0.699,0.6728,0.6009,0.5745,0.555,0.5286,0.5219,0.509,0.4894,0.4292,0.3889,0.3892,0.3284,0.252,0.181,0.1481,0.1094,0.0514,0.0487,0.0293,-0.0294,-0.0343,-0.056,-0.1174,-0.1734,-0.2073,-0.2184,-0.274,-0.3019,-0.3074,-0.3299,-0.3357,-0.3357,-0.4021,-0.4625,-0.5167,-0.5769,-0.6372,2.0818,2.0853,2.095,2.08,2.0789,2.0668,2.0356,2.0228,1.9998,1.9421,1.9301,1.9301,1.9301,1.965,1.9998,0.0,0.0,0.0,2.0776,1.9933,1.9568,2.0142,1.9636,0.0,0.0,0.0,1.9463,1.962,1.9279,1.8656,1.7857,1.7251,1.6205,1.4602,1.4138,1.3758,1.3385,1.3278,1.3137,1.2875,1.2875,1.279,1.2705,1.2705,1.2705,1.2705,1.2363,1.2186,0.0,1.1671,1.1494,1.1241,1.0982,1.0813,1.0742,1.074,1.0845,1.0903,1.0924,1.0845,1.0773,1.0755,1.0557,1.0406,1.0704,1.0494,1.0148,1.0345,0.9576,0.8737,0.8796,0.7897,0.6929,0.6789,0.64,0.5881,0.5418,0.5223,0.5093,0.496,0.4894,0.4758,0.409,0.3823,0.342,0.2883,0.2213,0.1595,0.1163,0.038,-0.0313,-0.0816,-0.0543,-0.0415,-0.0664,-0.1038,-0.151,-0.2122,-0.2347,-0.2685,-0.3023,-0.3246,-0.3413,-0.3413,-0.3855,-0.4076,-0.4076,-0.468,-0.5332,-0.5982,-0.6199,-0.6696,2.1012,2.1109,2.1163,2.1253,2.0992,2.0668,2.0549,2.0218,1.9815,1.9393,1.9301,1.9338,1.9467,1.9824,2.0237,0.0,0.0,2.0399,2.0781,2.0223,1.9742,1.9707,0.0,1.931,0.0,1.8203,1.814,1.7691,1.7514,1.686,1.593,1.5241,1.4654,1.3986,1.362,1.3303,1.2966,1.2966,1.2875,1.2705,1.2705,1.2619,1.2534,1.2534,1.2443,1.2272,1.1929,1.1671,0.0,1.1166,1.0883,1.0792,1.0379,1.0095,0.9937,0.9953,0.9925,0.9823,0.9895,0.9821,0.9679,0.9712,0.9346,0.8996,0.9049,0.9168,0.9344,0.9338,0.8672,0.7962,0.7562,0.6597,0.5818,0.6133,0.5683,0.516,0.5024,0.4894,0.4764,0.4761,0.4561,0.4156,0.3485,0.3017,0.2482,0.1744,0.1075,0.0466,0.0129,-0.07,-0.1448,-0.1871,-0.1758,-0.1614,-0.1635,-0.1963,-0.246,-0.307,-0.3072,-0.335,-0.3968,-0.3968,-0.4079,-0.4242,-0.468,-0.4901,-0.4901,-0.5445,-0.5932,-0.647,-0.6637,-0.7176,2.0237,2.0985,2.1896,2.1296,2.1099,2.0998,2.0613,2.0218,1.9815,1.9393,1.9301,1.943,1.9842,2.0246,2.064,2.1034,0.0,0.0,2.1181,2.11,2.0707,0.0,0.0,1.9217,1.7941,1.7326,1.6686,1.5878,1.5538,0.0,1.3905,1.3379,1.3268,1.3536,1.3542,1.3231,1.2711,1.2705,1.2705,1.2705,1.2705,1.2448,1.2015,1.2015,1.1757,1.1327,1.1327,1.1063,0.0,1.0408,1.007,0.9625,0.9412,0.9169,0.8982,0.8786,0.9094,0.9403,0.8234,0.8382,0.8882,0.8107,0.7758,0.7648,0.7113,0.7323,0.7769,0.8143,0.7567,0.6728,0.5877,0.5488,0.5359,0.5156,0.496,0.4831,0.4831,0.4831,0.4764,0.4625,0.4023,0.3418,0.3082,0.1811,0.0739,0.0538,-0.0067,-0.0733,-0.1487,-0.1582,-0.1854,-0.2636,-0.3121,-0.3394,-0.3348,-0.319,-0.3352,-0.3968,-0.3965,-0.4242,-0.4846,-0.4897,-0.5171,-0.5773,-0.5773,-0.5773,-0.5773,-0.6317,-0.6588,-0.6588,-0.7187,-0.815,2.0578,2.0782,2.0955,2.0741,2.0503,2.0273,2.0145,1.9797,1.9467,1.9329,1.9531,1.9769,1.9907,2.0466,2.0961,2.1089,2.1465,0.0,0.0,0.0,0.0,1.9408,1.816,1.7014,0.0,0.0,1.5041,1.4243,1.3922,1.3641,1.3366,1.301,1.2918,1.3176,1.309,1.2875,1.2705,1.2705,1.2705,1.2705,1.2357,1.21,1.2015,1.1666,1.1413,0.0,1.082,1.0498,0.0,0.9844,0.9426,0.9174,0.911,0.8918,0.8546,0.8489,0.8461,0.8304,0.7746,0.7582,0.7535,0.7153,0.6933,0.6752,0.6306,0.6672,0.7065,0.6544,0.6461,0.6334,0.5484,0.5156,0.4964,0.4894,0.4761,0.4694,0.4694,0.4361,0.4023,0.3618,0.3084,0.2415,0.1476,0.0873,0.0269,-0.0805,-0.1141,-0.1539,-0.2384,-0.2879,-0.3262,-0.376,-0.4097,-0.4062,-0.3445,-0.3574,-0.3799,-0.3965,-0.4405,-0.468,-0.4897,-0.5281,-0.5609,-0.5773,-0.6154,-0.6372,-0.6372,-0.7343,-0.809,-0.8508,-0.8823,-0.9406,2.043,2.0485,2.0521,2.0521,2.0228,1.9934,1.9934,1.9604,1.9222,1.9073,1.9281,1.9553,1.9851,2.0295,2.0807,2.1291,2.1566,2.1607,0.0,0.0,0.0,1.902,0.0,0.0,0.0,1.4657,1.3894,1.3193,1.304,1.2978,1.2973,1.279,1.2705,1.2705,1.2705,1.2613,1.2443,1.2448,1.2357,1.2186,1.1843,1.1666,1.1494,1.1154,1.0935,1.0675,1.0204,0.9932,0.0,0.9299,0.8972,0.8801,0.8724,0.8462,0.8199,0.8199,0.785,0.7442,0.7257,0.7045,0.671,0.6409,0.6124,0.5825,0.5593,0.5829,0.6141,0.5547,0.5617,0.5679,0.5156,0.4827,0.4694,0.4561,0.4428,0.4223,0.3823,0.3689,0.3355,0.2613,0.2213,0.1679,0.0605,-0.0067,-0.0805,-0.1744,-0.2211,-0.2678,-0.3478,-0.3951,-0.4457,-0.52,-0.5308,-0.5214,-0.4877,-0.4623,-0.4515,-0.4515,-0.5062,-0.55,-0.5719,-0.61,-0.6372,-0.6588,-0.7122,-0.7439,-0.7492,-0.8508,-0.9197,-0.9614,-0.9925,-1.0285,0.0,2.0154,2.0429,2.0429,2.0154,1.9888,1.9888,1.9586,0.0,1.8851,1.8718,1.8966,1.9787,1.9862,2.03,2.1425,2.1642,2.1311,0.0,2.0152,0.0,0.0,1.7137,0.0,1.5425,1.4229,1.3256,1.2723,1.2705,1.2705,1.2619,1.2619,1.2448,1.1929,1.2357,1.2357,1.1929,1.1929,1.1746,1.13,1.1214,1.1031,1.0585,1.0499,1.0137,0.0,0.9522,0.9326,0.0,0.8772,0.8528,0.8343,0.8172,0.7953,0.7799,0.7787,0.745,0.6986,0.6725,0.6516,0.6321,0.572,0.5352,0.5024,0.4827,0.496,0.509,0.509,0.4957,0.4764,0.4764,0.4628,0.4425,0.4028,0.3825,0.3489,0.2618,0.2753,0.2755,0.1677,0.1343,0.0941,0.0201,-0.1141,-0.2281,-0.2549,-0.328,-0.4013,-0.4815,-0.4948,-0.547,-0.6711,-0.6568,-0.6634,-0.721,-0.6093,-0.5386,-0.5386,-0.5932,-0.6588,-0.7133,-0.7246,-0.7515,-0.8055,-0.862,-0.8981,-0.9131,-0.9755,-1.0072,-1.0123,-1.0643,-1.0905,1.9421,0.0,1.9586,1.9586,1.9522,1.9448,0.0,1.9375,1.9301,1.9152,1.9165,1.9286,1.9765,1.9825,2.0088,2.1007,2.0826,2.049,2.0012,1.8686,0.0,1.6779,1.5744,1.4981,1.4746,1.3799,1.3088,1.2723,1.2705,1.2528,1.2186,1.2186,1.1929,1.1499,1.158,1.1585,1.1494,1.1494,1.1321,1.1063,1.0726,1.0381,1.0125,0.9795,0.9445,0.9151,0.8999,0.8742,0.8515,0.8325,0.8095,0.7936,0.7893,0.7723,0.7548,0.7258,0.7191,0.706,0.6489,0.628,0.6044,0.545,0.509,0.4894,0.4831,0.4831,0.4894,0.4894,0.4761,0.4561,0.4295,0.4095,0.3892,0.3493,0.3023,0.2684,0.2417,0.1947,0.1412,0.0739,0.0134,-0.0604,-0.161,-0.228,-0.308,-0.4082,-0.4414,-0.4815,-0.5554,-0.6075,-0.6477,-0.6595,-0.6852,-0.7047,-0.6994,-0.6572,-0.6312,-0.6312,-0.6853,-0.7433,-0.8019,-0.8461,-0.8935,-0.9503,-0.9651,-0.9909,-1.0379,-1.0541,-1.0854,-1.1309,-1.1418,-1.1751,1.876,1.9026,1.9301,1.9301,1.9301,1.9256,1.9072,1.8879,1.8722,1.8469,1.8329,1.8387,1.9118,1.8969,1.8999,1.9983,1.9621,0.0,0.0,0.0,1.6785,1.5934,1.5177,1.4546,0.0,1.3261,1.2781,1.2369,1.2357,1.2186,1.1666,1.1671,1.1445,1.083,1.0825,1.0825,1.0825,1.0825,1.0626,1.0238,0.999,0.9766,0.9567,0.9241,0.9032,0.8698,0.8595,0.8365,0.7957,0.7858,0.7618,0.7323,0.7323,0.7222,0.704,0.6791,0.6718,0.66,0.6113,0.5731,0.5438,0.5007,0.4824,0.4694,0.4428,0.4361,0.4361,0.4428,0.4361,0.4159,0.3761,0.356,0.3357,0.2753,0.235,0.1945,0.1141,0.0739,0.0336,-0.0672,-0.1141,-0.1676,-0.248,-0.3349,-0.4148,-0.4818,-0.5282,-0.5815,-0.6544,-0.6933,-0.7344,-0.78,-0.7918,-0.7955,-0.8172,-0.8032,-0.7806,-0.7379,-0.7972,-0.8501,-0.9065,-0.9399,-0.9814,-1.0387,-1.0423,-1.0728,-1.1309,-1.1592,-1.1891,-1.2197,-1.2452,-1.289,1.8201,1.8742,1.9283,1.9228,1.9256,1.9201,1.8806,0.0,0.0,0.0,0.0,1.7177,1.8181,1.785,0.0,0.0,0.0,0.0,1.7577,1.7204,1.6623,1.5497,1.5052,0.0,1.3285,1.2843,1.2448,1.2015,1.1929,1.1671,1.1235,1.1117,1.0846,1.0238,1.0198,1.008,1.005,1.008,0.982,0.9199,0.9166,0.8972,0.8783,0.8836,0.8568,0.8251,0.0,0.0,0.7442,0.7442,0.7131,0.6709,0.6682,0.6615,0.657,0.6327,0.6215,0.6001,0.5627,0.5209,0.4761,0.4561,0.4492,0.4359,0.3892,0.3692,0.3692,0.3761,0.3761,0.3625,0.3226,0.3023,0.2686,0.1945,0.1543,0.1006,-0.0538,-0.0605,-0.0739,-0.2017,-0.228,-0.2541,-0.3145,-0.4284,-0.5219,-0.5286,-0.5994,-0.6702,-0.7344,-0.7574,-0.8111,-0.9217,-0.8992,-0.9054,-0.966,-0.9721,-0.9444,-0.8803,-0.9138,-0.9614,-1.0174,-1.0269,-1.0533,-1.1006,-1.1183,-1.1534,-1.2017,-1.2638,-1.2909,-1.2919,-1.3481,-1.4018,1.8531,1.8953,1.9219,1.8889,1.9054,1.9201,1.8806,0.0,0.0,0.0,0.0,0.0,0.0,1.7589,1.7905,0.0,0.0,1.7523,0.0,0.0,1.5139,1.528,0.0,1.3721,1.3604,1.2729,1.21,1.2015,1.1671,1.1241,1.0722,1.0549,1.0179,0.9733,0.9552,0.9294,0.8964,0.9127,0.9032,0.8754,0.8425,0.8178,0.8005,0.785,0.7684,0.7441,0.0,0.7497,0.7224,0.7146,0.7056,0.6942,0.6577,0.6463,0.6395,0.5874,0.5761,0.5779,0.5348,0.4934,0.4561,0.4228,0.4025,0.3825,0.3426,0.3293,0.3226,0.2954,0.309,0.3226,0.2889,0.2214,0.1475,0.1074,0.0067,-0.0873,-0.1143,-0.1547,-0.2017,-0.2681,-0.3082,-0.3616,-0.4619,-0.5216,-0.5683,-0.6152,-0.6604,-0.6944,-0.707,-0.7894,-0.841,-0.8425,-0.9283,-0.9788,-0.9631,-1.0022,-1.0423,-1.0795,-1.0431,-1.0482,-1.1065,-1.1519,-1.1819,-1.1918,-1.2335,-1.257,-1.2667,-1.3218,-1.3467,-1.3478,-1.4003,-1.4507,1.7688,1.8192,1.8601,1.8407,1.8788,1.9155,1.8542,0.0,0.0,0.0,0.0,0.0,0.0,0.0,1.6781,1.6642,0.0,1.6388,1.5993,1.5536,1.516,0.0,0.0,1.3309,1.2826,1.21,1.1499,1.1235,1.0952,1.0549,1.0123,0.9834,0.9582,0.9313,0.9057,0.8779,0.8394,0.8245,0.8163,0.8228,0.8059,0.7764,0.75,0.749,0.7308,0.717,0.0,0.6953,0.6789,0.6651,0.6451,0.6216,0.5935,0.5821,0.5744,0.5461,0.5224,0.5139,0.4937,0.454,0.4159,0.3959,0.3692,0.3424,0.3023,0.2956,0.2755,0.188,0.2284,0.2755,0.188,0.1343,0.0805,-0.0134,-0.0807,-0.1412,-0.1949,-0.2485,-0.3021,-0.342,-0.4084,-0.4818,-0.5286,-0.5749,-0.628,-0.6872,-0.7182,-0.7463,-0.8027,-0.8592,-0.9014,-0.9422,-0.9813,-1.0147,-1.0272,-1.0653,-1.1006,-1.1276,-1.1309,-1.1451,-1.1728,-1.2206,-1.2605,-1.2893,-1.3422,-1.378,-1.4053,-1.4595,-1.4853,-1.4864,-1.5367,-1.5859,1.7018,1.7578,1.8126,1.8056,0.0,0.0,0.0,0.0,0.0,0.0,0.0,0.0,0.0,1.6116,0.0,1.5404,1.5396,1.5337,1.5051,1.5029,1.4754,1.3825,1.3336,1.2742,1.1946,1.1413,1.0956,1.0565,1.0324,0.9956,0.9573,0.9322,0.903,0.8876,0.8627,0.8277,0.7897,0.7595,0.7518,0.7664,0.762,0.7381,0.717,0.7049,0.6962,0.683,0.6663,0.6468,0.6344,0.6211,0.5924,0.56,0.5369,0.5228,0.5117,0.5046,0.471,0.4425,0.4425,0.4092,0.3625,0.3556,0.3224,0.2822,0.2619,0.2283,0.1879,0.1008,0.1343,0.1744,0.0738,0.0336,-0.0134,-0.1209,-0.1613,-0.1949,-0.282,-0.3355,-0.3756,-0.4292,-0.502,-0.5617,-0.5749,-0.628,-0.6876,-0.7391,-0.7737,-0.8154,-0.8965,-0.9259,-0.9649,-1.048,-1.0442,-1.0631,-1.117,-1.1532,-1.176,-1.176,-1.2058,-1.2264,-1.2264,-1.2735,-1.3224,-1.3781,-1.4283,-1.4803,-1.536,-1.5855,-1.6069,-1.612,-1.6598,-1.7014,1.7348,1.7779,1.8137,1.8081,1.841,0.0,1.8538,1.7317,0.0,1.6359,0.0,0.0,0.0,1.5617,1.5943,1.592,1.5658,1.5051,1.3902,0.0,1.2859,1.2296,1.18,1.1429,1.1327,1.0895,1.055,1.0353,0.9906,0.9559,0.936,0.8963,0.8665,0.8426,0.8061,0.7713,0.7397,0.7321,0.7321,0.7321,0.6945,0.6798,0.6708,0.6396,0.625,0.6262,0.623,0.6226,0.6211,0.6,0.5779,0.5542,0.5272,0.4897,0.464,0.464,0.43,0.3892,0.3892,0.3558,0.3226,0.2887,0.2417,0.2013,0.195,0.1143,0.0269,0.047,0.0134,-0.0268,-0.0402,-0.1072,-0.1744,-0.1811,-0.2484,-0.3226,-0.3761,-0.3961,-0.4292,-0.5286,-0.555,-0.5749,-0.6284,-0.6937,-0.7461,-0.7521,-0.837,-0.9027,-0.907,-0.9619,-1.0224,-1.0629,-1.0998,-1.1462,-1.2122,-1.2706,-1.3064,-1.3064,-1.2871,-1.2774,-1.2774,-1.3266,-1.3779,-1.4333,-1.4827,-1.5351,-1.6036,-1.6361,-1.6612,-1.6761,-1.7145,-1.7335,1.7092,1.7397,1.7746,1.7662,1.7796,0.0,0.0,1.6281,1.5457,1.6042,1.5177,0.0,0.0,0.0,1.4881,1.5518,1.4596,1.3612,1.3153,1.2316,1.1646,1.1473,1.0837,1.0471,1.0471,1.0055,0.9775,0.9698,0.925,0.893,0.8714,0.8362,0.8083,0.7892,0.7668,0.739,0.7133,0.6855,0.6725,0.6611,0.666,0.6559,0.638,0.6246,0.6148,0.6024,0.5885,0.578,0.5716,0.5507,0.5305,0.51,0.4843,0.4628,0.4364,0.4159,0.3959,0.3758,0.3493,0.2954,0.2348,0.1945,0.1342,0.0671,0.0469,0.0067,-0.0402,-0.0872,-0.1207,-0.134,-0.134,-0.1609,-0.2012,-0.2551,-0.3224,-0.3761,-0.3961,-0.4492,-0.5087,-0.5547,-0.5885,-0.628,-0.7003,-0.733,-0.7782,-0.8613,-0.9116,-0.9438,-0.9707,-1.0328,-1.0847,-1.1164,-1.2078,-1.2828,-1.3195,-1.3736,-1.3963,-1.365,-1.3857,-1.3983,-1.3983,-1.4817,-1.5454,-1.5883,-1.6469,-1.7048,-1.7512,-1.7711,-1.7827,-1.7775,-1.7931,-1.7959,1.6881,1.7135,1.7287,1.7252,0.0,0.0,1.6385,1.553,1.4888,1.5376,1.4854,1.4422,1.4885,0.0,0.0,0.0,1.3429,1.2399,1.1971,1.1176,1.0621,1.0455,1.0065,0.9806,0.9806,0.9486,0.9217,0.9157,0.8806,0.8526,0.8241,0.7837,0.7566,0.7443,0.7159,0.6927,0.6738,0.6395,0.6202,0.6086,0.6336,0.6329,0.6083,0.6013,0.5885,0.5756,0.555,0.5355,0.5229,0.509,0.4894,0.4694,0.4561,0.4361,0.4097,0.3689,0.342,0.3153,0.2686,0.2082,0.1409,0.1006,0.0403,-0.0269,-0.0537,-0.0872,-0.1273,-0.1811,-0.228,-0.2549,-0.2549,-0.2549,-0.2683,-0.3291,-0.3892,-0.4292,-0.4492,-0.5087,-0.5683,-0.5815,-0.6346,-0.6937,-0.7456,-0.7907,-0.8554,-0.9512,-1.0015,-1.0392,-1.0629,-1.1361,-1.1927,-1.2201,-1.3222,-1.3862,-1.3838,-1.4536,-1.4862,-1.4511,-1.5322,-1.5554,-1.5001,-1.5969,-1.6729,-1.7115,-1.7566,-1.8054,-1.853,-1.8572,-1.8572,-1.853,-1.8476,-1.841,1.6909,1.6909,1.6861,1.6798,0.0,0.0,1.539,1.5199,1.5041,1.4336,1.4426,1.4489,1.3815,1.4473,0.0,1.2965,1.2355,1.159,1.0198,0.9969,0.9806,0.9318,0.9318,0.9318,0.9318,0.9318,0.9157,0.8722,0.8517,0.8236,0.7812,0.7509,0.7232,0.7031,0.658,0.635,0.621,0.602,0.5888,0.5888,0.5888,0.5888,0.5888,0.5683,0.5554,0.5362,0.5156,0.4957,0.4831,0.4764,0.4694,0.4561,0.4364,0.4097,0.3689,0.3149,0.2546,0.1811,0.1276,0.0807,0.0403,0.0067,-0.0403,-0.0807,-0.0807,-0.1679,-0.2619,-0.2281,-0.3086,-0.4028,-0.4028,-0.4028,-0.4028,-0.4028,-0.4422,-0.4948,-0.5481,-0.5617,-0.5749,-0.6284,-0.7003,-0.7521,-0.7707,-0.8865,-0.9831,-1.0015,-1.1142,-1.2012,-1.2012,-1.2805,-1.3492,-1.3768,-1.4311,-1.4453,-1.4038,-1.5133,-1.5804,-1.5793,-1.7338,-1.7414,-1.559,-1.6567,-1.7352,-1.7784,-1.7796,-1.8159,-1.8798,-1.8679,-1.8679,-1.8798,-1.8679,-1.8614,1.6872,1.6705,1.6508,1.6767,0.0,0.0,0.0,1.5539,0.0,0.0,1.4097,1.3815,1.3307,1.3022,0.0,1.2433,1.1567,1.07,1.0231,0.97,0.9269,0.9115,0.8978,0.881,0.8659,0.8654,0.8558,0.8271,0.7929,0.766,0.7466,0.6945,0.6623,0.6431,0.618,0.602,0.602,0.5818,0.5683,0.5683,0.5422,0.5488,0.5683,0.5557,0.5355,0.5156,0.496,0.4827,0.4625,0.4225,0.4092,0.3959,0.3222,0.2885,0.2751,0.1946,0.1544,0.1209,0.0538,0.0,-0.0538,-0.1141,-0.1678,-0.2149,-0.2418,-0.2755,-0.309,-0.3355,-0.3692,-0.4095,-0.4486,-0.4818,-0.502,-0.4619,-0.4951,-0.5415,-0.5547,-0.5881,-0.6412,-0.719,-0.7517,-0.7967,-0.9122,-0.9633,-1.0268,-1.1267,-1.1764,-1.232,-1.3295,-1.363,-1.4055,-1.4735,-1.5328,-1.5622,-1.5594,-1.6721,-1.7285,-1.6882,-1.8083,-1.8343,-1.7438,-1.8088,-1.8446,-1.8507,-1.8601,-1.8684,-1.8798,-1.8839,-1.8839,-1.8798,-1.8744,-1.8881,1.6902,1.668,1.6553,1.6775,1.6616,1.6168,1.5516,0.0,0.0,0.0,1.3592,1.3476,1.2705,1.2439,0.0,1.1478,1.06,0.9938,0.9685,0.9211,0.8897,0.8897,0.8702,0.8551,0.8403,0.8327,0.8178,0.803,0.7629,0.7351,0.717,0.6644,0.6254,0.6218,0.5951,0.5752,0.5752,0.562,0.5488,0.5418,0.5219,0.5153,0.5289,0.5226,0.5093,0.4891,0.4694,0.4359,0.3954,0.362,0.3286,0.2883,0.228,0.2013,0.1813,0.1075,0.0605,0.0269,-0.0403,-0.0941,-0.1479,-0.2013,-0.2417,-0.282,-0.336,-0.3493,-0.3627,-0.4159,-0.4489,-0.4688,-0.5017,-0.5547,-0.5749,-0.5213,-0.5547,-0.6013,-0.6334,-0.6666,-0.719,-0.8027,-0.8415,-0.8924,-0.9952,-1.0577,-1.1205,-1.2074,-1.2626,-1.3356,-1.4451,-1.4569,-1.4805,-1.5536,-1.5931,-1.6322,-1.6641,-1.7534,-1.7966,-1.7656,-1.8478,-1.8843,-1.853,-1.8819,-1.8946,-1.8893,-1.8946,-1.8946,-1.8893,-1.9198,-1.9303,-1.921,-1.967,-2.002,1.6897,1.685,1.6724,1.675,1.6291,0.0,1.4866,1.4173,1.3555,1.293,0.0,1.3178,1.2122,1.2171,1.1928,1.0248,0.9792,0.9418,0.8832,0.8713,0.8703,0.8703,0.8479,0.8403,0.8327,0.8178,0.7944,0.7778,0.744,0.7153,0.6932,0.6463,0.6145,0.6145,0.5749,0.555,0.555,0.5425,0.5292,0.509,0.5087,0.4957,0.4764,0.4764,0.4694,0.4492,0.4295,0.3689,0.288,0.2815,0.2345,0.1542,0.1475,0.1208,0.0874,0.0336,-0.0269,-0.0941,-0.1479,-0.1951,-0.2287,-0.2686,-0.282,-0.2954,-0.3825,-0.4095,-0.4159,-0.4752,-0.5216,-0.5617,-0.5683,-0.6083,-0.635,-0.5881,-0.6148,-0.6741,-0.7512,-0.7772,-0.8027,-0.8924,-0.9627,-1.0205,-1.0458,-1.1578,-1.2451,-1.2634,-1.3795,-1.4765,-1.5352,-1.5468,-1.569,-1.6255,-1.6415,-1.6698,-1.7257,-1.782,-1.8201,-1.8201,-1.8709,-1.8987,-1.8987,-1.8987,-1.8987,-1.8987,-1.904,-1.9093,-1.9093,-1.9654,-1.9925,-1.9989,-2.1069,-2.1603,1.7297,1.6896,1.6561,1.7077,1.6452,1.5628,1.5269,1.4399,1.3581,1.3258,1.264,1.1922,1.1062,1.0735,1.035,0.9572,0.9312,0.9085,0.8959,0.8658,0.8479,0.8479,0.8255,0.8102,0.7953,0.7876,0.7664,0.7214,0.6933,0.6683,0.641,0.5996,0.5749,0.5749,0.5554,0.5359,0.5219,0.5153,0.509,0.4894,0.4758,0.4691,0.4628,0.4628,0.4223,0.3485,0.3351,0.2815,0.2079,0.1678,0.1411,0.1142,0.0403,0.0067,-0.0067,-0.0874,-0.1277,-0.1546,-0.2217,-0.2552,-0.2686,-0.3491,-0.3692,-0.3825,-0.442,-0.4616,-0.4752,-0.5282,-0.5481,-0.5683,-0.6152,-0.6741,-0.726,-0.7251,-0.7256,-0.7326,-0.7642,-0.8091,-0.8801,-0.9824,-1.0501,-1.1176,-1.1881,-1.2696,-1.3442,-1.3983,-1.4697,-1.5235,-1.5352,-1.5796,-1.614,-1.6312,-1.7146,-1.7754,-1.7875,-1.8483,-1.8827,-1.8827,-1.8934,-1.8987,-1.8987,-1.8987,-1.8987,-1.8987,-1.9396,-1.9656,-1.9656,-2.0643,-2.1121,-2.1134,-2.1943,-2.2525,1.6956,1.6759,1.6556,1.658,0.0,1.5484,1.4566,1.3871,1.3315,1.2574,1.205,1.1492,1.0757,1.0215,0.9737,0.9261,0.9006,0.8836,0.8741,0.8481,0.8225,0.8125,0.7894,0.7711,0.7656,0.7513,0.7279,0.7124,0.6737,0.6489,0.6331,0.588,0.555,0.5488,0.5355,0.516,0.496,0.496,0.4894,0.4694,0.4289,0.382,0.3349,0.3685,0.3349,0.2412,0.2345,0.1877,0.1141,0.0806,0.047,0.0,-0.047,-0.0806,-0.1008,-0.1412,-0.1816,-0.2217,-0.2887,-0.3222,-0.3424,-0.4156,-0.4356,-0.4489,-0.5017,-0.5213,-0.5282,-0.5815,-0.621,-0.6601,-0.6872,-0.7517,-0.8096,-0.8156,-0.8096,-0.8226,-0.8796,-0.9244,-0.9818,-1.1142,-1.1626,-1.2051,-1.2879,-1.3563,-1.4231,-1.4824,-1.5459,-1.5853,-1.5853,-1.6358,-1.6866,-1.7146,-1.7699,-1.8201,-1.8483,-1.8827,-1.8987,-1.8987,-1.8987,-1.8987,-1.8987,-1.8987,-1.9146,-1.9396,-1.9901,-2.0335,-2.0604,-2.147,-2.2032,-2.2364,-2.3297,-2.3847,1.6427,1.6536,1.6679,1.5917,1.5771,0.0,1.392,1.3526,1.3124,1.202,1.1632,1.128,1.0637,0.9953,0.9438,0.9047,0.8817,0.8633,0.8356,0.8185,0.7961,0.7757,0.7477,0.733,0.7384,0.7126,0.6954,0.6969,0.6565,0.6321,0.6224,0.5759,0.5484,0.5359,0.5156,0.4957,0.4764,0.4628,0.4495,0.4356,0.362,0.2681,0.1677,0.2278,0.2144,0.1409,0.1408,0.0873,0.0134,0.0067,-0.0403,-0.1076,-0.1143,-0.1344,-0.1614,-0.1814,-0.2284,-0.2952,-0.3487,-0.3889,-0.4225,-0.4749,-0.4948,-0.5014,-0.5547,-0.5749,-0.5881,-0.6412,-0.7003,-0.7521,-0.7652,-0.8226,-0.8865,-0.893,-0.9058,-0.9436,-1.0262,-1.0584,-1.1024,-1.2389,-1.2757,-1.3061,-1.3683,-1.4401,-1.4991,-1.5468,-1.6083,-1.6482,-1.6482,-1.6978,-1.7534,-1.8038,-1.8282,-1.8588,-1.8946,-1.9071,-1.9083,-1.8999,-1.8987,-1.8987,-1.8987,-1.9177,-1.9531,-2.0091,-2.0552,-2.104,-2.1615,-2.2407,-2.3067,-2.3626,-2.4682,-2.5135,1.6315,1.661,1.6797,0.0,1.5932,1.5569,0.0,0.0,1.3608,0.0,1.1564,1.0372,1.0056,0.9377,0.8818,0.8746,0.8722,0.8557,0.8213,0.7955,0.7733,0.7397,0.7308,0.7135,0.6861,0.6911,0.6734,0.6113,0.5982,0.583,0.5561,0.5312,0.5153,0.5156,0.496,0.4761,0.4625,0.4023,0.3553,0.3351,0.2547,0.1543,0.0538,0.0604,0.0671,0.0672,0.0538,0.0067,-0.0674,-0.0875,-0.1008,-0.1143,-0.1412,-0.1547,-0.1748,-0.2818,-0.3286,-0.3487,-0.435,-0.4683,-0.4749,-0.5348,-0.5481,-0.5617,-0.6148,-0.6284,-0.6416,-0.7134,-0.7391,-0.7652,-0.8231,-0.8871,-0.9454,-0.9761,-1.0654,-1.1344,-1.1114,-1.1564,-1.2328,-1.3199,-1.3863,-1.4401,-1.505,-1.5623,-1.6083,-1.6197,-1.6698,-1.709,-1.709,-1.7589,-1.8038,-1.8093,-1.9003,-1.9425,-1.9023,-1.9408,-1.948,-1.9023,-1.8987,-1.8987,-1.8987,-1.9904,-2.0673,-2.1238,-2.1342,-2.1652,-2.2204,-2.3834,-2.4665,-2.4815,-2.5486,-2.5767,1.5608,1.5632,1.5694,1.6134,1.5936,1.5541,1.508,1.4423,1.3698,1.2962,1.1884,1.0948,1.0315,0.9765,0.9236,0.8775,0.8703,0.8515,0.7984,0.7794,0.7535,0.7022,0.679,0.6638,0.6522,0.638,0.6253,0.5994,0.5842,0.5696,0.5494,0.5348,0.5145,0.5077,0.4461,0.4117,0.391,0.3109,0.2414,0.1878,0.1275,0.0538,-0.0337,-0.0403,-0.047,-0.0403,-0.047,-0.0672,-0.0942,-0.1076,-0.1076,-0.1143,-0.1814,-0.2149,-0.2482,-0.3551,-0.4084,-0.435,-0.5014,-0.5279,-0.5348,-0.5885,-0.6017,-0.6148,-0.6806,-0.7003,-0.7134,-0.7842,-0.8361,-0.8683,-0.9,-0.9894,-1.085,-1.0975,-1.1849,-1.265,-1.274,-1.2818,-1.3136,-1.4206,-1.5025,-1.5702,-1.6185,-1.6592,-1.6896,-1.722,-1.7776,-1.8272,-1.8577,-1.9136,-1.9368,-1.9061,-1.9789,-1.9889,-1.9059,-1.9468,-1.9552,-1.9023,-1.9263,-1.9432,-1.9432,-2.0519,-2.1352,-2.1943,-2.226,-2.2852,-2.3792,-2.4609,-2.5149,-2.55,-2.5767,-2.5893,1.4828,1.479,1.4751,1.5534,1.5668,1.5481,0.0,0.0,1.3733,0.0,1.241,1.1771,1.0801,1.0218,0.969,0.9084,0.8737,0.8351,0.7851,0.7553,0.7259,0.6717,0.6386,0.625,0.6267,0.5971,0.5818,0.5902,0.5696,0.5517,0.5517,0.5129,0.4798,0.4661,0.3788,0.3215,0.3074,0.2177,0.1276,0.0404,0.0135,-0.0269,-0.0876,-0.1009,-0.121,-0.1344,-0.1143,-0.121,-0.1411,-0.1411,-0.1544,-0.1812,-0.2616,-0.3015,-0.3347,-0.4284,-0.4818,-0.508,-0.5617,-0.5815,-0.5881,-0.6482,-0.6679,-0.6811,-0.7521,-0.7782,-0.7907,-0.8554,-0.9134,-0.9582,-0.9901,-1.085,-1.1802,-1.1988,-1.2712,-1.3511,-1.4001,-1.4052,-1.4303,-1.52,-1.6097,-1.678,-1.7011,-1.7478,-1.7934,-1.8167,-1.884,-1.9494,-1.9901,-2.0309,-2.0454,-2.0033,-2.0466,-2.0346,-1.9275,-1.9684,-1.9768,-1.9227,-1.9564,-1.9841,-1.9985,-2.0932,-2.1825,-2.2531,-2.307,-2.3891,-2.498,-2.5135,-2.5444,-2.5893,-2.5893,-2.5893,1.4156,1.4417,1.4577,1.4496,1.4989,1.5218,0.0,0.0,1.3693,1.3316,1.3108,1.255,1.1286,1.0438,0.9916,0.9841,0.8846,0.7983,0.7628,0.7298,0.6903,0.644,0.6431,0.6267,0.5984,0.5905,0.5802,0.5459,0.5372,0.5306,0.5306,0.4364,0.3774,0.3774,0.2762,0.2167,0.2167,0.1294,0.0336,-0.0741,-0.0741,-0.0876,-0.1076,-0.1076,-0.1478,-0.2013,-0.1344,-0.1545,-0.235,-0.235,-0.2815,-0.3611,-0.4018,-0.422,-0.4353,-0.5216,-0.555,-0.5617,-0.6152,-0.6354,-0.6482,-0.7199,-0.7461,-0.7587,-0.8231,-0.8425,-0.8619,-0.9262,-0.9454,-0.9773,-1.1038,-1.1483,-1.1732,-1.2528,-1.3199,-1.3812,-1.435,-1.5225,-1.5999,-1.6228,-1.7126,-1.7737,-1.7255,-1.8519,-1.9401,-1.8919,-1.9816,-2.0529,-2.0553,-2.0553,-2.061,-2.0574,-2.1043,-2.0923,-1.9829,-2.0249,-2.0334,-1.9768,-1.9756,-2.0021,-2.055,-2.1079,-2.1968,-2.3119,-2.3655,-2.4319,-2.498,-2.5556,-2.5865,-2.5893,-2.5893,-2.5893,0.0,0.0,1.3541,1.4049,1.4277,1.4377,1.4281,1.4065,1.3685,1.3364,1.3149,1.2769,1.2038,1.1247,1.0288,0.916,0.8571,0.811,0.7494,0.7319,0.6999,0.6471,0.6306,0.6157,0.6062,0.5906,0.5701,0.5514,0.4915,0.4509,0.4435,0.3522,0.2977,0.2977,0.2109,0.1272,0.0546,0.0068,-0.0404,-0.0809,-0.0943,-0.1277,-0.1745,-0.188,-0.2348,-0.3017,-0.2813,-0.2882,-0.3084,-0.3215,-0.3411,-0.3747,-0.455,-0.4821,-0.4888,-0.5818,-0.6086,-0.6214,-0.6872,-0.7134,-0.7195,-0.7907,-0.8166,-0.8296,-0.8941,-0.9134,-0.9384,-1.0471,-1.0787,-1.0968,-1.1903,-1.2458,-1.3017,-1.3992,-1.4291,-1.4579,-1.5449,-1.5864,-1.6335,-1.7098,-1.7962,-1.8702,-1.9118,-1.9784,-2.0357,-2.0499,-2.0866,-2.1247,-2.1584,-2.1632,-2.15,-2.1163,-2.1596,-2.1476,-2.0406,-2.0815,-2.0887,-2.0346,-2.0634,-2.1073,-2.1638,-2.2569,-2.3444,-2.4329,-2.4912,-2.5315,-2.557,-2.5781,-2.5893,-2.5893,-2.5893,-2.5893,1.2522,0.0,0.0,1.3528,1.3592,1.3546,1.3892,1.36,1.3211,1.3101,1.272,1.2227,1.1673,1.1021,1.0151,0.903,0.8421,0.7886,0.7338,0.7233,0.7045,0.6511,0.6339,0.6253,0.6093,0.5702,0.5346,0.5087,0.4244,0.0,0.3455,0.2637,0.2047,0.1715,0.1102,0.0427,-0.0337,-0.0674,-0.0944,-0.1212,-0.1344,-0.1812,-0.2549,-0.2683,-0.3218,-0.3951,-0.4082,-0.4148,-0.402,-0.4148,-0.4345,-0.4677,-0.5282,-0.5683,-0.5943,-0.6544,-0.6937,-0.7195,-0.7652,-0.7847,-0.7977,-0.8613,-0.8812,-0.8941,-0.9652,-1.0034,-1.0345,-1.1233,-1.167,-1.1965,-1.2642,-1.3321,-1.401,-1.4725,-1.5115,-1.5468,-1.6066,-1.6322,-1.6733,-1.7916,-1.887,-1.9679,-2.0309,-2.0819,-2.1211,-2.138,-2.1548,-2.1801,-2.2149,-2.2197,-2.2053,-2.1704,-2.1981,-2.1837,-2.0959,-2.1199,-2.1307,-2.1165,-2.1528,-2.2021,-2.2814,-2.3593,-2.4337,-2.5005,-2.5397,-2.5729,-2.5893,-2.5893,-2.5893,-2.5893,-2.5893,-2.5893,0.0,0.0,0.0,1.2758,1.2781,1.2803,1.2976,1.2608,1.2272,1.2571,1.1857,1.0994,1.0329,0.9649,0.9357,0.9693,0.8362,0.7317,0.7308,0.7099,0.6893,0.6614,0.661,0.65,0.614,0.5288,0.4633,0.4232,0.3352,0.2794,0.2566,0.17,0.0843,0.0,-0.0218,-0.0355,-0.054,-0.0741,-0.1279,-0.2147,-0.2147,-0.2616,-0.3553,-0.3553,-0.4018,-0.4882,-0.5084,-0.5153,-0.5153,-0.5153,-0.562,-0.6416,-0.6416,-0.6872,-0.7521,-0.7521,-0.7912,-0.849,-0.8554,-0.8554,-0.8619,-0.9326,-0.9582,-0.9709,-1.0428,-1.1052,-1.1545,-1.1545,-1.2027,-1.2696,-1.339,-1.4028,-1.4584,-1.4743,-1.5652,-1.6377,-1.6246,-1.6658,-1.7465,-1.8657,-1.9873,-2.0656,-2.061,-2.15,-2.2017,-2.15,-2.1861,-2.2197,-2.2197,-2.2197,-2.2197,-2.2197,-2.2197,-2.1981,-2.1464,-2.1428,-2.1701,-2.2284,-2.2342,-2.2872,-2.3995,-2.4021,-2.4323,-2.5005,-2.5005,-2.5286,-2.5893,-2.5893,-2.5893,-2.5893,-2.5893,-2.5893,1.1864,0.0,0.0,0.0,0.0,0.0,1.2491,1.2531,1.2333,1.1639,1.1359,1.0861,0.9743,0.8985,0.8489,0.8306,0.7819,0.7364,0.7082,0.6849,0.6674,0.6568,0.6543,0.6416,0.6281,0.5436,0.4673,0.0,0.2807,0.1861,0.1705,0.0691,0.0,-0.0219,-0.0501,-0.0905,-0.1478,-0.1679,-0.2147,-0.2882,-0.3017,-0.3553,-0.4292,-0.4556,-0.5084,-0.5815,-0.5951,-0.602,-0.602,-0.602,-0.6478,-0.7199,-0.7199,-0.7587,-0.8231,-0.8231,-0.8361,-0.8554,-0.9069,-0.9198,-0.939,-1.0598,-1.0975,-1.1101,-1.1779,-1.2089,-1.2336,-1.2834,-1.3078,-1.3441,-1.4417,-1.5214,-1.5836,-1.625,-1.6981,-1.7785,-1.8235,-1.8544,-1.8881,-1.939,-2.0382,-2.1296,-2.168,-2.1993,-2.2149,-2.1993,-2.2101,-2.2197,-2.2197,-2.2197,-2.2197,-2.2197,-2.2197,-2.2298,-2.26,-2.2635,-2.2874,-2.3496,-2.3554,-2.3864,-2.4694,-2.4694,-2.5048,-2.5619,-2.5674,-2.5729,-2.5893,-2.5893,-2.5893,-2.5893,-2.5893,-2.5893,0.0,0.0,0.0,0.0,0.0,0.0,1.1626,1.1594,1.1263,1.0378,0.9926,0.9493,0.8725,0.7994,0.7483,0.7275,0.7147,0.7038,0.6794,0.6757,0.6608,0.6475,0.652,0.6294,0.5615,0.4747,0.3995,0.32,0.1816,0.0941,0.0627,0.0077,-0.0454,-0.0875,-0.1148,-0.1606,-0.228,-0.248,-0.2948,-0.3685,-0.3754,-0.4289,-0.516,-0.5355,-0.5881,-0.6736,-0.6806,-0.7003,-0.726,-0.726,-0.7391,-0.7521,-0.7782,-0.8296,-0.8935,-0.8935,-0.9134,-0.946,-1.0091,-1.0345,-1.0528,-1.1593,-1.1903,-1.1965,-1.2389,-1.2696,-1.3009,-1.3381,-1.3863,-1.4492,-1.5341,-1.6055,-1.6658,-1.6972,-1.7883,-1.8689,-1.8744,-1.9553,-2.0243,-2.0297,-2.0878,-2.1572,-2.2101,-2.2197,-2.2197,-2.2197,-2.2197,-2.2197,-2.2197,-2.2197,-2.2197,-2.2197,-2.2197,-2.2359,-2.2702,-2.298,-2.3374,-2.3962,-2.4266,-2.4694,-2.5342,-2.5397,-2.5564,-2.5893,-2.5893,-2.5893,-2.5893,-2.5893,-2.5893,-2.5893,-2.5893,-2.5893,0.0,0.0,0.0,0.0,1.1262,0.0,1.0773,1.0386,0.9837,0.93,0.8468,0.7788,0.7721,0.7219,0.6752,0.6697,0.6673,0.6645,0.66,0.6699,0.6641,0.6281,0.6435,0.6081,0.4663,0.3918,0.2958,0.1815,0.0786,0.0,-0.0471,-0.047,-0.0918,-0.1821,-0.2031,-0.2401,-0.3082,-0.3215,-0.3685,-0.442,-0.4486,-0.502,-0.602,-0.6086,-0.6609,-0.7587,-0.7587,-0.7977,-0.849,-0.8554,-0.8231,-0.7782,-0.8361,-0.9005,-0.9646,-0.9709,-1.0161,-1.0807,-1.1421,-1.1608,-1.1725,-1.2389,-1.2634,-1.2634,-1.2696,-1.313,-1.3631,-1.3683,-1.4547,-1.5635,-1.6187,-1.6889,-1.7371,-1.7413,-1.8606,-1.9492,-1.8725,-2.0049,-2.1397,-2.1197,-2.1296,-2.1644,-2.2113,-2.2197,-2.2197,-2.2197,-2.2197,-2.2197,-2.2197,-2.2197,-2.2247,-2.2309,-2.2309,-2.2371,-2.2482,-2.2992,-2.3564,-2.4195,-2.4751,-2.5342,-2.5893,-2.5893,-2.5893,-2.5893,-2.5893,-2.5893,-2.5893,-2.5893,-2.5893,-2.5893,-2.5893,-2.5893,0.0,0.0,0.0,0.0,0.0,0.0,1.1015,1.092,1.0539,0.9854,0.9473,0.912,0.8428,0.8184,0.7906,0.7339,0.7088,0.6847,0.643,0.6234,0.6061,0.6019,0.6,0.5894,0.5459,0.4022,0.2928,0.2499,0.0793,-0.0628,-0.1568,-0.1693,-0.2102,-0.2909,-0.3061,-0.3395,-0.402,-0.4084,-0.4486,-0.5348,-0.5488,-0.6079,-0.6924,-0.7129,-0.7587,-0.8296,-0.8296,-0.8361,-0.8554,-0.9069,-0.9198,-0.9134,-0.9262,-0.9716,-1.0428,-1.0919,-1.117,-1.1421,-1.2089,-1.2328,-1.2389,-1.307,-1.3321,-1.339,-1.395,-1.4198,-1.4437,-1.4883,-1.5536,-1.6257,-1.7185,-1.8205,-1.9087,-1.9467,-2.0217,-2.0825,-2.0631,-2.1151,-2.16,-2.1569,-2.172,-2.188,-2.2173,-2.2197,-2.2197,-2.2197,-2.2197,-2.2197,-2.2197,-2.2197,-2.242,-2.2859,-2.2919,-2.3339,-2.4363,-2.4536,-2.4865,-2.5481,-2.566,-2.5784,-2.5893,-2.5893,-2.5893,-2.5893,-2.5893,-2.5893,-2.5893,-2.5893,-2.5893,-2.5893,-2.5893,-2.5893,0.0,0.0,0.0,0.94,0.0,0.0,0.0,0.8801,0.8585,0.7802,0.7548,0.7587,0.755,0.7298,0.7041,0.7094,0.6689,0.6296,0.5848,0.5392,0.5101,0.5007,0.4663,0.4214,0.3568,0.2676,0.1938,0.1277,-0.0237,-0.1412,-0.2038,-0.2477,-0.3114,-0.3997,-0.3972,-0.4292,-0.4928,-0.4922,-0.515,-0.5617,-0.6145,-0.6666,-0.7246,-0.7647,-0.8296,-0.9005,-0.9005,-0.9198,-0.9588,-1.0218,-1.0471,-1.0471,-1.0471,-1.073,-1.1115,-1.1787,-1.2027,-1.2089,-1.2765,-1.3009,-1.313,-1.3761,-1.401,-1.407,-1.4387,-1.4734,-1.5117,-1.6028,-1.6663,-1.734,-1.835,-1.9273,-2.0025,-2.021,-2.0722,-2.1164,-2.0836,-2.1112,-2.1498,-2.1549,-2.16,-2.18,-2.2123,-2.2197,-2.2197,-2.2197,-2.2197,-2.2197,-2.2197,-2.2469,-2.275,-2.3088,-2.3374,-2.38,-2.4452,-2.4821,-2.5118,-2.5453,-2.5729,-2.5893,-2.5893,-2.6188,-2.6512,-2.6821,-2.6835,-2.6835,-2.6835,-2.6835,-2.6666,-2.6357,-2.6357,-2.6357,0.0,0.0,0.0,0.0,0.0,0.7782,0.0,0.0,0.0,0.6013,0.5818,0.5922,0.6591,0.0,0.0,0.6546,0.0,0.0,0.0,0.4624,0.0,0.43,0.3423,0.2479,0.1804,0.1435,0.072,-0.055,-0.149,-0.2194,-0.2741,-0.3363,-0.4094,-0.4975,-0.493,-0.5164,-0.5793,-0.5829,-0.5873,-0.6071,-0.6789,-0.7312,-0.7632,-0.8226,-0.8941,-0.9716,-0.9837,-1.0225,-1.0807,-1.1421,-1.1663,-1.1663,-1.1663,-1.1663,-1.1787,-1.2451,-1.2696,-1.2818,-1.345,-1.3752,-1.3992,-1.4488,-1.4734,-1.4852,-1.4852,-1.5244,-1.5958,-1.6971,-1.7745,-1.8474,-1.9448,-2.0099,-2.0549,-2.0549,-2.0871,-2.1055,-2.0641,-2.0934,-2.1285,-2.1388,-2.1463,-2.16,-2.1999,-2.2135,-2.2123,-2.2123,-2.2247,-2.2297,-2.2197,-2.275,-2.3148,-2.3267,-2.3728,-2.4079,-2.4368,-2.4865,-2.5174,-2.5174,-2.5619,-2.5893,-2.5893,-2.6483,-2.7116,-2.7762,-2.7776,-2.7776,-2.7776,-2.7776,-2.7509,-2.6989,-2.6989,-2.6933,0.0,0.0,0.0,0.0,0.8006,0.0,0.7862,0.0,0.7577,0.7447,0.0,0.6994,0.7148,0.0,0.0,0.0,0.0,0.0,0.5116,0.4179,0.3876,0.4756,0.3215,0.2352,0.3127,0.1647,-0.0079,-0.1883,-0.2117,-0.2898,-0.4613,-0.4768,-0.5101,-0.5806,-0.5735,-0.5937,-0.647,-0.6552,-0.6981,-0.7702,-0.7952,-0.8474,-0.9256,-0.9326,-0.9779,-1.0491,-1.1045,-1.1296,-1.1421,-1.2089,-1.2389,-1.2389,-1.2389,-1.2389,-1.2451,-1.3139,-1.339,-1.3511,-1.4139,-1.4725,-1.5177,-1.5294,-1.5633,-1.6083,-1.6083,-1.6496,-1.7071,-1.7712,-1.8578,-1.9452,-2.0132,-2.0682,-2.1078,-2.1078,-2.1187,-2.121,-2.1152,-2.1239,-2.1388,-2.1388,-2.1537,-2.1698,-2.1761,-2.1886,-2.1925,-2.1925,-2.2567,-2.2811,-2.2247,-2.275,-2.3314,-2.3846,-2.3962,-2.4439,-2.5605,-2.5729,-2.5784,-2.5784,-2.5839,-2.5893,-2.5893,-2.6483,-2.7116,-2.7762,-2.7776,-2.7776,-2.7776,-2.7776,-2.7734,-2.7664,-2.7664,-2.7355,0.0,0.0,0.0,0.0,0.0,0.0,0.633,0.0,0.6203,0.0,0.0,0.0,0.0,0.0,0.0,0.0,0.5362,0.0,0.0,0.0,0.2873,0.0,0.0,0.0,0.1642,0.047,-0.078,-0.1999,-0.2719,-0.3655,-0.4825,-0.5431,-0.5915,-0.6315,-0.653,-0.6793,-0.7032,-0.7459,-0.7824,-0.8151,-0.8672,-0.9122,-0.9518,-1.0281,-1.0856,-1.1178,-1.1779,-1.2089,-1.2151,-1.2826,-1.307,-1.313,-1.3511,-1.3442,-1.3139,-1.3821,-1.43,-1.4638,-1.4893,-1.541,-1.5961,-1.6293,-1.6366,-1.6462,-1.7403,-1.7648,-1.7841,-1.9063,-1.9715,-2.0161,-2.0705,-2.1009,-2.1221,-2.1221,-2.1221,-2.1285,-2.1526,-2.1463,-2.1336,-2.1639,-2.1537,-2.1423,-2.1423,-2.1624,-2.1749,-2.1749,-2.2161,-2.2334,-2.2049,-2.2628,-2.3207,-2.3433,-2.4163,-2.4808,-2.5328,-2.5729,-2.5893,-2.5893,-2.6231,-2.6596,-2.6975,-2.7579,-2.8197,-2.883,-2.883,-2.883,-2.883,-2.883,-2.883,-2.883,-2.8478,-2.7973,0.5425,0.0,0.0,0.0,0.0,0.0,0.0,0.0,0.0,0.0,0.0,0.0,0.0,0.0,0.0,0.0,0.0,0.3904,0.0,0.301,0.0,0.0,0.0,0.0,0.0,-0.0546,-0.1389,-0.2345,-0.3203,-0.4118,-0.5121,-0.5901,-0.6517,-0.7019,-0.7226,-0.7625,-0.7995,-0.848,-0.8788,-0.8796,-0.9454,-0.9901,-1.0091,-1.1045,-1.1608,-1.1787,-1.2458,-1.2757,-1.2826,-1.3511,-1.3872,-1.4043,-1.4547,-1.4538,-1.4332,-1.4606,-1.5128,-1.5642,-1.5642,-1.6165,-1.6848,-1.7429,-1.7397,-1.746,-1.8625,-1.8822,-1.8918,-2.0072,-2.0515,-2.0761,-2.1244,-2.1285,-2.1221,-2.1336,-2.1411,-2.1463,-2.1639,-2.1526,-2.1463,-2.1827,-2.1639,-2.14,-2.1588,-2.16,-2.1686,-2.1812,-2.2099,-2.2273,-2.2334,-2.3165,-2.3671,-2.3649,-2.4598,-2.5225,-2.5244,-2.5827,-2.6231,-2.6399,-2.6821,-2.7369,-2.8001,-2.8464,-2.897,-2.9602,-2.9602,-2.9602,-2.9602,-2.9602,-2.9602,-2.9602,-2.9153,-2.8605,0.0,0.0,0.0,0.4948,0.0,0.0,0.0,0.0,0.3825,0.0,0.0,0.0,0.0,0.0,0.0,0.0,0.0,0.0,0.0,0.0,0.0,0.0,0.0,0.0,0.0,-0.0846,-0.1817,-0.3325,-0.3473,-0.4337,-0.6162,-0.625,-0.6843,-0.7999,-0.7965,-0.8413,-0.9608,-0.9643,-0.9855,-1.0238,-1.0428,-1.0863,-1.1421,-1.1483,-1.1849,-1.2512,-1.3199,-1.3442,-1.3511,-1.4198,-1.4784,-1.5352,-1.5352,-1.569,-1.614,-1.5575,-1.5748,-1.6255,-1.6255,-1.7016,-1.8049,-1.8657,-1.9171,-1.9584,-1.9618,-1.9938,-2.0305,-2.04,-2.0756,-2.1262,-2.1753,-2.1526,-2.1285,-2.1765,-2.1877,-2.1765,-2.1348,-2.1577,-2.1877,-2.1877,-2.1877,-2.2002,-2.2482,-2.1939,-2.1588,-2.2025,-2.2725,-2.3314,-2.3518,-2.459,-2.5207,-2.4946,-2.5493,-2.5876,-2.5881,-2.6441,-2.7045,-2.7678,-2.7734,-2.8015,-2.8647,-2.8675,-2.897,-2.9602,-2.9602,-2.9602,-2.9602,-2.9602,-2.9602,-2.9602,-2.9588,-2.9251,0.0,0.0,0.422,0.3749,0.0,0.0,0.0,0.0,0.0,0.0,0.0,0.0,0.0,0.0,0.0,0.0,0.0,0.0,0.0,0.0,0.1134,0.0,0.0,0.0,0.0,0.0,-0.285,-0.3534,-0.4157,-0.5063,-0.6093,-0.686,-0.7525,-0.8114,-0.906,-0.9728,-1.0043,-1.0436,-1.0565,-1.0498,-1.0989,-1.1303,-1.1545,-1.2405,-1.2956,-1.3199,-1.3881,-1.4139,-1.4198,-1.4843,-1.5245,-1.5468,-1.5864,-1.6358,-1.681,-1.6197,-1.6368,-1.7022,-1.7754,-1.8283,-1.8771,-1.9618,-1.9803,-1.9815,-2.0469,-2.1028,-2.1537,-2.1879,-2.2345,-2.273,-2.2919,-2.2515,-2.2175,-2.2298,-2.2359,-2.2298,-2.2187,-2.2237,-2.2359,-2.2359,-2.2359,-2.2421,-2.2592,-2.2359,-2.2237,-2.2433,-2.275,-2.3311,-2.3968,-2.4154,-2.4413,-2.4964,-2.5563,-2.5731,-2.5327,-2.6231,-2.7088,-2.7734,-2.8155,-2.8478,-2.8675,-2.9083,-2.9392,-2.9602,-2.9602,-2.9602,-2.9602,-2.9602,-2.9602,-2.9602,-2.9602,-2.9279,0.3349,0.3349,0.0,0.2948,0.2547,0.0,0.2813,0.0,0.2549,0.0,0.0,0.0,0.0,0.0,0.0,0.0,0.0,0.0,0.0,0.0274,0.0,0.0,-0.0528,0.0,0.0,-0.2133,-0.3567,-0.4364,-0.5068,-0.5878,-0.689,-0.7726,-0.8437,-0.9036,-1.0142,-1.0742,-1.0816,-1.1063,-1.1182,-1.1092,-1.1353,-1.1732,-1.222,-1.3078,-1.3631,-1.3881,-1.4327,-1.4625,-1.4852,-1.502,-1.5468,-1.6083,-1.6255,-1.681,-1.7446,-1.681,-1.7143,-1.7913,-1.8657,-1.9126,-1.9539,-2.0205,-2.0442,-2.0624,-2.1265,-2.1969,-2.2587,-2.2669,-2.325,-2.3825,-2.3741,-2.3505,-2.3207,-2.3182,-2.3193,-2.3083,-2.2702,-2.2738,-2.2859,-2.2859,-2.2859,-2.2932,-2.31,-2.3324,-2.3389,-2.3206,-2.3292,-2.3799,-2.5023,-2.5127,-2.5269,-2.5934,-2.6553,-2.6717,-2.6345,-2.7025,-2.7748,-2.8394,-2.8802,-2.9012,-2.9012,-2.9392,-2.9715,-2.994,-2.9715,-2.9715,-2.994,-2.9715,-2.9602,-2.9602,-2.9602,-2.9392]},{"header":{"parameterUnit":"m.s-1","parameterCategory":1,"la1":30.6,"la2":29.2853,"lo1":-89.7004,"lo2":-87.6739,"dy":0.0162,"dx":0.0183,"nx":112,"ny":82,"refTime":"2023-11-08T06:00:00:Z","depth":0,"parameterNumber":3,"parameterNumberName":"V-component_of_WINDS"},"data":[0.0,0.0,0.0,0.0,0.0,0.0,0.0,0.0,0.0,0.0,0.0,0.0,0.0,0.0,0.0,0.0,0.0,0.0,0.0,0.0,0.0,0.0,0.0,0.0,0.0,0.0,0.0,0.0,0.0,0.0,0.0,0.0,0.0,0.0,0.0,0.0,0.0,0.0,0.0,0.0,0.0,0.0,0.0,0.0,0.0,0.0,0.0,0.0,0.0,0.0,0.0,0.0,0.0,0.0,0.0,0.0,0.0,0.0,0.0,0.0,0.0,0.0,0.0,0.0,0.0,0.0,0.0,0.0,0.0,0.0,0.0,0.0,0.0,0.0,0.0,0.0,0.0,0.0,0.0,0.0,0.0,0.0,0.0,0.0,0.0,0.0,0.0,0.0,0.0,0.0,2.3635,2.3484,2.5245,2.6606,2.6969,2.822,2.794,2.5356,0.0,0.0,0.0,0.0,0.0,0.0,0.0,0.0,0.0,0.0,0.0,0.0,0.0,0.0,0.0,0.0,0.0,0.0,0.0,0.0,0.0,0.0,0.0,0.0,0.0,0.0,0.0,0.0,0.0,0.0,0.0,0.0,0.0,0.0,0.0,0.0,0.0,0.0,0.0,0.0,0.0,0.0,0.0,0.0,0.0,0.0,0.0,0.0,0.0,0.0,0.0,0.0,0.0,0.0,0.0,0.0,0.0,0.0,0.0,0.0,0.0,0.0,0.0,0.0,0.0,0.0,0.0,0.0,0.0,0.0,0.0,0.0,0.0,0.0,0.0,0.0,0.0,0.0,0.0,0.0,0.0,0.0,0.0,0.0,0.0,0.0,0.0,0.0,0.0,0.0,0.0,0.0,0.0,0.0,0.0,0.0,0.0,0.0,0.0,0.0,0.0,0.0,0.0,0.0,2.2644,2.4538,2.507,2.6081,2.8083,2.7973,2.7073,2.5402,0.0,0.0,0.0,0.0,0.0,0.0,0.0,0.0,0.0,0.0,0.0,0.0,0.0,0.0,0.0,0.0,0.0,0.0,0.0,0.0,0.0,0.0,0.0,0.0,0.0,0.0,0.0,0.0,0.0,0.0,0.0,0.0,0.0,0.0,0.0,0.0,0.0,0.0,0.0,0.0,0.0,0.0,0.0,0.0,0.0,0.0,0.0,0.0,0.0,0.0,0.0,0.0,0.0,0.0,0.0,0.0,0.0,0.0,0.0,0.0,0.0,0.0,0.0,0.0,0.0,0.0,0.0,0.0,0.0,0.0,0.0,0.0,0.0,0.0,0.0,0.0,0.0,0.0,0.0,0.0,0.0,0.0,0.0,0.0,0.0,0.0,0.0,0.0,0.0,0.0,0.0,0.0,0.0,0.0,0.0,0.0,0.0,0.0,0.0,0.0,0.0,0.0,0.0,2.2141,2.2549,2.427,2.503,2.5824,2.6902,2.8154,2.7907,2.5763,2.5776,0.0,0.0,0.0,0.0,0.0,0.0,0.0,0.0,0.0,0.0,0.0,0.0,0.0,0.0,0.0,0.0,0.0,0.0,0.0,0.0,0.0,0.0,0.0,0.0,0.0,0.0,0.0,0.0,0.0,0.0,0.0,0.0,0.0,0.0,0.0,0.0,0.0,0.0,0.0,0.0,0.0,0.0,0.0,0.0,0.0,0.0,0.0,0.0,0.0,0.0,0.0,0.0,0.0,0.0,0.0,0.0,0.0,0.0,0.0,0.0,0.0,0.0,0.0,0.0,0.0,0.0,0.0,0.0,0.0,0.0,0.0,0.0,0.0,0.0,0.0,0.0,0.0,0.0,0.0,0.0,0.0,0.0,0.0,0.0,0.0,0.0,0.0,0.0,0.0,0.0,0.0,0.0,0.0,0.0,0.0,0.0,0.0,0.0,0.0,0.0,0.0,0.0,2.3339,2.3353,2.4132,2.5066,2.5785,2.619,2.8006,2.8222,2.6115,2.5663,0.0,0.0,0.0,0.0,0.0,0.0,0.0,0.0,0.0,0.0,0.0,0.0,0.0,0.0,0.0,0.0,0.0,0.0,0.0,0.0,0.0,0.0,0.0,0.0,0.0,0.0,0.0,0.0,0.0,0.0,0.0,0.0,0.0,0.0,0.0,0.0,0.0,0.0,0.0,0.0,0.0,0.0,0.0,0.0,0.0,0.0,0.0,0.0,0.0,0.0,0.0,0.0,0.0,0.0,0.0,0.0,0.0,0.0,0.0,0.0,0.0,0.0,0.0,0.0,0.0,0.0,0.0,0.0,0.0,0.0,0.0,0.0,0.0,0.0,0.0,0.0,0.0,0.0,0.0,0.0,0.0,0.0,0.0,0.0,0.0,0.0,0.0,0.0,0.0,0.0,0.0,0.0,0.0,0.0,0.0,0.0,0.0,0.0,0.0,0.0,0.0,0.0,2.4317,2.5408,2.4907,2.4989,2.5825,2.7695,2.7046,2.6467,2.6199,2.505,0.0,0.0,0.0,0.0,0.0,0.0,0.0,0.0,0.0,0.0,0.0,0.0,0.0,0.0,0.0,0.0,0.0,0.0,0.0,0.0,0.0,0.0,0.0,0.0,0.0,0.0,0.0,0.0,0.0,0.0,0.0,0.0,0.0,0.0,0.0,0.0,0.0,0.0,0.0,0.0,0.0,0.0,0.0,0.0,0.0,0.0,0.0,0.0,0.0,0.0,0.0,0.0,0.0,0.0,0.0,0.0,0.0,0.0,0.0,0.0,0.0,0.0,0.0,0.0,0.0,0.0,0.0,0.0,0.0,0.0,0.0,0.0,0.0,0.0,0.0,0.0,0.0,0.0,0.0,0.0,0.0,0.0,0.0,0.0,0.0,0.0,0.0,0.0,0.0,0.0,0.0,0.0,0.0,0.0,0.0,0.0,0.0,0.0,0.0,0.0,0.0,0.0,2.3836,2.4483,0.0,2.465,2.536,2.6427,2.7365,2.7457,2.6383,0.0,0.0,0.0,0.0,0.0,0.0,0.0,0.0,0.0,0.0,0.0,0.0,0.0,0.0,0.0,0.0,0.0,0.0,0.0,0.0,0.0,0.0,0.0,0.0,0.0,0.0,0.0,0.0,0.0,0.0,0.0,0.0,0.0,0.0,0.0,0.0,0.0,0.0,0.0,0.0,0.0,0.0,0.0,0.0,0.0,0.0,0.0,0.0,0.0,0.0,0.0,0.0,0.0,0.0,0.0,0.0,0.0,0.0,0.0,0.0,0.0,0.0,0.0,0.0,0.0,0.0,0.0,0.0,0.0,0.0,0.0,0.0,0.0,0.0,0.0,0.0,0.0,0.0,0.0,0.0,0.0,0.0,0.0,0.0,0.0,0.0,0.0,0.0,0.0,0.0,0.0,0.0,0.0,0.0,0.0,0.0,0.0,0.0,0.0,0.0,0.0,0.0,2.297,2.3991,2.4563,0.0,2.47,2.5319,2.5827,2.7051,2.7429,2.6439,0.0,0.0,0.0,0.0,0.0,0.0,0.0,0.0,0.0,0.0,0.0,0.0,0.0,0.0,0.0,0.0,0.0,0.0,0.0,0.0,0.0,0.0,0.0,0.0,0.0,0.0,0.0,0.0,0.0,0.0,0.0,0.0,0.0,0.0,0.0,0.0,0.0,0.0,0.0,0.0,0.0,0.0,0.0,0.0,0.0,0.0,0.0,0.0,0.0,0.0,0.0,0.0,0.0,0.0,0.0,0.0,0.0,0.0,0.0,0.0,0.0,0.0,0.0,0.0,0.0,0.0,0.0,0.0,0.0,0.0,0.0,0.0,0.0,0.0,0.0,0.0,0.0,0.0,0.0,0.0,0.0,0.0,0.0,0.0,0.0,0.0,0.0,0.0,0.0,0.0,0.0,0.0,0.0,0.0,0.0,0.0,0.0,0.0,0.0,0.0,0.0,0.0,2.3022,2.5159,2.6229,2.476,2.5222,2.5821,2.6421,2.5907,2.575,0.0,0.0,0.0,0.0,0.0,0.0,0.0,0.0,0.0,0.0,0.0,0.0,0.0,0.0,0.0,0.0,0.0,0.0,0.0,0.0,0.0,0.0,0.0,0.0,0.0,0.0,0.0,0.0,0.0,0.0,0.0,0.0,0.0,0.0,0.0,0.0,0.0,0.0,0.0,0.0,0.0,0.0,0.0,0.0,0.0,0.0,0.0,0.0,0.0,0.0,0.0,0.0,0.0,0.0,0.0,0.0,0.0,0.0,0.0,0.0,0.0,0.0,0.0,0.0,0.0,0.0,0.0,0.0,0.0,0.0,0.0,0.0,0.0,0.0,0.0,0.0,0.0,0.0,0.0,0.0,0.0,0.0,0.0,0.0,0.0,0.0,0.0,0.0,0.0,0.0,0.0,0.0,0.0,0.0,0.0,0.0,0.0,0.0,0.0,0.0,0.0,0.0,0.0,2.3407,2.4745,2.5444,2.4667,2.5012,2.5557,2.6147,2.65,2.6603,2.6396,0.0,0.0,0.0,0.0,0.0,0.0,0.0,0.0,0.0,0.0,0.0,0.0,0.0,0.0,0.0,0.0,0.0,0.0,0.0,0.0,0.0,0.0,0.0,0.0,0.0,0.0,0.0,0.0,0.0,0.0,0.0,0.0,0.0,0.0,0.0,0.0,0.0,0.0,0.0,0.0,0.0,0.0,0.0,0.0,0.0,0.0,0.0,0.0,0.0,0.0,0.0,0.0,0.0,0.0,0.0,0.0,0.0,0.0,0.0,0.0,0.0,0.0,0.0,0.0,0.0,0.0,0.0,0.0,0.0,0.0,0.0,0.0,0.0,0.0,0.0,0.0,0.0,0.0,0.0,0.0,0.0,0.0,0.0,0.0,0.0,0.0,0.0,0.0,0.0,0.0,0.0,0.0,0.0,0.0,0.0,0.0,0.0,0.0,0.0,0.0,0.0,0.0,2.3822,2.4744,2.5279,2.5084,2.5329,2.5742,2.628,2.6733,2.687,2.6487,0.0,0.0,0.0,0.0,0.0,0.0,0.0,0.0,0.0,0.0,0.0,0.0,0.0,0.0,0.0,0.0,0.0,0.0,0.0,0.0,0.0,0.0,0.0,0.0,0.0,0.0,0.0,0.0,0.0,0.0,0.0,0.0,0.0,0.0,0.0,0.0,0.0,0.0,0.0,0.0,0.0,0.0,0.0,0.0,0.0,0.0,0.0,0.0,0.0,0.0,0.0,0.0,0.0,0.0,0.0,0.0,0.0,0.0,0.0,0.0,0.0,0.0,0.0,0.0,0.0,0.0,0.0,0.0,0.0,0.0,0.0,0.0,0.0,0.0,0.0,0.0,0.0,0.0,0.0,0.0,0.0,0.0,0.0,0.0,0.0,0.0,0.0,0.0,0.0,0.0,0.0,0.0,0.0,0.0,0.0,0.0,0.0,0.0,0.0,0.0,0.0,0.0,2.4184,2.4952,2.5516,2.577,2.5941,2.6227,2.6657,2.6725,2.6708,2.6657,0.0,0.0,0.0,0.0,0.0,0.0,0.0,0.0,0.0,0.0,0.0,0.0,0.0,0.0,0.0,0.0,0.0,0.0,0.0,0.0,0.0,0.0,0.0,0.0,0.0,0.0,0.0,0.0,0.0,0.0,0.0,0.0,0.0,0.0,0.0,0.0,0.0,0.0,0.0,0.0,0.0,0.0,0.0,0.0,0.0,0.0,0.0,0.0,0.0,0.0,0.0,0.0,0.0,0.0,0.0,0.0,0.0,0.0,0.0,0.0,3.443,0.0,0.0,0.0,0.0,0.0,0.0,0.0,0.0,0.0,0.0,0.0,0.0,0.0,0.0,0.0,0.0,0.0,0.0,0.0,0.0,0.0,0.0,0.0,0.0,0.0,0.0,0.0,0.0,0.0,0.0,0.0,0.0,0.0,0.0,0.0,0.0,0.0,0.0,0.0,0.0,0.0,2.421,2.5084,2.5697,2.5795,2.6208,2.6538,2.6691,2.6956,2.7085,2.7068,2.7457,0.0,0.0,0.0,0.0,0.0,0.0,0.0,0.0,0.0,0.0,0.0,0.0,0.0,0.0,0.0,0.0,0.0,0.0,0.0,0.0,0.0,0.0,0.0,0.0,0.0,0.0,0.0,0.0,0.0,0.0,0.0,0.0,0.0,0.0,0.0,0.0,0.0,0.0,0.0,0.0,0.0,0.0,0.0,0.0,0.0,0.0,0.0,0.0,0.0,0.0,0.0,0.0,0.0,0.0,0.0,0.0,0.0,0.0,0.0,0.0,3.5826,0.0,0.0,0.0,0.0,0.0,0.0,0.0,0.0,0.0,0.0,0.0,0.0,0.0,0.0,0.0,0.0,0.0,0.0,0.0,0.0,0.0,0.0,0.0,0.0,0.0,0.0,0.0,0.0,0.0,0.0,0.0,0.0,0.0,0.0,0.0,0.0,0.0,0.0,0.0,0.0,2.4784,2.5384,2.5811,2.6118,2.6417,2.6691,2.6923,2.7085,2.7321,2.7589,2.7783,0.0,0.0,0.0,0.0,0.0,0.0,0.0,0.0,0.0,0.0,0.0,0.0,0.0,0.0,0.0,0.0,0.0,0.0,0.0,0.0,0.0,0.0,0.0,0.0,0.0,0.0,0.0,0.0,0.0,0.0,0.0,0.0,0.0,0.0,0.0,0.0,0.0,0.0,0.0,0.0,0.0,0.0,0.0,0.0,0.0,0.0,0.0,0.0,0.0,0.0,0.0,0.0,0.0,4.1236,4.1557,4.0611,4.0746,4.1171,4.175,3.9681,3.9008,3.9272,3.7435,0.0,0.0,0.0,0.0,0.0,0.0,0.0,0.0,0.0,0.0,0.0,0.0,0.0,0.0,0.0,0.0,0.0,0.0,0.0,0.0,0.0,0.0,0.0,0.0,3.3366,3.4021,0.0,0.0,0.0,0.0,0.0,0.0,0.0,0.0,0.0,0.0,0.0,0.0,2.5384,2.5721,2.601,2.645,2.6572,2.6792,2.7166,2.7244,2.7517,2.8075,2.802,2.8011,0.0,0.0,0.0,0.0,0.0,0.0,0.0,0.0,0.0,0.0,0.0,0.0,0.0,0.0,0.0,0.0,0.0,0.0,0.0,0.0,0.0,0.0,0.0,0.0,0.0,0.0,0.0,0.0,0.0,0.0,0.0,0.0,3.5925,3.6358,0.0,0.0,0.0,0.0,0.0,0.0,0.0,0.0,0.0,0.0,0.0,0.0,0.0,4.0431,4.0328,4.2668,4.3442,4.2634,4.5436,4.5748,4.3752,4.4354,4.4179,4.3314,4.3391,0.0,4.1087,4.0237,0.0,0.0,0.0,0.0,0.0,0.0,0.0,0.0,0.0,0.0,0.0,0.0,0.0,0.0,0.0,0.0,0.0,0.0,0.0,0.0,0.0,0.0,3.5036,3.4252,3.4504,3.4584,0.0,3.1802,3.0203,2.922,2.8031,0.0,0.0,0.0,0.0,0.0,0.0,0.0,2.5486,2.603,2.6415,2.6485,2.6623,2.6825,2.7181,2.7461,2.7771,2.8075,2.8456,2.8742,2.8938,2.8315,0.0,0.0,0.0,0.0,0.0,0.0,0.0,0.0,0.0,0.0,0.0,0.0,0.0,0.0,0.0,0.0,0.0,0.0,0.0,0.0,0.0,0.0,0.0,0.0,0.0,0.0,0.0,0.0,0.0,3.5382,3.6724,3.6062,3.6474,3.6165,0.0,0.0,0.0,0.0,0.0,0.0,0.0,0.0,0.0,4.1595,4.2802,4.344,4.344,4.5285,4.5613,4.4458,4.6234,4.632,4.4941,4.5268,4.5128,4.4643,4.4819,4.4199,4.3014,4.2057,4.1494,4.0965,0.0,0.0,0.0,0.0,3.724,3.8059,3.8684,3.9271,0.0,3.8717,0.0,0.0,0.0,0.0,0.0,0.0,0.0,0.0,0.0,0.0,3.4583,3.4513,3.4705,3.4584,3.3425,3.2415,3.1404,0.0,2.9201,2.8169,2.7153,0.0,0.0,0.0,0.0,2.5901,2.5901,2.617,2.6434,2.6485,2.6742,2.7085,2.7461,2.7754,2.8065,2.8352,2.8644,2.8938,2.9256,2.8961,2.9026,0.0,0.0,0.0,0.0,0.0,0.0,0.0,0.0,0.0,0.0,0.0,0.0,0.0,0.0,0.0,0.0,0.0,0.0,0.0,0.0,0.0,0.0,0.0,0.0,0.0,0.0,0.0,0.0,3.7049,3.8077,3.6525,3.8215,3.8456,0.0,0.0,0.0,0.0,0.0,0.0,4.0784,4.1612,4.2664,4.4009,4.5337,4.601,4.601,4.732,4.732,4.6027,4.6803,4.6562,4.5423,4.5423,4.5216,4.4854,4.4854,4.463,4.4216,4.3186,4.2723,4.2447,3.998,3.9163,3.9303,3.8843,3.9316,4.0211,4.056,4.1208,4.1619,4.0276,0.0,3.8318,3.6108,0.0,0.0,0.0,0.0,3.4072,3.5071,3.4576,3.3851,3.4184,3.4331,3.4038,3.2928,3.2381,3.1868,0.0,2.9914,2.8804,2.7781,0.0,0.0,0.0,0.0,2.622,2.622,2.633,2.6487,2.6589,2.6989,2.7382,2.7771,2.801,2.8255,2.8594,2.8791,2.9034,2.9399,2.9456,2.9729,3.029,0.0,0.0,0.0,0.0,0.0,0.0,0.0,0.0,0.0,0.0,0.0,0.0,0.0,0.0,0.0,0.0,0.0,0.0,0.0,0.0,0.0,0.0,0.0,0.0,0.0,0.0,0.0,0.0,0.0,3.9646,4.2768,0.0,0.0,0.0,0.0,4.0647,4.1336,4.244,4.3975,4.4768,4.5579,4.6406,4.72,4.7596,4.7596,4.8372,4.8372,4.7596,4.8355,4.7562,4.5423,4.5423,4.4647,4.3285,4.3285,4.3664,4.4216,4.3475,4.2881,4.2258,4.0366,3.9926,4.0298,4.0087,4.0176,4.0508,4.1288,4.1569,4.1481,4.0717,3.906,3.724,3.6414,3.5725,0.0,0.0,3.4929,3.507,3.5605,3.4735,3.3721,3.3721,3.3253,3.2779,3.2696,3.1603,3.0808,0.0,2.988,2.8445,2.8379,0.0,2.622,2.622,2.622,2.622,2.622,2.6573,2.6872,2.6872,2.7365,2.7771,2.8047,2.8102,2.8281,2.8669,2.8943,2.9214,2.9476,2.9751,3.0011,3.0302,2.9494,0.0,0.0,0.0,0.0,0.0,0.0,0.0,0.0,0.0,0.0,0.0,0.0,0.0,0.0,0.0,0.0,0.0,0.0,0.0,0.0,0.0,0.0,0.0,0.0,0.0,0.0,0.0,0.0,4.2043,4.4458,0.0,4.2216,4.2612,4.3268,4.3768,4.4527,4.5406,4.6424,4.6751,4.7027,4.732,4.7579,4.7717,4.7717,4.751,4.7269,4.6993,4.6251,4.5475,4.4665,4.4199,4.3682,4.3214,4.3214,4.3076,4.2785,4.2526,4.2886,4.3469,4.1816,4.1259,4.1395,4.1153,4.1095,4.1148,4.111,4.0997,4.0701,3.9608,3.8434,3.7387,3.7129,3.6268,3.5425,3.5353,3.4841,3.43,3.4012,3.2855,3.1773,3.1715,3.0359,2.9213,2.9675,2.8731,2.7959,2.8688,2.8246,2.7699,2.7699,2.6866,2.622,2.622,2.622,2.6293,2.6538,2.6757,2.6985,2.7251,2.7689,2.7992,2.8102,2.8299,2.8576,2.8874,2.9038,2.9277,2.9678,2.982,3.0066,3.0413,2.9043,2.8255,0.0,0.0,0.0,0.0,0.0,0.0,0.0,0.0,0.0,0.0,0.0,0.0,0.0,0.0,0.0,0.0,0.0,0.0,0.0,0.0,0.0,0.0,0.0,0.0,0.0,0.0,4.4596,4.337,4.5889,4.6751,4.4182,4.5079,4.6027,4.6527,4.7062,4.7683,4.8441,4.8493,4.8355,4.8096,4.8079,4.7976,4.7717,4.7234,4.6717,4.6199,4.5165,4.4251,4.3492,4.2992,4.2679,4.2406,4.2406,4.2095,4.1595,4.1319,4.1819,4.2647,4.1905,4.144,4.1194,4.1018,4.0804,4.0525,4.0175,3.9799,3.9347,3.852,3.7698,3.7042,3.6784,3.6115,3.537,3.5131,3.4237,3.3204,3.2795,3.1542,3.0319,3.0163,2.8703,2.7433,2.7816,2.6829,2.5971,2.6452,2.6551,2.6617,2.6882,2.6104,2.5475,2.5475,2.5475,2.5579,2.5963,2.6185,2.6532,2.7181,2.761,2.7968,2.8237,2.8551,2.8821,2.9038,2.8934,2.9045,2.9366,2.9235,2.9442,3.0056,2.8985,2.8508,2.8638,0.0,0.0,0.0,0.0,0.0,0.0,0.0,0.0,0.0,0.0,0.0,0.0,0.0,0.0,0.0,0.0,0.0,0.0,0.0,0.0,0.0,0.0,0.0,4.1043,4.4268,4.5803,4.3647,4.7303,4.8838,4.5855,4.7562,4.8855,4.8855,4.8855,4.92,4.9959,4.9993,4.9597,4.8803,4.8769,4.8407,4.7648,4.7648,4.6889,4.5389,4.5372,4.4165,4.1992,4.194,4.1543,4.0888,4.0853,4.0853,4.0819,4.0026,3.9698,3.9767,4.0526,4.0336,3.9664,3.9664,3.9198,3.8543,3.8525,3.806,3.7439,3.7439,3.6904,3.6128,3.5421,3.5163,3.4996,3.4397,3.3132,3.2003,3.2144,3.0923,2.9556,2.9213,2.837,2.7582,2.7274,2.6021,2.5011,2.5027,2.5011,2.5243,2.6005,2.4944,2.4,2.4,2.4033,0.0,2.4472,2.4856,2.553,2.6659,2.7148,2.7707,2.8478,2.8803,2.8993,2.9086,2.8746,2.8558,2.8654,2.806,2.8199,2.9184,2.9401,2.9492,2.9461,0.0,0.0,0.0,0.0,0.0,0.0,0.0,0.0,0.0,0.0,0.0,0.0,0.0,0.0,0.0,0.0,0.0,0.0,0.0,0.0,0.0,0.0,4.3751,4.4872,4.5941,4.6993,4.801,4.9235,4.9683,4.8821,4.9304,4.9683,4.9683,4.9683,4.9769,4.9993,4.9459,4.8803,4.8045,4.7493,4.6855,4.6061,4.6061,4.5561,4.4596,4.4044,4.3164,4.194,4.0836,4.0526,4.0853,4.0267,4.0353,4.0819,4.0026,3.9698,3.9664,3.9336,3.9094,3.895,3.9128,3.8686,3.7939,3.7419,3.6945,3.6628,3.6628,3.6111,3.5456,3.5249,3.4421,3.3408,3.2817,3.1933,3.0976,3.0077,2.9105,2.8288,2.7839,2.6285,2.4913,2.5046,2.3815,2.2857,2.3404,2.3073,2.3106,2.4398,2.4445,2.4225,2.4033,2.4365,0.0,2.4913,2.5232,2.5683,2.6285,2.6459,2.6874,2.7671,2.799,2.8458,2.928,2.8798,2.8909,2.9807,2.9109,2.8916,2.9341,2.9444,2.9191,0.0,0.0,0.0,0.0,0.0,0.0,0.0,0.0,0.0,0.0,0.0,0.0,0.0,0.0,0.0,0.0,0.0,0.0,0.0,0.0,0.0,0.0,4.3113,4.4941,4.6803,4.7338,4.8148,4.9804,5.0011,5.0011,5.0011,5.0011,5.0011,5.0011,5.0011,5.0011,5.0011,4.9252,4.8476,4.7734,4.6993,4.6234,4.5441,4.5096,4.4561,4.3853,4.3044,4.2268,4.1492,4.025,4.0129,4.0819,3.9715,3.9681,4.0336,3.9543,3.9232,0.0,0.0,0.0,0.0,0.0,3.7567,3.7116,3.6683,3.6444,3.6301,3.6301,3.5576,3.4731,3.4731,3.3662,3.232,3.1794,3.1097,3.0258,2.9162,2.8122,2.7215,2.6659,2.5145,2.3816,2.3816,2.2967,2.2304,2.2743,2.2358,0.0,2.3106,2.3287,2.3318,2.3287,2.3583,2.3947,2.4296,2.4519,2.5033,2.6085,2.6204,2.6703,2.7971,2.8298,0.0,0.0,0.0,2.8836,2.9244,2.9236,0.0,0.0,0.0,2.9795,2.9285,0.0,0.0,0.0,3.005,3.0328,0.0,0.0,0.0,0.0,0.0,0.0,0.0,0.0,0.0,0.0,0.0,0.0,0.0,0.0,0.0,0.0,4.4337,4.5147,4.7286,4.8165,4.889,4.9769,4.9873,4.9907,4.9993,5.0011,5.0011,5.0011,4.9924,4.9907,5.0011,0.0,0.0,0.0,0.0,4.6268,4.5303,4.463,4.3854,4.3076,4.2319,4.1595,4.0853,3.9974,4.0008,4.0664,3.9129,3.8888,3.9508,3.8767,3.8405,3.8336,3.8422,3.8008,3.7267,3.6559,3.6301,3.6284,3.6197,0.0,0.0,3.6077,3.5111,3.3955,3.3955,3.2924,3.1616,3.1165,3.0477,2.9751,2.9009,2.7707,2.6394,2.5754,2.4641,2.3663,2.3351,2.2963,2.2703,2.2703,2.2456,2.2275,2.2275,2.2056,2.1986,2.2275,2.2368,2.2643,2.3212,2.3346,2.405,2.5873,0.0,0.0,2.8713,2.9063,2.9344,2.9765,2.9326,2.8734,2.7999,2.8982,2.9564,2.9564,3.0369,3.0798,3.0807,3.0693,3.0643,3.0663,3.074,3.079,0.0,0.0,0.0,0.0,0.0,0.0,0.0,0.0,0.0,0.0,0.0,0.0,0.0,0.0,0.0,4.3803,4.4676,4.5579,4.6665,4.6941,4.7527,4.889,4.9045,4.9304,4.9942,5.0011,5.0011,5.0011,4.9407,4.9338,4.9976,4.9252,4.8476,4.7734,4.7579,4.6527,4.4527,4.4354,4.3578,4.2216,0.0,0.0,4.0836,3.9439,3.9215,3.9836,3.8353,3.8112,3.875,3.8008,3.7318,3.6801,3.7456,3.7215,3.6508,3.6353,3.6301,3.6215,3.5611,3.5404,3.5301,3.4714,3.3886,3.3128,3.3128,3.2187,0.0,3.0377,2.9765,2.9142,2.8479,2.7274,2.6109,2.5817,2.4559,2.3357,2.318,2.2911,2.2703,2.2703,2.2652,2.2591,2.2591,2.2429,2.2298,2.2303,2.2807,2.3218,2.33,2.3544,2.4093,2.5135,2.5226,2.599,2.786,2.8266,2.8802,2.9676,3.0011,2.9815,2.8955,2.9966,3.0536,3.0536,3.0716,3.0804,3.0793,3.0099,2.9741,2.9763,3.0464,3.0804,0.0,0.0,0.0,0.0,0.0,0.0,0.0,0.0,0.0,0.0,0.0,4.2219,0.0,0.0,4.3938,4.4535,4.5061,4.5561,4.5958,4.601,4.6579,4.8079,4.8596,4.8976,4.9373,4.9769,5.0011,5.0011,4.9269,4.8993,4.939,4.8338,4.7545,4.7182,4.6769,4.582,4.4285,4.3906,4.3147,4.1992,4.1612,4.1233,4.0836,3.9681,3.956,4.0181,3.8301,3.7905,3.8525,3.7784,3.7249,3.6939,3.7318,3.6991,3.6301,3.6301,3.6301,3.6249,3.587,3.5508,3.5128,3.4766,3.3852,3.2904,3.3017,3.2053,3.0802,3.0296,2.9629,2.8942,2.8163,2.6869,2.5673,2.54,2.4249,2.3179,2.3115,2.3126,2.3151,2.3151,2.3067,2.3007,2.3007,2.2807,2.2678,2.2797,2.3111,2.3405,2.3522,2.3692,2.4145,2.5051,2.5142,2.5949,2.7938,2.8744,2.9196,2.9289,3.0052,3.0114,2.9242,3.0237,3.0585,3.0156,3.0154,2.9928,2.9499,2.9093,2.8906,2.8906,2.9348,2.9552,0.0,0.0,0.0,0.0,0.0,0.0,0.0,0.0,4.1675,4.2703,4.3283,4.367,4.3932,4.4284,4.4751,4.5459,4.5476,4.5423,4.5423,4.5423,4.5889,4.7131,4.7941,4.8459,4.8596,4.9183,4.9562,4.9562,4.8838,4.8459,4.8596,4.7338,4.6544,4.6389,4.5768,4.4906,4.3837,4.3233,4.2543,4.1767,4.1164,4.0888,4.0853,4.006,3.9974,4.0319,3.818,3.7767,3.8525,3.7629,3.7353,3.7456,3.7318,3.687,3.6301,3.6301,3.6301,3.6266,3.5973,3.5473,3.4938,3.4628,3.3697,3.2717,3.2941,3.1951,3.0677,3.0374,2.9632,2.8747,2.7994,2.6599,2.5339,2.5118,2.4077,2.3126,2.3193,2.3407,2.3607,2.3607,2.3499,2.3394,2.3394,2.3224,2.3117,2.3277,2.3323,2.3455,2.3774,2.3795,2.4187,2.5196,2.5307,2.6096,2.799,2.9061,2.9341,2.8708,2.9522,2.9717,2.9007,2.9835,2.9961,2.926,2.9253,2.8895,2.8193,2.8104,2.8046,2.8046,2.7861,2.7971,3.6732,3.7008,3.818,4.0043,4.0095,4.0874,0.0,0.0,4.508,4.7222,4.7187,4.6818,4.6805,4.5961,4.5459,4.6038,4.5701,4.5423,4.5423,4.5423,4.5492,4.5665,4.6372,4.7113,4.7769,4.7924,4.7976,4.7976,4.7286,4.7148,4.7803,4.7062,4.6286,4.5579,4.5475,4.4406,4.2268,4.2164,4.175,4.1009,4.0922,4.0888,4.0853,4.006,3.9388,3.8767,3.7129,3.7249,3.8474,3.7025,3.6853,3.7404,3.6715,3.6387,3.6301,3.6301,3.6301,3.6111,3.4783,3.4283,3.399,3.2628,3.2059,3.1958,3.2159,3.1219,3.0109,3.0247,2.9349,2.8261,2.8172,2.6782,2.5447,2.5648,2.441,2.3253,2.3476,2.3611,2.3678,2.3678,2.3721,2.3743,2.3743,2.3728,2.361,2.3346,2.3405,2.3553,2.3774,2.3795,2.4187,2.5196,2.5348,2.5912,2.7215,2.7671,2.7873,2.7838,2.8097,2.8252,2.8223,2.8393,2.8446,2.8349,2.8356,2.831,2.8193,2.7498,2.7148,2.7129,2.6358,2.682,3.9008,3.9406,4.014,4.1259,4.251,4.4034,4.6154,4.6484,4.673,4.8101,4.8136,4.7594,4.643,4.6152,4.5873,0.0,4.5269,4.5423,4.5423,4.5423,4.5423,4.5423,4.5717,4.6234,4.6993,4.7458,4.7717,4.7717,4.7027,4.6734,4.7044,4.5924,4.5096,4.4768,4.4337,4.344,4.1992,4.1992,4.1612,4.0888,4.0888,4.0888,4.0871,4.0543,3.9733,3.8577,3.837,3.7887,3.7267,3.7525,3.7577,3.7456,3.7111,3.6991,3.6939,3.6473,3.6402,3.6347,3.5152,3.4535,3.4168,3.3526,3.2711,3.2037,3.2301,3.1364,3.0123,2.9864,2.9027,2.8182,2.8182,2.7272,2.6375,2.6522,2.5319,2.4153,2.4334,2.4042,2.3761,2.3761,2.3768,2.381,2.381,2.3813,2.3735,2.361,2.3646,2.3689,2.3795,2.3939,2.4284,2.494,2.5576,2.6151,2.6693,2.7313,2.747,2.702,2.7669,2.784,2.7369,2.7892,2.7959,2.7452,2.7474,2.7253,2.6747,2.6406,2.6244,2.6224,2.5867,2.6097,3.9974,4.0676,4.1293,4.2106,4.3999,4.5795,4.6232,4.6582,4.6968,4.7736,4.7718,4.7143,4.5666,4.5906,4.5906,4.4768,4.5061,4.5423,4.5423,4.5423,4.5423,4.5423,4.5423,4.5648,4.6234,4.6769,4.7079,4.7079,4.6579,4.6286,4.6286,4.5216,4.4406,4.3992,4.3508,4.2595,4.1371,4.1578,4.1302,4.056,4.0767,4.0767,4.0543,4.0129,3.9439,3.8594,3.8715,3.818,3.7284,3.7991,3.8094,3.7767,3.756,3.7396,3.7197,3.6609,3.6405,3.6226,3.5307,3.4623,3.4115,3.3868,3.3032,3.2197,3.2506,3.1526,3.0216,2.981,2.8994,2.8182,2.8182,2.7442,2.6726,2.6752,2.5619,2.4536,2.4604,2.418,2.3807,2.3807,2.3792,2.3795,2.3795,2.3816,2.3816,2.3816,2.3878,2.3919,2.3919,2.4192,2.4474,2.4771,2.5511,2.6003,2.6072,2.6665,2.6801,2.6227,2.6943,2.7122,2.6518,2.7143,2.7203,2.6587,2.6626,2.6325,2.5702,2.5696,2.5703,2.5703,2.5679,2.5679,3.8249,3.9181,4.0331,4.261,4.3784,4.4751,4.6234,4.5992,4.5682,4.6475,4.6027,4.5475,4.5441,4.5441,4.5441,4.5389,4.5406,4.5423,4.5423,4.5423,4.5423,4.5423,4.5423,4.5441,0.0,4.5492,4.5492,4.5492,4.5422,4.5458,4.5458,4.5406,4.4716,4.3301,4.3232,4.2078,3.9784,4.0526,4.0526,3.975,4.0509,4.0474,3.9681,3.8249,3.7956,3.8508,3.7042,3.7611,3.9491,3.8094,3.7922,3.8491,3.7767,3.717,3.6737,3.6702,3.6174,3.5427,3.4683,3.403,3.337,3.2475,3.2249,3.2318,3.2539,3.1526,3.0305,3.0434,2.9387,2.8182,2.8182,2.7058,2.5929,2.5929,2.4864,2.384,2.384,2.3828,2.3795,2.3795,2.3795,2.3795,2.3795,2.3837,2.3896,2.3896,2.4134,2.4266,2.4192,2.4524,2.4785,2.4809,2.5006,2.5163,2.5229,2.5329,2.5389,2.5437,2.5518,2.5624,2.5734,2.5757,2.5753,2.5737,2.5733,2.5722,2.5703,2.5705,2.569,2.571,2.5632,2.5601,3.906,4.0874,4.2852,4.4318,4.5094,4.5732,4.6408,4.6406,4.6286,4.6544,4.5561,4.4509,4.4027,4.3923,4.3768,4.3233,4.4423,4.5423,4.5423,4.5423,4.5423,4.5423,4.5423,0.0,0.0,0.0,0.0,4.5423,4.5423,4.5423,4.5423,4.4475,4.3699,4.3249,4.223,4.1267,4.0491,4.075,4.0491,3.9698,3.9755,3.9887,4.0079,3.9346,3.8766,3.8248,3.8231,3.7905,3.7473,3.8008,3.8165,3.8035,3.7793,3.7659,3.7539,3.664,3.5799,3.5111,3.5282,3.5269,3.517,3.4869,3.4076,3.3244,3.2897,3.1684,3.0226,2.9251,2.8629,2.8291,2.8291,2.7906,2.7446,2.6957,2.6069,2.5339,2.5384,2.4972,2.4592,2.4592,2.4614,2.4493,2.3967,2.3917,2.4057,2.4319,2.4321,2.4374,2.457,2.4723,2.4869,2.5057,2.5125,2.5184,2.5271,2.5331,2.5387,2.5467,2.5576,2.5652,2.5707,2.5697,2.5696,2.5694,2.5702,2.5682,2.5633,2.5629,2.5632,2.5632,2.5605,2.5601,4.0164,4.2072,4.392,4.5096,4.5459,4.5645,4.6046,4.5768,4.5389,4.5389,4.4354,4.3233,4.2492,4.2561,4.2578,4.2061,4.3475,4.4716,4.4975,4.501,4.5113,4.5389,4.5423,4.5423,0.0,0.0,0.0,4.5423,4.5423,4.5303,4.5027,4.4096,4.337,4.2817,4.1785,4.1009,4.0474,4.075,4.0629,4.0112,3.9486,3.9456,3.9876,3.927,3.8564,3.7888,3.8382,3.8006,3.7119,3.8111,3.8276,3.7923,3.7923,3.7872,3.7668,3.6514,3.5828,3.5439,3.5506,3.5473,3.5439,3.5651,3.4712,3.3413,3.3027,3.1612,2.9933,2.8933,2.8506,2.8327,2.8327,2.8164,2.79,2.7428,2.6712,2.6157,2.6181,2.581,2.547,2.547,2.5296,2.4972,2.4444,2.422,2.4247,2.4636,2.4867,2.4973,2.4953,2.5202,2.5317,2.521,2.5228,2.5243,2.5293,2.5414,2.5493,2.5535,2.5636,2.5697,2.5697,2.5696,2.5693,2.5703,2.5682,2.5633,2.5609,2.5605,2.5589,2.5609,2.56,2.5595,4.1336,4.2543,4.3526,4.5044,4.4854,4.4458,4.5147,4.4199,4.3197,4.3128,4.2423,4.1647,0.0,0.0,4.1992,4.2043,4.2785,4.3646,4.4302,4.4354,4.4613,0.0,0.0,0.0,0.0,0.0,0.0,4.5372,0.0,4.5113,4.4371,4.4251,4.3594,4.2144,4.2023,4.1246,3.979,4.0498,4.0879,4.0896,3.9748,3.9206,3.9153,3.8051,3.7542,3.7542,3.7542,3.784,3.8376,3.8359,3.8241,3.8081,3.8081,3.7778,3.719,3.6376,3.6167,3.6203,3.5261,3.4603,3.4242,3.4818,3.4052,3.2898,3.2827,3.1231,2.9482,2.9474,2.8945,2.8424,2.8424,2.79,2.7355,2.7301,2.6772,2.6276,2.6276,2.6327,2.6372,2.6372,2.5779,2.5275,2.5239,2.48,2.4584,2.4974,2.5772,2.6066,2.5294,2.5918,2.6101,2.5283,2.5254,2.5292,2.5318,2.5486,2.5591,2.5591,2.5652,2.569,2.5693,2.5694,2.5703,2.5682,2.5631,2.5606,2.5598,2.5595,2.5605,2.5605,2.5593,2.5601,4.0836,4.2147,4.3526,4.5044,4.4854,4.4182,4.382,4.344,4.2886,4.1698,4.0836,4.0215,4.0026,0.0,0.0,4.2768,4.4475,0.0,4.5992,4.551,0.0,4.5406,0.0,4.5423,4.5423,4.5423,0.0,0.0,4.5096,4.5337,4.5147,4.4061,4.345,4.3336,4.2219,4.1314,4.0654,4.0341,4.043,4.0978,3.9795,3.9229,3.9193,3.864,3.8219,3.7948,3.7998,3.7916,3.7791,3.7864,3.7864,3.7807,3.7807,3.7664,3.7343,3.5954,3.5438,3.54,3.4583,3.4599,3.4954,3.5099,3.4169,3.2764,3.1619,3.0449,2.9457,2.8865,2.8594,2.8466,2.8466,2.8373,2.8135,2.7519,2.7278,2.7162,2.7162,2.7209,2.7273,2.7273,2.6796,2.6224,2.5671,2.6195,2.673,2.6821,2.7662,2.7541,2.5474,2.5945,2.6159,2.5297,2.5265,2.5335,2.5444,2.5549,2.5624,2.5675,2.569,2.5705,2.5698,2.5702,2.5681,2.5626,2.5616,2.5593,2.5604,2.5599,2.5593,2.5593,2.5607,2.5577,4.0173,4.125,4.244,4.363,4.3354,4.2768,4.2664,4.2406,4.1819,4.0612,4.0008,3.9491,3.8836,4.0446,4.1898,0.0,0.0,0.0,4.6044,4.5699,4.5423,0.0,4.5423,0.0,4.4958,4.4923,4.4751,0.0,4.4992,4.513,4.4475,4.3813,4.3398,4.3331,4.2009,4.102,4.0481,4.0053,4.0053,4.0463,3.9644,3.9226,3.9189,3.8894,3.864,3.8415,0.0,3.8328,3.8047,3.8096,3.8047,3.8018,3.8018,3.7915,3.7595,3.5964,3.5305,3.5096,3.4398,3.3934,3.3809,3.4523,3.3484,3.1846,3.0998,2.9978,2.9008,2.8558,2.8484,2.8543,2.8543,2.8587,2.8511,2.8082,2.8021,2.8093,2.8173,2.8192,2.81,2.7871,2.7657,2.7287,2.6615,2.7047,2.7532,2.7624,2.8434,2.8391,2.661,2.6802,2.6659,2.5418,2.5368,2.5454,2.5535,2.5609,2.5662,2.5698,2.5701,2.5693,2.5703,2.5663,2.5631,2.5601,2.56,2.5595,2.5601,2.5601,2.5601,2.5601,2.5577,2.555,3.9375,3.9967,4.0784,4.163,4.144,4.1147,4.1595,4.1267,4.0612,3.9612,3.9405,3.9008,3.7732,3.9617,4.1383,4.144,0.0,4.5303,4.5736,4.5771,4.5667,4.5441,4.5372,4.5044,4.4337,4.4182,4.413,4.413,4.4837,4.4699,4.3439,4.355,4.336,4.2767,4.1617,4.0709,4.0137,3.9922,3.9833,3.9815,3.9481,3.924,3.9148,3.8915,3.8822,3.8822,3.8862,3.8815,3.8646,3.8646,3.8585,3.8446,3.8446,3.8285,3.7853,3.6212,3.5472,3.5164,3.4354,3.3082,3.2061,3.344,3.2384,3.0568,3.0528,2.9575,2.8518,2.8518,2.8562,2.8612,2.8612,2.8662,2.8694,2.8694,2.8767,2.891,2.9082,2.9056,2.8839,2.8258,2.8387,2.842,2.7785,2.7782,2.7931,2.8095,2.8775,2.8967,2.8183,2.8068,2.7489,2.5928,2.5762,2.5769,2.5777,2.5732,2.5707,2.5707,2.5709,2.5698,2.5683,2.5636,2.5593,2.5593,2.5604,2.5595,2.5595,2.5595,2.557,2.5564,2.549,2.5453,3.8368,3.8734,3.921,4.0716,4.144,4.1492,4.0353,4.0491,0.0,3.8284,3.787,3.7784,3.7542,3.8891,4.0978,4.388,4.5286,4.6463,4.7786,4.7752,4.7051,0.0,4.5212,4.4876,4.4337,4.3767,0.0,0.0,4.4044,4.4371,4.4096,4.3341,4.2864,4.2868,4.1705,4.1332,4.1844,4.0547,3.9904,3.9951,3.9887,3.9528,3.8958,3.8888,3.8862,3.8881,3.895,0.0,3.895,3.8989,3.8902,3.8713,3.8713,3.8559,3.8118,3.6409,3.5734,3.5471,3.3836,3.2691,3.202,3.2277,3.1258,2.9764,2.9097,2.8753,2.8587,2.8587,2.8587,2.8612,2.8687,2.8694,2.8718,2.8761,2.8962,2.9144,2.9188,2.9339,2.927,2.8568,2.9131,2.9467,2.8708,2.927,2.9838,2.985,3.0028,2.9886,2.9071,2.8964,2.8631,2.7725,2.705,2.6677,2.6677,2.6083,2.5707,2.5707,2.5699,2.5683,2.5615,2.5609,2.5593,2.5599,2.5595,2.5602,2.5602,2.5551,2.5452,2.5343,2.5335,2.5245,3.7007,3.7141,3.7634,3.921,3.991,4.0026,3.9301,0.0,0.0,3.7267,3.7198,3.7353,3.6939,3.8625,4.0742,4.2596,4.4261,4.5782,4.7114,4.7364,4.6879,4.5364,4.5075,4.4598,0.0,4.2898,4.2864,4.3471,4.3244,4.3268,4.3682,4.2893,4.2257,4.1958,4.0994,4.0483,4.0478,3.9706,3.9381,3.9441,3.9441,3.925,3.891,3.8939,3.895,3.8968,3.9036,0.0,3.9045,3.9073,3.9045,3.896,3.9045,3.8931,3.8493,3.674,3.5987,3.5654,3.3815,3.2421,3.1513,3.1957,3.1,2.9557,2.8771,2.8587,2.8612,2.8637,2.8644,2.8694,2.885,2.8845,2.8845,2.9123,2.9378,2.9551,2.9476,2.9731,2.9829,2.938,2.9746,3.0048,2.9685,3.0028,3.0364,3.0394,3.046,3.0211,2.9404,2.9337,2.9038,2.8233,2.7027,2.6462,2.6913,2.6179,2.5698,2.5702,2.5703,2.5676,2.5597,2.5598,2.5581,2.5557,2.5551,2.5544,2.5544,2.5518,2.5437,2.529,2.5254,2.5165,3.6117,3.6232,3.6886,3.7944,3.8532,3.8732,3.8422,3.8474,3.8146,3.6611,3.6801,3.7042,3.6422,3.8233,4.0115,0.0,4.281,4.4707,4.6394,4.7002,4.6774,0.0,4.5364,0.0,4.3215,4.2382,0.0,4.3734,4.2619,4.2272,4.3179,4.252,4.1893,4.1405,4.0611,3.9816,3.908,3.8895,3.8851,3.8939,3.8939,3.8921,3.895,3.9007,3.9007,3.9036,3.9073,0.0,3.9137,3.9137,3.9156,3.9192,3.9298,3.9245,3.8878,3.7099,3.6288,3.5857,3.4095,3.2508,3.131,3.1865,3.0885,2.9385,2.8985,2.8764,2.8694,2.8694,2.8773,2.8897,2.9082,2.9079,2.9144,2.9533,2.9782,2.9912,2.9848,3.0085,3.026,3.0117,3.0216,3.034,3.0417,3.043,3.0471,3.051,3.0576,3.0307,2.9516,2.9468,2.924,2.8564,2.6981,2.6248,2.6913,2.619,2.5684,2.5677,2.5673,2.5654,2.5591,2.5595,2.5549,2.5499,2.5492,2.5505,2.5505,2.5471,2.5398,2.5264,2.5175,2.5065,3.6473,3.7072,3.7934,3.7671,3.8594,3.925,3.7887,3.8112,3.8146,3.6611,3.6353,3.6387,3.6318,3.7102,3.8634,0.0,0.0,4.4147,4.7533,4.8415,4.8215,4.689,0.0,0.0,4.4482,4.2653,4.2209,4.3792,4.2454,4.2079,4.3241,4.2578,4.2201,4.2279,4.1484,4.0738,4.0,3.9261,3.8921,3.8979,3.8979,3.9036,3.9073,3.9073,3.9101,3.9101,3.9101,0.0,0.0,3.9272,3.935,3.9458,3.9477,3.9458,3.9246,3.7493,3.6675,3.6241,3.4673,3.3357,3.2279,3.174,3.0264,2.8822,2.9481,2.9338,2.8925,2.8749,2.9016,2.9299,2.923,2.9357,2.9607,2.9899,2.9977,3.0037,3.0209,3.026,3.0316,3.0364,3.0375,3.0417,3.0469,3.054,3.0574,3.0593,3.0605,3.0325,2.9593,2.9494,2.9491,2.9468,2.7925,2.6893,2.6912,2.617,2.5677,2.5618,2.5605,2.5619,2.561,2.5537,2.5506,2.5499,2.549,2.5503,2.5503,2.5387,2.5264,2.5118,2.4987,2.4861,3.7365,3.7815,3.8385,3.8711,3.8894,3.887,3.8284,3.8043,3.7611,3.6525,3.6301,3.6301,3.6301,3.6956,3.8009,0.0,0.0,0.0,4.4554,4.5301,4.5545,4.5507,4.543,0.0,0.0,0.0,4.1977,4.2076,4.2061,4.2149,4.2325,4.1139,4.0617,4.0951,4.0204,3.9674,3.9431,3.9116,3.8979,3.9045,3.9045,3.9073,3.9101,3.9101,3.9101,3.9101,3.921,3.9245,0.0,3.9401,3.9433,3.9526,3.9599,3.9322,3.8733,3.7455,3.6611,3.5941,3.4647,3.3626,3.2911,3.3101,3.2015,3.0438,2.9609,2.9228,2.906,2.9012,2.9254,2.9495,2.9457,2.9731,3.0011,3.0003,3.0109,3.0254,3.034,3.0394,3.0436,3.0458,3.0469,3.0471,3.0548,3.0582,3.061,3.0646,3.0682,3.0427,2.9606,2.904,2.8729,2.8758,2.767,2.7145,2.7648,2.6425,2.56,2.5537,2.5537,2.5543,2.5544,2.5517,2.5495,2.5495,2.5412,2.5378,2.5378,2.5253,2.5084,2.4917,2.4864,2.4775,3.7906,3.8477,3.9181,3.9554,3.9273,3.887,3.8646,3.8025,3.7267,3.6473,3.6301,3.637,3.6611,3.7284,3.806,0.0,0.0,4.1138,4.2843,4.3368,4.3825,4.4525,0.0,4.4677,0.0,4.3408,4.197,4.093,4.1261,4.1469,4.1229,3.9966,3.9456,4.005,3.9557,3.919,3.9036,3.9036,3.9045,3.9101,3.9101,3.9129,3.9156,3.9156,3.9165,3.9219,3.9324,3.9401,0.0,3.9263,3.9242,3.9246,3.9075,3.8685,3.808,3.7147,3.6406,3.5725,3.4508,3.3695,3.3208,3.332,3.2593,3.1372,2.983,2.9527,2.9636,2.9392,2.9514,2.9713,2.9777,3.0066,3.0286,3.0144,3.0292,3.0425,3.0428,3.0469,3.0509,3.049,3.052,3.0539,3.0583,3.0633,3.0681,3.0712,3.0782,3.0504,2.9609,2.9171,2.8831,2.8552,2.7757,2.7374,2.7725,2.6411,2.5546,2.546,2.5479,2.5444,2.5415,2.5415,2.5397,2.5351,2.5253,2.5212,2.5212,2.508,2.4949,2.4795,2.4771,2.462,3.7861,3.9055,4.0539,3.9841,3.9681,3.9491,3.8767,3.8025,3.7267,3.6473,3.6301,3.6542,3.7318,3.8077,3.8819,3.956,0.0,0.0,4.3669,4.399,4.4155,0.0,0.0,4.4462,4.4129,4.3429,4.2359,4.083,3.9956,0.0,4.0099,3.9412,3.9367,4.0163,4.0182,3.9833,3.912,3.9101,3.9101,3.9101,3.9101,3.9183,3.9298,3.9298,3.9376,3.9502,3.9502,3.9556,0.0,3.8844,3.859,3.8603,3.775,3.7469,3.7413,3.6597,3.6139,3.5716,3.4299,3.3619,3.3147,3.1634,3.1118,3.0964,3.0209,3.05,3.0873,2.9867,2.9796,3.0037,3.0235,3.0348,3.039,3.0406,3.0458,3.0499,3.0499,3.0499,3.0509,3.0491,3.0557,3.0591,3.0607,3.0708,3.0792,3.0796,3.0859,3.0558,2.9611,3.0193,3.0314,2.9394,2.8501,2.7644,2.6784,2.5977,2.5464,2.5415,2.5395,2.5351,2.5222,2.5192,2.5138,2.5006,2.5006,2.5006,2.5006,2.4874,2.4804,2.4804,2.4657,2.4356,3.8098,3.8677,3.9204,3.9008,3.856,3.8129,3.7887,3.7232,3.6611,3.6353,3.6732,3.718,3.7439,3.8491,3.9422,3.9664,4.0371,0.0,0.0,0.0,0.0,4.4635,4.5809,4.581,0.0,0.0,4.2474,3.9669,3.9866,3.99,3.9375,3.9165,3.9175,3.9378,3.9406,3.9333,3.9101,3.9101,3.9101,3.9101,3.9192,3.9272,3.9298,3.9383,3.9477,0.0,3.9016,3.8841,0.0,3.8064,3.7807,3.7849,3.7583,3.7147,3.6653,3.6406,3.5931,3.5266,3.4232,3.3849,3.3639,3.2603,3.2271,3.211,3.1345,3.0729,3.03,3.0138,3.0075,3.0122,3.0328,3.0406,3.0477,3.0469,3.049,3.05,3.05,3.055,3.0557,3.0568,3.0626,3.0686,3.0726,3.0769,3.078,3.0732,3.074,3.0645,3.0297,2.9901,2.9783,3.0078,2.8259,2.7179,2.7559,2.6262,2.5421,2.5395,2.5303,2.5253,2.5192,2.5115,2.5043,2.5006,2.4915,2.4861,2.4861,2.4591,2.4355,2.4192,2.4079,2.3878,3.7823,3.8326,3.8594,3.8594,3.8043,3.7491,3.7491,3.687,3.6343,3.6444,3.6842,3.7361,3.7932,3.878,3.9548,4.0043,4.056,4.1069,0.0,0.0,0.0,4.4271,0.0,0.0,0.0,4.2567,4.1526,3.9145,3.9546,3.9649,3.9054,3.9073,3.9101,3.9101,3.9101,3.911,3.9165,3.9183,3.9192,3.9245,3.935,3.9383,3.9433,3.9551,3.943,3.9157,3.8757,3.8404,0.0,3.7296,3.7014,3.7015,3.6692,3.6292,3.5872,3.5872,3.541,3.4639,3.378,3.3505,3.3355,3.222,3.1878,3.1815,3.1321,3.0702,3.0182,3.0297,3.0304,3.0273,3.0406,3.0479,3.05,3.052,3.054,3.053,3.0582,3.0599,3.0637,3.0631,3.0682,3.0755,3.0795,3.0781,3.0751,3.0712,3.0662,3.0606,3.0525,3.0014,2.9825,3.026,2.8295,2.714,2.7659,2.6217,2.5284,2.5284,2.516,2.5068,2.5019,2.4929,2.4861,2.4804,2.4636,2.4522,2.4505,2.4192,2.3959,2.3795,2.3667,2.3513,0.0,3.7905,3.8422,3.8422,3.7905,3.7404,3.7404,3.6835,0.0,3.6602,3.6737,3.7224,3.8625,3.8981,3.9415,4.0723,4.0918,4.1377,0.0,4.297,0.0,0.0,4.3504,0.0,4.0982,4.0462,3.9907,3.9157,3.9101,3.9101,3.9129,3.9129,3.9183,3.9324,3.9192,3.9192,3.9324,3.9324,3.9338,3.9408,3.9432,3.9443,3.9505,3.9528,3.9199,0.0,3.8548,3.8114,0.0,3.654,3.6216,3.6139,3.5397,3.5147,3.5181,3.5124,3.4677,3.3957,3.3053,3.2757,3.2516,3.0861,3.0352,3.0428,3.0479,3.0458,3.0417,3.0417,3.0439,3.0509,3.0509,3.051,3.0521,3.0595,3.0602,3.0622,3.0689,3.0697,3.0716,3.0716,3.0752,3.0806,3.0781,3.074,3.0697,3.0675,3.0567,3.0479,3.0402,3.0381,3.0251,2.9961,2.8451,2.7371,2.7145,2.5874,2.5072,2.5072,2.4949,2.4804,2.4673,2.466,2.458,2.4429,2.4173,2.402,2.3943,2.3696,2.3584,2.3562,2.3353,2.3253,3.6525,0.0,3.6835,3.6835,3.6715,3.6577,0.0,3.6439,3.6301,3.6402,3.7012,3.785,3.879,3.9547,4.0289,4.1007,4.1318,4.155,4.1956,4.3755,0.0,4.548,4.5084,4.3818,4.1356,4.0651,3.9983,3.9157,3.9101,3.9137,3.9245,3.9245,3.9324,3.9452,3.9408,3.9427,3.9433,3.9433,3.9158,3.8582,3.8677,3.8407,3.7788,3.7875,3.7883,3.7754,3.7128,3.6768,3.652,3.5702,3.5415,3.5431,3.524,3.5198,3.5136,3.4518,3.4572,3.4699,3.2623,3.2305,3.2609,3.091,3.0417,3.0469,3.0499,3.0499,3.0469,3.0469,3.049,3.052,3.0559,3.0586,3.0593,3.0661,3.0691,3.0684,3.0706,3.0739,3.0788,3.0772,3.0781,3.0775,3.0719,3.0677,3.0587,3.049,3.0443,3.0402,3.0336,3.0196,2.9832,2.9146,2.8002,2.7006,2.6333,2.5414,2.4855,2.4855,2.4712,2.4503,2.4317,2.4229,2.4058,2.3819,2.3738,2.3631,2.345,2.3399,2.3277,2.306,2.3028,2.2816,3.5283,3.5783,3.6301,3.6301,3.6301,3.6215,3.587,3.5883,3.5965,3.6052,3.6561,3.7492,3.8982,3.977,4.0512,4.1429,4.1839,0.0,0.0,0.0,4.5499,4.4996,4.4391,4.3161,0.0,4.0214,3.963,3.9229,3.9192,3.9245,3.9383,3.9401,3.9264,3.9053,3.9034,3.9034,3.9034,3.9034,3.8644,3.7879,3.7945,3.7761,3.7329,3.7411,3.7261,3.6939,3.6502,3.5874,3.5166,3.4727,3.4361,3.4085,3.4085,3.4346,3.4604,3.3757,3.3772,3.3954,3.2198,3.1693,3.1646,3.0747,3.046,3.05,3.054,3.055,3.055,3.054,3.055,3.0558,3.0629,3.0653,3.0656,3.0697,3.0711,3.07,3.074,3.0772,3.0799,3.0793,3.074,3.0696,3.0661,3.0579,3.0481,3.0422,3.0344,3.0267,3.0138,3.003,2.9731,2.911,2.7841,2.6854,2.6319,2.5093,2.4386,2.4519,2.4353,2.4174,2.3926,2.386,2.3692,2.3468,2.341,2.3271,2.306,2.2875,2.2721,2.2581,2.2463,2.244,3.4231,3.5249,3.6266,3.6163,3.6215,3.6111,3.537,0.0,0.0,0.0,0.0,3.6836,3.9213,3.9857,0.0,0.0,0.0,0.0,4.4338,4.5112,4.5059,4.3763,4.2802,0.0,4.0288,3.9528,3.9183,3.9298,3.9324,3.9401,3.9508,3.9419,3.911,3.8546,3.8395,3.8285,3.8172,3.8285,3.7969,3.724,3.7107,3.7014,3.6939,3.6806,3.6388,3.574,0.0,0.0,3.392,3.392,3.3547,3.2977,3.2843,3.3255,3.3801,3.2933,3.2735,3.2775,3.191,3.113,3.049,3.052,3.0511,3.053,3.0593,3.0618,3.0618,3.0629,3.0629,3.0626,3.069,3.0691,3.0703,3.07,3.0723,3.0726,3.0796,3.0795,3.0792,3.0774,3.0677,3.0578,3.0561,3.0482,3.0375,3.0364,3.0132,2.9923,2.9731,2.9553,2.9248,2.8795,2.7472,2.6483,2.6185,2.4678,2.3821,2.4024,2.3961,2.3795,2.354,2.3477,2.3382,2.3206,2.3056,2.2883,2.2721,2.2337,2.2136,2.2153,2.1999,2.2217,3.4852,3.5645,3.6146,3.5525,3.5835,3.6111,3.537,0.0,0.0,0.0,0.0,0.0,0.0,3.9973,4.0453,0.0,0.0,4.4485,0.0,0.0,4.492,4.3756,0.0,4.1007,3.9232,3.9175,3.9272,3.9298,3.9401,3.9526,3.967,3.9029,3.8663,3.8677,3.7957,3.7277,3.6634,3.7298,3.7261,3.6464,3.5779,3.5075,3.4333,3.3667,3.3285,3.322,0.0,3.4168,3.3987,3.3983,3.3922,3.3746,3.3063,3.2867,3.29,3.2084,3.2263,3.2776,3.1958,3.1155,3.052,3.0568,3.0576,3.0602,3.0668,3.0683,3.069,3.0678,3.0685,3.069,3.0704,3.0701,3.0707,3.0762,3.0781,3.0788,3.0799,3.0801,3.0774,3.0645,3.0607,3.0548,3.0452,3.0356,3.0292,3.024,2.9484,2.8924,2.8894,2.799,2.7084,2.6321,2.5678,2.5008,2.4293,2.3754,2.341,2.3283,2.3427,2.3405,2.3199,2.2977,2.2825,2.2773,2.2483,2.233,2.2275,2.1998,2.1869,2.1886,2.241,2.2554,3.3266,3.4214,3.5169,3.5359,3.6284,3.6797,3.5619,0.0,0.0,0.0,0.0,0.0,0.0,0.0,4.1796,4.4218,0.0,4.4125,4.5162,4.3873,4.2515,0.0,0.0,4.0362,3.9185,3.9272,3.9452,3.9508,3.9161,3.9029,3.9142,3.8369,3.7728,3.7353,3.7013,3.6217,3.4963,3.536,3.5359,3.4943,3.4561,3.3968,3.3146,3.2768,3.2629,3.268,0.0,3.3066,3.2641,3.269,3.2431,3.1979,3.1636,3.1796,3.2167,3.178,3.1642,3.1557,3.1174,3.0839,3.0558,3.0585,3.0618,3.0649,3.0691,3.0698,3.0716,3.0743,3.0735,3.0716,3.0743,3.0752,3.0751,3.0781,3.081,3.0788,3.0759,3.072,3.0672,3.061,3.0509,3.0422,3.0364,3.0279,3.0194,3.0064,2.963,2.9117,2.846,2.7886,2.7136,2.6064,2.5397,2.4802,2.4347,2.3649,2.3206,2.3119,2.306,2.2968,2.2893,2.2598,2.2624,2.3022,2.2673,2.2709,2.3045,2.2799,2.2655,2.2671,2.2782,2.2967,3.2007,3.3059,3.4271,3.5057,0.0,0.0,0.0,0.0,0.0,0.0,0.0,0.0,0.0,4.1177,0.0,4.5057,4.4398,4.3612,4.3712,4.2147,4.0813,4.0436,4.0148,3.9807,3.938,3.9477,3.9505,3.9429,3.8867,3.8499,3.8395,3.739,3.6557,3.5932,3.559,3.4811,3.3536,3.3565,3.3563,3.353,3.3339,3.2953,3.234,3.2126,3.2065,3.2134,3.2388,3.2149,3.1536,3.1583,3.12,3.0585,3.0448,3.0829,3.1422,3.1414,3.1051,3.0521,3.0521,3.0567,3.0626,3.0614,3.0671,3.071,3.0709,3.0716,3.0724,3.0784,3.0752,3.0712,3.0753,3.0779,3.0781,3.0777,3.0778,3.0759,3.0691,3.0637,3.0591,3.054,3.0409,3.0304,3.0279,3.0194,3.0083,2.9921,2.9652,2.9155,2.8219,2.7672,2.7061,2.6268,2.5208,2.4449,2.4229,2.3385,2.2833,2.2833,2.2677,2.2588,2.2588,2.2281,2.2449,2.3164,2.2857,2.3014,2.3653,2.3395,2.3272,2.3237,2.3163,2.3417,3.2628,3.3438,3.4111,3.4185,3.4806,0.0,3.7591,3.7137,0.0,3.7399,0.0,0.0,0.0,4.0951,4.2081,4.2298,4.302,4.3712,4.4091,0.0,4.1736,4.1844,4.0483,3.9533,3.9502,3.9623,3.9373,3.8637,3.8653,3.8338,3.7542,3.595,3.5078,3.5096,3.3577,3.2756,3.2689,3.2686,3.2686,3.2686,3.1989,3.1641,3.156,3.0748,3.0379,3.0437,3.132,3.1659,3.1583,3.1603,3.1565,3.1429,3.0683,3.0488,3.0588,3.0588,3.0598,3.0593,3.0593,3.0634,3.069,3.0685,3.0706,3.0715,3.0778,3.0799,3.078,3.0797,3.0742,3.0702,3.07,3.0704,3.0712,3.0708,3.07,3.069,3.0629,3.0604,3.054,3.0364,3.0316,3.0279,3.0213,3.0049,2.9924,2.9888,2.8951,2.82,2.8124,2.6429,2.5466,2.6144,2.4415,2.3115,2.2798,2.2343,2.2068,2.2068,2.2181,2.2237,2.2237,2.1969,2.2159,2.2826,2.2508,2.2652,2.3224,2.3044,2.2864,2.2755,2.349,2.386,3.2145,3.3242,3.4272,3.4293,3.4927,0.0,0.0,3.7667,3.7781,3.849,3.9028,0.0,0.0,0.0,4.2613,4.2926,4.2691,4.2523,4.2687,4.0921,3.9633,3.9683,3.8747,3.8079,3.8079,3.8191,3.8142,3.7839,3.7449,3.6843,3.5951,3.4831,3.3994,3.3517,3.2887,3.233,3.1848,3.1909,3.1637,3.1102,3.1331,3.1193,3.0672,3.036,3.0221,3.0286,3.0631,3.081,3.0842,3.084,3.0876,3.089,3.0576,3.051,3.0569,3.0558,3.0585,3.061,3.0661,3.0678,3.0691,3.07,3.0732,3.0754,3.0739,3.0742,3.0739,3.0749,3.0718,3.0693,3.0693,3.07,3.0696,3.0695,3.0671,3.0629,3.0604,3.0511,3.0398,3.0297,3.0273,3.0194,3.0034,2.9956,2.9822,2.9551,2.9134,2.8621,2.7994,2.7082,2.6351,2.5985,2.4901,2.4126,2.3927,2.3553,2.3123,2.2718,2.2501,2.2377,2.2377,2.2492,2.2912,2.3659,2.3303,2.3465,2.4214,2.4044,2.3983,2.4021,2.4343,2.4493,3.2256,3.3092,3.4112,3.4414,0.0,0.0,3.7238,3.7962,3.8532,3.9286,3.9465,3.9625,4.0079,0.0,0.0,0.0,4.133,4.0875,4.0413,3.8976,3.7976,3.8022,3.7562,3.7246,3.7246,3.7349,3.7316,3.7069,3.6331,3.5514,3.4659,3.361,3.2771,3.2238,3.1962,3.1573,3.1035,3.1087,3.0828,3.0253,3.08,3.0762,3.0234,3.0228,3.0273,3.0318,3.0316,3.0371,3.0433,3.0417,3.0469,3.05,3.052,3.055,3.0606,3.0599,3.061,3.0639,3.0703,3.073,3.0729,3.0726,3.0759,3.08,3.0757,3.073,3.0696,3.0708,3.0677,3.0675,3.0675,3.0675,3.0664,3.0664,3.0593,3.054,3.0511,3.0398,3.0292,3.0267,3.018,3.0049,2.9905,2.9769,2.9589,2.9275,2.9086,2.8746,2.8054,2.7428,2.6631,2.5579,2.5265,2.5009,2.4709,2.4191,2.367,2.3222,2.293,2.2631,2.2345,2.27,2.3238,2.3994,2.3739,2.3959,2.4701,2.4645,2.4645,2.4701,2.4742,2.4766,3.3186,3.3186,3.3452,3.4442,0.0,0.0,3.7386,3.8096,3.8431,3.9656,3.9103,3.8496,3.8743,3.9232,0.0,3.7923,3.8598,3.8814,3.7404,3.7203,3.7246,3.7371,3.7371,3.7371,3.7371,3.7371,3.7069,3.6331,3.5476,3.464,3.3836,3.2203,3.1324,3.139,3.0629,3.0199,3.0188,3.0266,3.0292,3.0292,3.0292,3.0292,3.0292,3.0292,3.0336,3.041,3.0406,3.0439,3.0499,3.0509,3.05,3.052,3.0569,3.0606,3.0599,3.06,3.0637,3.0708,3.0774,3.081,3.0798,3.0801,3.0798,3.081,3.081,3.0755,3.0709,3.0697,3.0646,3.0595,3.0595,3.0595,3.0595,3.0595,3.0501,3.0381,3.0309,3.0304,3.0279,3.0213,3.0034,2.9888,2.9801,2.9456,2.9169,2.9086,2.8652,2.8298,2.8298,2.7151,2.5917,2.4838,2.5295,2.5416,2.4686,2.3869,2.343,2.3414,2.3324,2.2901,2.2059,2.2389,2.2923,2.36,2.3616,2.388,2.4498,2.4564,2.4564,2.4498,2.4564,2.4589,3.2239,3.2786,3.3475,3.363,0.0,0.0,0.0,3.7514,0.0,0.0,3.9265,3.8743,3.8921,3.9202,0.0,3.884,3.874,3.8583,3.8184,3.7173,3.6498,3.6557,3.6007,3.5666,3.5723,3.5704,3.5647,3.5474,3.4691,3.3851,3.2994,3.1989,3.1159,3.0581,3.0374,3.0266,3.0266,3.0286,3.0292,3.0292,3.0359,3.0348,3.0292,3.0355,3.0371,3.0406,3.0458,3.0479,3.0491,3.0549,3.0567,3.0585,3.0651,3.0665,3.0678,3.072,3.0742,3.0777,3.0796,3.0801,3.0796,3.074,3.0735,3.0726,3.0725,3.0716,3.0685,3.0637,3.0618,3.0586,3.0472,3.0422,3.0409,3.0452,3.04,3.0321,3.0297,3.0254,3.0166,2.995,2.9869,2.9732,2.9378,2.9214,2.8997,2.8603,2.8402,2.8166,2.7718,2.7337,2.6857,2.6311,2.6152,2.6,2.5697,2.4908,2.4233,2.3777,2.3888,2.369,2.2932,2.3467,2.3931,2.4228,2.4132,2.424,2.4498,2.4441,2.4441,2.4498,2.4539,2.4385,3.2817,3.3455,3.4127,3.4779,3.6042,3.7184,3.7228,0.0,0.0,0.0,3.9195,3.8862,3.9101,3.8858,0.0,3.844,3.7901,3.7414,3.7116,3.627,3.5685,3.5685,3.523,3.4945,3.5001,3.502,3.5075,3.5129,3.4058,3.316,3.268,3.1594,3.0737,3.0226,3.026,3.0299,3.0299,3.0323,3.0348,3.034,3.0375,3.0386,3.0383,3.0414,3.0436,3.0449,3.05,3.053,3.0546,3.0587,3.0625,3.0646,3.0677,3.0715,3.0747,3.0782,3.0795,3.08,3.0798,3.0806,3.0785,3.0715,3.0706,3.0691,3.0676,3.0661,3.0645,3.0558,3.0492,3.0462,3.0389,3.0297,3.0279,3.0337,3.0297,3.0228,3.0122,3.0071,2.995,2.9696,2.9588,2.9418,2.9107,2.8865,2.8628,2.8272,2.8029,2.7689,2.7178,2.7115,2.6987,2.664,2.6383,2.612,2.5872,2.5275,2.4729,2.4302,2.43,2.4117,2.3717,2.4087,2.4359,2.44,2.4359,2.4359,2.44,2.4135,2.4051,2.4151,2.4182,2.4071,3.4263,3.4547,3.5063,3.6968,3.7024,0.0,3.8227,3.8676,3.8815,3.8924,0.0,3.882,3.904,3.8308,3.7545,3.7269,3.6543,3.5773,3.5097,3.4946,3.4908,3.4908,3.4983,3.5001,3.502,3.5075,3.5108,3.5086,3.356,3.2603,3.2611,3.1073,3.0202,3.0202,3.0279,3.0316,3.0316,3.0379,3.0402,3.0417,3.0398,3.0439,3.0509,3.0509,3.05,3.0511,3.0559,3.0599,3.0607,3.0633,3.0653,3.0703,3.0707,3.0757,3.0808,3.0799,3.08,3.0806,3.0785,3.0798,3.0774,3.0703,3.0691,3.0678,3.0602,3.0586,3.0558,3.0432,3.0356,3.0304,3.0292,3.0234,3.0199,3.0254,3.0221,3.0094,2.9851,2.9784,2.9696,2.9418,2.9196,2.902,2.8929,2.8478,2.8129,2.8047,2.7517,2.7053,2.6725,2.6657,2.6505,2.6139,2.6016,2.5835,2.5465,2.5098,2.4823,2.4823,2.4492,2.4302,2.4302,2.4302,2.4302,2.4302,2.4261,2.4219,2.4219,2.3842,2.3641,2.3612,2.3814,2.3887,3.3052,3.3522,3.4145,3.5804,3.6952,3.7964,3.9013,3.903,3.8619,3.7966,3.8053,3.81,3.7647,3.7437,3.7322,3.7348,3.6668,3.6101,3.5931,3.5382,3.4983,3.4983,3.5057,3.5092,3.5147,3.5164,3.4931,3.4308,3.333,3.2484,3.1862,3.0848,3.0279,3.0279,3.0336,3.039,3.0375,3.0386,3.0417,3.0469,3.0471,3.0481,3.051,3.051,3.053,3.0583,3.0598,3.0633,3.0691,3.0735,3.0768,3.078,3.0779,3.0781,3.0801,3.0808,3.0794,3.0781,3.074,3.0714,3.0703,3.0642,3.0618,3.0602,3.0482,3.0433,3.0432,3.0344,3.0309,3.0292,3.024,3.0094,2.9953,2.9915,2.9934,2.9937,2.9817,2.9678,2.9476,2.9151,2.8851,2.8555,2.8332,2.802,2.7713,2.7444,2.7068,2.6791,2.6725,2.6419,2.621,2.6104,2.554,2.5121,2.5059,2.4639,2.4426,2.4426,2.4343,2.4302,2.4302,2.4302,2.4302,2.4302,2.3952,2.3739,2.3739,2.3747,2.3768,2.3783,2.4264,2.4261,3.2921,3.3612,3.4516,3.6381,0.0,3.8086,3.8446,3.837,3.7864,3.6777,3.7363,3.7885,3.7207,3.6832,3.6659,3.6802,3.6121,3.5438,3.5059,3.4661,3.4261,3.3843,3.3857,3.408,3.4533,3.4604,3.4614,3.4626,3.3489,3.2623,3.2196,3.097,3.0316,3.0348,3.0371,3.0425,3.0458,3.0458,3.0469,3.05,3.052,3.0563,3.0579,3.056,3.0579,3.0647,3.0653,3.0685,3.074,3.079,3.0797,3.0801,3.0797,3.079,3.0804,3.0807,3.0786,3.074,3.0685,3.0651,3.0649,3.0539,3.0511,3.0492,3.0389,3.0337,3.0344,3.0267,3.0188,3.0085,3.0064,2.9869,2.9697,2.9661,2.9697,2.9662,2.9457,2.9319,2.9132,2.8652,2.8417,2.8218,2.7936,2.7654,2.7338,2.7021,2.6641,2.6385,2.6385,2.6052,2.5726,2.554,2.516,2.4823,2.4639,2.4426,2.4302,2.4302,2.4302,2.4302,2.4302,2.4302,2.4177,2.3952,2.3508,2.3393,2.3703,2.3533,2.3626,2.3877,2.423,2.4267,3.2948,3.4092,3.5366,3.7271,3.7841,0.0,3.7479,3.7415,3.7061,3.5666,3.6614,3.748,3.6794,3.6196,3.5849,3.5949,3.5363,3.4624,3.3827,3.3768,3.3481,3.2626,3.2711,3.3064,3.3653,3.3888,3.4182,3.4638,3.3384,3.2516,3.2396,3.1072,3.0328,3.039,3.0406,3.0439,3.0509,3.051,3.053,3.0511,3.0587,3.0645,3.0716,3.0658,3.0667,3.0729,3.071,3.0769,3.082,3.0801,3.0798,3.0801,3.0799,3.0791,3.0798,3.0767,3.0735,3.0659,3.0603,3.0574,3.0549,3.0413,3.0381,3.037,3.0297,3.0279,3.0254,3.0166,3.0034,2.9888,2.9855,2.9662,2.9456,2.9437,2.9398,2.9258,2.8979,2.8883,2.8718,2.8156,2.7992,2.7851,2.7595,2.7227,2.6906,2.6657,2.6245,2.5997,2.5997,2.5652,2.5275,2.4942,2.4934,2.478,2.4359,2.441,2.4425,2.4317,2.4302,2.4302,2.4302,2.4326,2.4119,2.3628,2.3229,2.3264,2.3692,2.3406,2.3473,2.3937,2.4149,2.4272,3.202,3.4056,3.6022,0.0,3.7307,3.7819,0.0,0.0,3.6886,0.0,3.559,3.5874,3.5071,3.4996,3.504,3.5078,3.4984,3.4642,3.3882,3.3783,3.3494,3.2689,3.3309,3.3566,3.2985,3.3593,3.347,3.2198,3.1885,3.1456,3.0751,3.0518,3.0386,3.0406,3.0458,3.049,3.0491,3.0557,3.0595,3.0598,3.0656,3.0723,3.0796,3.0775,3.0774,3.0793,3.0796,3.082,3.0871,3.0827,3.0804,3.0799,3.0807,3.0801,3.079,3.0671,3.0625,3.0603,3.0472,3.0423,3.0413,3.0333,3.0309,3.0304,3.0221,3.0213,3.0185,3.0003,2.9921,2.9855,2.9681,2.9475,2.9314,2.9172,2.8879,2.8615,2.8579,2.8442,2.8183,2.7829,2.7504,2.7227,2.6873,2.6522,2.6245,2.6175,2.5835,2.5577,2.5577,2.5237,2.4942,2.4902,2.5103,2.4976,2.4348,2.4841,2.4933,2.4348,2.4302,2.4302,2.4302,2.447,2.4313,2.3795,2.3702,2.3525,2.3195,2.373,2.4027,2.4069,2.4611,2.4883,3.2002,3.3333,3.4638,3.6025,3.6433,3.6391,3.6182,3.5924,3.5453,3.4438,3.4515,3.4721,3.4547,3.4626,3.4771,3.487,3.4908,3.4472,3.3254,3.3099,3.2638,3.1352,3.1603,3.1915,3.2058,3.2445,3.2549,3.234,3.1911,3.1501,3.116,3.1126,3.116,3.1171,3.1246,3.1273,3.128,3.0879,3.0667,3.0704,3.0735,3.0796,3.0857,3.0818,3.0797,3.0798,3.0797,3.0813,3.0845,3.0801,3.0801,3.0799,3.0767,3.0726,3.0681,3.0576,3.0509,3.0472,3.037,3.0325,3.0333,3.0273,3.0247,3.0221,3.0079,3.0034,3.0003,2.9786,2.9644,2.9551,2.9436,2.9148,2.8827,2.8779,2.843,2.8083,2.7956,2.7964,2.801,2.8032,2.7245,2.6657,2.6937,2.6297,2.5893,2.6265,2.5986,2.5855,2.6286,2.5979,2.5586,2.5181,2.5558,2.5456,2.4394,2.4918,2.5025,2.4348,2.4656,2.4872,2.4872,2.5002,2.4889,2.437,2.4081,2.3872,2.3689,2.3973,2.4286,2.4625,2.4883,2.5005,3.1618,3.2453,3.3327,3.5095,3.5398,3.5182,0.0,0.0,3.3991,0.0,3.3414,3.3707,3.4255,3.4495,3.4647,3.4811,3.4718,3.413,3.2703,3.2393,3.1759,3.0299,3.0371,3.0718,3.1153,3.145,3.1776,3.2238,3.1898,3.1691,3.1691,3.1934,3.2104,3.2144,3.2003,3.1928,3.1923,3.1135,3.0755,3.0837,3.0839,3.0839,3.0866,3.0823,3.0796,3.0771,3.0799,3.0796,3.0768,3.0768,3.0742,3.0728,3.067,3.0614,3.0559,3.0482,3.0422,3.0359,3.0304,3.0267,3.0254,3.0171,3.0128,3.0098,2.9888,2.9822,2.9769,2.9589,2.9415,2.9272,2.9166,2.8827,2.8492,2.8414,2.8055,2.7701,2.7478,2.743,2.7476,2.7706,2.6922,2.6339,2.6702,2.6281,2.5972,2.631,2.617,2.6224,2.6773,2.6588,2.618,2.5641,2.6195,2.6041,2.4671,2.5195,2.5302,2.461,2.5041,2.5395,2.558,2.5849,2.5667,2.5023,2.4848,2.4525,2.4123,2.4272,2.4571,2.5005,2.5005,2.5005,3.0185,3.1635,3.2934,3.314,3.4267,3.4999,0.0,0.0,3.3057,3.2347,3.2242,3.2693,3.3975,3.4409,3.4583,3.4604,3.4207,3.3576,3.2716,3.193,3.1138,3.03,3.092,3.1153,3.0433,3.1104,3.1303,3.0571,3.1261,3.1707,3.1707,3.26,3.3125,3.3125,3.2382,3.1997,3.1997,3.1204,3.0838,3.0889,3.0889,3.0866,3.0801,3.0801,3.0765,3.0715,3.0771,3.0762,3.0711,3.0711,3.0633,3.051,3.0518,3.051,3.0492,3.0356,3.0316,3.0304,3.024,3.0218,3.0171,2.9988,2.9924,2.9872,2.9681,2.9626,2.957,2.9375,2.9314,2.9209,2.8755,2.8601,2.85,2.8138,2.7829,2.7552,2.7276,2.6774,2.6365,2.6225,2.6372,2.6296,2.5702,2.6326,2.6704,2.604,2.6178,2.6394,2.6425,2.6425,2.638,2.6334,2.6934,2.678,2.5379,2.5918,2.6026,2.5302,2.5287,2.5626,2.6303,2.698,2.6768,2.5676,2.6271,2.5739,2.4123,2.4679,2.4978,2.5005,2.5005,2.5005,0.0,0.0,3.0957,3.1929,3.2639,3.3064,3.3042,3.3135,3.3039,3.2264,3.2141,3.221,3.2198,3.3371,3.4454,3.4791,3.4699,3.4108,3.2787,3.2346,3.1897,3.1111,3.1345,3.1673,3.193,3.2257,3.2333,3.2088,3.2403,3.26,3.259,3.3507,3.403,3.403,3.3293,3.2377,3.1304,3.1015,3.0876,3.0907,3.0864,3.0794,3.0732,3.0743,3.0691,3.0633,3.0613,3.0626,3.0626,3.0593,3.0533,3.0513,3.0443,3.0441,3.043,3.0286,3.0253,3.0207,3.0064,3.0003,2.9969,2.9769,2.9698,2.9662,2.9474,2.9415,2.9316,2.8966,2.885,2.8761,2.8386,2.8147,2.7915,2.7461,2.7307,2.7132,2.6624,2.6401,2.6526,2.7363,2.6756,2.6341,2.7051,2.6859,2.665,2.6836,2.6948,2.7196,2.7626,2.7688,2.7519,2.7088,2.7642,2.7488,2.6118,2.6641,2.6734,2.6041,2.6411,2.6612,2.6484,2.6777,2.6616,2.5863,2.5685,2.5315,2.4693,2.4896,2.5005,2.5005,2.5005,2.5005,2.8972,0.0,0.0,3.1112,3.1446,3.1721,3.2529,3.2631,3.2495,3.2224,3.2292,3.2273,3.1854,3.3178,3.427,3.3997,3.4092,3.3819,3.2762,3.2626,3.2447,3.2001,3.2234,3.2549,3.2878,3.3185,3.3284,3.3048,3.3364,0.0,3.3573,3.4469,3.4705,3.4156,3.3654,3.2595,3.0916,3.0891,3.0884,3.0836,3.0791,3.0728,3.0675,3.0664,3.0613,3.0527,3.049,3.0481,3.0537,3.0481,3.0434,3.0384,3.0344,3.0292,3.0222,3.0138,3.0049,2.9969,2.9855,2.9805,2.977,2.9551,2.9513,2.9474,2.927,2.9141,2.9012,2.87,2.8525,2.836,2.8065,2.7771,2.7496,2.712,2.7128,2.7063,2.6347,2.612,2.6392,2.7326,2.67,2.6354,2.7321,2.7255,2.7149,2.7365,2.758,2.7904,2.835,2.8411,2.8227,2.778,2.8134,2.795,2.6826,2.7134,2.7149,2.6489,2.6824,2.6952,2.6594,2.6667,2.6443,2.5893,2.5508,2.5174,2.5005,2.5005,2.5005,2.5005,2.5005,2.5005,0.0,0.0,0.0,3.0612,3.0856,3.1101,3.1916,3.1601,3.1356,3.212,3.2577,3.2858,3.3011,3.3928,3.403,3.2206,3.2335,3.2667,3.2629,3.2695,3.2779,3.2876,3.3614,3.3834,3.3127,3.3867,3.4042,3.3267,3.4034,3.4536,3.4534,3.5389,3.5107,3.3457,3.3378,3.2576,3.0913,3.0889,3.0833,3.0706,3.0706,3.067,3.0595,3.0595,3.0518,3.0392,3.0378,3.0386,3.0386,3.0386,3.0323,3.0185,3.0185,3.0064,2.9888,2.9888,2.9787,2.9608,2.9589,2.9589,2.957,2.9355,2.9272,2.923,2.9044,2.8791,2.8576,2.8576,2.8334,2.802,2.776,2.7531,2.7284,2.7154,2.7386,2.7391,2.6512,2.6023,2.5772,2.5916,2.6134,2.6319,2.638,2.7519,2.8181,2.7519,2.798,2.8411,2.8411,2.8411,2.8411,2.8411,2.8411,2.8134,2.7473,2.7426,2.7161,2.6557,2.6508,2.6544,2.6649,2.6678,2.6428,2.5893,2.5893,2.5619,2.5005,2.5005,2.5005,2.5005,2.5005,2.5005,2.8466,0.0,0.0,0.0,0.0,0.0,3.0342,3.1211,3.1919,3.1763,3.2299,3.2696,3.2374,3.2674,3.2826,3.2409,3.3534,3.4276,3.3677,3.3666,3.394,3.4597,3.488,3.5479,3.6554,3.6373,3.6105,0.0,3.5671,3.5518,3.5506,3.5208,3.4531,3.3437,3.2789,3.1901,3.0765,3.0755,3.0706,3.0626,3.0633,3.0595,3.054,3.0482,3.0378,3.0267,3.026,3.0266,3.0266,3.0266,3.0152,2.9988,2.9988,2.9872,2.9681,2.9681,2.9644,2.9589,2.9435,2.9395,2.9334,2.892,2.8779,2.8731,2.8438,2.8308,2.8201,2.8,2.7886,2.7865,2.8143,2.7876,2.7708,2.8146,2.8122,2.7783,2.7162,2.6856,2.6716,2.6688,2.6925,2.7257,2.775,2.815,2.835,2.815,2.8288,2.8411,2.8411,2.8411,2.8411,2.8411,2.8411,2.8158,2.7538,2.7459,2.726,2.6674,2.6623,2.6504,2.6136,2.6136,2.5825,2.5286,2.523,2.5174,2.5005,2.5005,2.5005,2.5005,2.5005,2.5005,0.0,0.0,0.0,0.0,0.0,0.0,3.0287,3.1009,3.1587,3.1704,3.2216,3.257,3.2279,3.2669,3.307,3.3157,3.4362,3.4983,3.4155,3.4361,3.4808,3.5369,3.6056,3.6631,3.7018,3.7316,3.7228,3.6579,3.6165,3.5945,3.5932,3.5508,3.4665,3.3406,3.2871,3.1971,3.0677,3.0661,3.062,3.056,3.0571,3.052,3.0425,3.0371,3.0254,3.0075,3.0079,3.0034,2.9953,2.9953,2.9921,2.9888,2.9822,2.9662,2.9456,2.9456,2.9415,2.9332,2.9101,2.9012,2.8925,2.8515,2.8386,2.836,2.8156,2.802,2.7897,2.7742,2.7504,2.74,2.7963,2.7807,2.7587,2.7968,2.8207,2.8103,2.7146,2.7413,2.7734,2.7306,2.7333,2.7611,2.8288,2.8411,2.8411,2.8411,2.8411,2.8411,2.8411,2.8411,2.8411,2.8411,2.8411,2.8235,2.791,2.763,2.7246,2.673,2.6481,2.6136,2.5564,2.5508,2.5342,2.5005,2.5005,2.5005,2.5005,2.5005,2.5005,2.5005,2.5005,2.5005,0.0,0.0,0.0,0.0,2.9338,0.0,3.0849,3.0816,3.073,3.165,3.2166,3.2438,3.2473,3.3249,3.3944,3.4055,3.4736,3.5,3.4352,3.487,3.5398,3.5622,3.6964,3.734,3.6028,3.7275,3.7579,3.6146,3.6007,3.5996,3.5993,3.5895,3.5066,3.3349,3.32,3.2313,3.0607,3.0593,3.056,3.0482,3.0472,3.0409,3.0266,3.0253,3.0123,2.9872,2.9872,2.977,2.9608,2.9589,2.9681,2.9822,2.9644,2.9455,2.9251,2.923,2.9097,2.8905,2.8626,2.8551,2.8482,2.8156,2.8047,2.8047,2.802,2.784,2.7642,2.7595,2.7215,2.6945,2.7618,2.7561,2.7399,2.7465,2.8111,2.8361,2.6992,2.785,2.8654,2.7876,2.7628,2.7703,2.8304,2.8411,2.8411,2.8411,2.8411,2.8411,2.8411,2.8411,2.8348,2.8299,2.8299,2.825,2.8137,2.7645,2.7108,2.652,2.6082,2.5564,2.5005,2.5005,2.5005,2.5005,2.5005,2.5005,2.5005,2.5005,2.5005,2.5005,2.5005,2.5005,0.0,0.0,0.0,0.0,0.0,0.0,2.9265,2.98,3.0392,3.0785,3.1476,3.2068,3.2297,3.2521,3.2931,3.3802,3.4075,3.4423,3.5119,3.5353,3.574,3.6459,3.6839,3.7212,3.7653,3.748,3.7209,3.6888,3.6339,3.5971,3.5923,3.5252,3.4369,3.3252,3.2532,3.1635,3.0537,3.0509,3.0472,3.0333,3.0348,3.0215,2.9992,2.9984,2.9872,2.9662,2.9662,2.9644,2.9589,2.9435,2.9395,2.9415,2.9375,2.9249,2.9044,2.8821,2.8725,2.8626,2.8308,2.8183,2.8156,2.7869,2.7771,2.776,2.7526,2.7421,2.7296,2.6989,2.7182,2.7599,2.8044,2.8303,2.8565,2.9134,2.9143,2.8928,2.8659,2.8715,2.8795,2.8623,2.8435,2.8386,2.8381,2.8411,2.8411,2.8411,2.8411,2.8411,2.8411,2.8411,2.8186,2.773,2.768,2.7327,2.6472,2.6312,2.5974,2.537,2.5216,2.5118,2.5005,2.5005,2.5005,2.5005,2.5005,2.5005,2.5005,2.5005,2.5005,2.5005,2.5005,2.5005,0.0,0.0,0.0,2.8716,0.0,0.0,0.0,2.9476,3.019,3.0442,3.0848,3.1301,3.1751,3.193,3.2428,3.3735,3.4016,3.4389,3.5419,3.555,3.5731,3.6198,3.6658,3.6987,3.7055,3.7111,3.698,3.6579,3.6171,3.5929,3.5899,3.5421,3.4724,3.3768,3.2945,3.2058,3.1116,3.0642,3.0367,3.0304,3.0202,3.0071,2.9896,2.9836,2.9662,2.9455,2.9455,2.9395,2.9291,2.9056,2.8966,2.8966,2.8966,2.8892,2.8767,2.8456,2.8334,2.8308,2.801,2.7897,2.784,2.76,2.7496,2.7465,2.7345,2.7137,2.6993,2.694,2.7058,2.7349,2.8256,2.844,2.8467,2.8862,2.9051,2.8996,2.8679,2.8793,2.892,2.8858,2.8795,2.8668,2.8444,2.8411,2.8411,2.8411,2.8411,2.8411,2.8411,2.8122,2.7845,2.7515,2.7246,2.6901,2.6336,2.6042,2.5784,2.5453,2.5174,2.5005,2.5005,2.529,2.5602,2.59,2.5914,2.5914,2.5914,2.5914,2.5751,2.5453,2.5453,2.5453,0.0,0.0,0.0,0.0,0.0,2.9559,0.0,0.0,0.0,3.0228,3.0286,3.0465,3.1006,0.0,0.0,3.3288,0.0,0.0,0.0,3.5126,0.0,3.566,3.6382,3.6596,3.5931,3.6515,3.6673,3.6031,3.5926,3.587,3.5833,3.5741,3.5251,3.4309,3.3487,3.2601,3.1642,3.0702,3.0216,3.0177,3.0003,2.988,2.978,2.9662,2.9474,2.9249,2.9188,2.9075,2.8905,2.8626,2.8507,2.8507,2.8507,2.8507,2.8456,2.8129,2.802,2.7964,2.773,2.7582,2.7461,2.7247,2.7137,2.7072,2.7072,2.6944,2.6823,2.7028,2.7065,2.726,2.8297,2.8439,2.8284,2.8284,2.8726,2.8979,2.841,2.8681,2.9029,2.8904,2.8873,2.8795,2.8541,2.846,2.8444,2.8444,2.8348,2.8284,2.8411,2.7845,2.7464,2.7363,2.6938,2.6625,2.6361,2.5974,2.5729,2.5729,2.5286,2.5005,2.5005,2.5575,2.6185,2.6809,2.6823,2.6823,2.6823,2.6823,2.6565,2.6063,2.6063,2.6009,0.0,0.0,0.0,0.0,2.9621,0.0,2.9599,0.0,2.9834,2.9867,0.0,2.9996,3.006,0.0,0.0,0.0,0.0,0.0,3.3241,3.3431,3.4018,3.5523,3.5852,3.588,3.5742,3.5919,3.6015,3.5927,3.5895,3.582,3.564,3.562,3.5179,3.4238,3.3378,3.243,3.1451,3.0496,2.9939,2.9782,2.9676,2.9551,2.9357,2.9355,2.9228,2.9021,2.8773,2.8676,2.8626,2.8308,2.8156,2.8156,2.8156,2.8156,2.8129,2.7858,2.776,2.7701,2.7452,2.712,2.6825,2.6758,2.6539,2.6245,2.6245,2.6656,2.7057,2.6759,2.7543,2.8436,2.8224,2.8598,2.9011,2.9011,2.9028,2.9059,2.898,2.8966,2.8904,2.8904,2.8842,2.8794,2.8747,2.8652,2.8573,2.8573,2.7993,2.7795,2.8348,2.7845,2.7297,2.6834,2.673,2.6322,2.5272,2.5174,2.5118,2.5118,2.5061,2.5005,2.5005,2.5575,2.6185,2.6809,2.6823,2.6823,2.6823,2.6823,2.6782,2.6714,2.6714,2.6416,0.0,0.0,0.0,0.0,0.0,0.0,2.9464,0.0,3.015,0.0,0.0,0.0,0.0,0.0,0.0,0.0,3.1619,0.0,0.0,0.0,3.3686,0.0,0.0,0.0,3.5822,3.5915,3.5734,3.5197,3.5541,3.5516,3.4883,3.5288,3.5348,3.4922,3.3988,3.3019,3.205,3.107,3.0255,2.9642,2.9514,2.9378,2.9293,2.9034,2.8845,2.8743,2.8438,2.8308,2.8281,2.7982,2.7869,2.784,2.7701,2.7713,2.7858,2.7569,2.7324,2.71,2.7006,2.6691,2.6434,2.685,2.6576,2.6217,2.6798,2.6918,2.6955,2.7352,2.7897,2.8395,2.8629,2.8916,2.9075,2.9075,2.9075,2.9029,2.8826,2.8873,2.8967,2.8716,2.8842,2.8951,2.8951,2.8826,2.8732,2.8732,2.8365,2.8204,2.8477,2.7944,2.7414,2.7195,2.6602,2.6028,2.555,2.5174,2.5005,2.5005,2.5331,2.5683,2.605,2.6633,2.723,2.7841,2.7841,2.7841,2.7841,2.7841,2.7841,2.7841,2.7501,2.7013,3.0379,0.0,0.0,0.0,0.0,0.0,0.0,0.0,0.0,0.0,0.0,0.0,0.0,0.0,0.0,0.0,0.0,3.1792,0.0,3.2753,0.0,0.0,0.0,0.0,0.0,3.5777,3.5344,3.4628,3.4853,3.4796,3.4268,3.4796,3.5163,3.5285,3.4366,3.3358,3.2367,3.1374,3.0396,2.9457,2.9314,2.9166,2.9101,2.8773,2.8551,2.8456,2.8147,2.7992,2.7982,2.7701,2.7522,2.7413,2.7215,2.7198,2.7241,2.7184,2.6875,2.6556,2.6556,2.6378,2.6319,2.6711,2.6662,2.6504,2.7227,2.7258,2.7144,2.7882,2.8237,2.8444,2.8841,2.9029,2.9075,2.8967,2.8936,2.8873,2.8716,2.8826,2.8873,2.8574,2.8716,2.892,2.8779,2.8795,2.8779,2.8684,2.8414,2.8253,2.8204,2.773,2.7351,2.7086,2.6494,2.6007,2.5688,2.5381,2.5331,2.5493,2.59,2.643,2.704,2.7488,2.7976,2.8587,2.8587,2.8587,2.8587,2.8587,2.8587,2.8587,2.8153,2.7623,0.0,0.0,0.0,3.0381,0.0,0.0,0.0,0.0,3.0602,0.0,0.0,0.0,0.0,0.0,0.0,0.0,0.0,0.0,0.0,0.0,0.0,0.0,0.0,0.0,0.0,3.5244,3.4679,3.4528,3.3748,3.3509,3.4076,3.4139,3.4404,3.4996,3.4162,3.3128,3.1925,3.1057,3.0108,2.9112,2.9044,2.8863,2.8626,2.8601,2.843,2.8102,2.7829,2.7713,2.7701,2.7421,2.7087,2.6725,2.6725,2.6505,2.621,2.6573,2.647,2.6139,2.6139,2.6327,2.6509,2.6157,2.6509,2.7078,2.7126,2.7569,2.8075,2.8079,2.8568,2.8997,2.8606,2.8826,2.9029,2.8622,2.8511,2.8622,2.8982,2.8764,2.8511,2.8511,2.8511,2.8415,2.8012,2.8463,2.8779,2.8446,2.7815,2.7297,2.7174,2.719,2.6914,2.6059,2.6399,2.6217,2.5102,2.5534,2.6117,2.6728,2.6782,2.7054,2.7664,2.7691,2.7976,2.8587,2.8587,2.8587,2.8587,2.8587,2.8587,2.8587,2.8573,2.8248,0.0,0.0,3.051,3.0532,0.0,0.0,0.0,0.0,0.0,0.0,0.0,0.0,0.0,0.0,0.0,0.0,0.0,0.0,0.0,0.0,3.2461,0.0,0.0,0.0,0.0,0.0,3.4296,3.3623,3.3257,3.2894,3.248,3.3345,3.3941,3.4127,3.411,3.3377,3.1853,3.1417,3.0466,2.904,2.8815,2.8694,2.8576,2.8192,2.7943,2.7829,2.7539,2.7452,2.7421,2.7055,2.6808,2.6657,2.6401,2.6052,2.5762,2.6175,2.6068,2.5717,2.5954,2.611,2.6316,2.7126,2.7257,2.7273,2.8173,2.8418,2.8451,2.8903,2.8989,2.8962,2.8813,2.856,2.8255,2.8158,2.811,2.8158,2.8271,2.8207,2.811,2.811,2.811,2.8061,2.7898,2.811,2.8207,2.8076,2.7845,2.7658,2.7817,2.7422,2.7113,2.7006,2.682,2.6414,2.5661,2.5778,2.6158,2.6782,2.7189,2.7501,2.7691,2.8085,2.8383,2.8587,2.8587,2.8587,2.8587,2.8587,2.8587,2.8587,2.8587,2.8275,3.0579,3.0579,0.0,3.062,3.0656,0.0,3.0613,0.0,3.0675,0.0,0.0,0.0,0.0,0.0,0.0,0.0,0.0,0.0,0.0,3.1366,0.0,0.0,3.4566,0.0,0.0,3.4876,3.3934,3.26,3.2458,3.2103,3.1401,3.2492,3.3223,3.3429,3.3967,3.3557,3.2093,3.1679,3.0723,2.9278,2.8821,2.85,2.8273,2.7886,2.7642,2.7539,2.7376,2.7218,2.7072,2.6957,2.6657,2.6245,2.6139,2.5762,2.5384,2.5762,2.5777,2.5702,2.5916,2.6325,2.6893,2.781,2.7879,2.7745,2.8607,2.8761,2.8652,2.8885,2.9098,2.9161,2.88,2.8641,2.8531,2.8122,2.8011,2.8001,2.791,2.783,2.773,2.773,2.773,2.7695,2.753,2.7673,2.7874,2.8026,2.8006,2.7988,2.8035,2.7784,2.7576,2.7329,2.7139,2.6951,2.6576,2.6558,2.6796,2.742,2.7813,2.8017,2.8017,2.8383,2.8695,2.8912,2.8695,2.8695,2.8912,2.8695,2.8587,2.8587,2.8587,2.8383]}]]